[[{"header":{"parameterUnit":"m.s-1","parameterCategory":1,"la1":30.6,"la2":28.766,"lo1":-90.7593,"lo2":-88.6598,"dx":0.0162,"dy":0.0183,"nx":116,"ny":114,"refTime":"2023-02-07T06:00:00:Z","depth":0,"parameterNumber":2,"parameterNumberName":"U-component_of_WINDS"},"data":[0.0,0.0,0.0,0.0,0.0,0.0,0.0,0.0,0.0,0.0,0.0,0.0,0.0,0.0,0.0,0.0,0.0,0.0,0.0,0.0,0.0,0.0,0.0,0.0,0.0,0.0,0.0,0.0,0.0,0.0,0.0,0.0,0.0,0.0,0.0,0.0,0.0,0.0,0.0,0.0,0.0,0.0,0.0,0.0,0.0,0.0,0.0,0.0,0.0,0.0,0.0,0.0,0.0,0.0,0.0,0.0,0.0,0.0,0.0,0.0,0.0,0.0,0.0,0.0,0.0,0.0,0.0,0.0,0.0,0.0,0.0,0.0,0.0,0.0,0.0,0.0,0.0,0.0,0.0,0.0,0.0,0.0,0.0,0.0,0.0,0.0,0.0,0.0,0.0,0.0,0.0,0.0,0.0,0.0,0.0,0.0,0.0,0.0,0.0,0.0,0.0,0.0,0.0,0.0,0.0,0.0,0.0,0.0,0.0,0.0,0.0,0.0,0.0,0.0,0.0,0.0,0.0,0.0,0.0,0.0,0.0,0.0,0.0,0.0,0.0,0.0,0.0,0.0,0.0,0.0,0.0,0.0,0.0,0.0,0.0,0.0,0.0,0.0,0.0,0.0,0.0,0.0,0.0,0.0,0.0,0.0,0.0,0.0,0.0,0.0,0.0,0.0,0.0,0.0,0.0,0.0,0.0,0.0,0.0,0.0,0.0,0.0,0.0,0.0,0.0,0.0,0.0,0.0,0.0,0.0,0.0,0.0,0.0,0.0,0.0,0.0,0.0,0.0,0.0,0.0,0.0,0.0,0.0,0.0,0.0,0.0,0.0,0.0,0.0,0.0,0.0,0.0,0.0,0.0,0.0,0.0,0.0,0.0,0.0,0.0,0.0,0.0,0.0,0.0,0.0,0.0,0.0,0.0,0.0,0.0,0.0,0.0,0.0,0.0,0.0,0.0,0.0,0.0,0.0,0.0,0.0,0.0,0.0,0.0,0.0,0.0,0.0,0.0,0.0,0.0,0.0,0.0,0.0,0.0,0.0,0.0,0.0,0.0,0.0,0.0,0.0,0.0,0.0,0.0,0.0,0.0,0.0,0.0,0.0,0.0,0.0,0.0,0.0,0.0,0.0,0.0,0.0,0.0,0.0,0.0,0.0,0.0,0.0,0.0,0.0,0.0,0.0,0.0,0.0,0.0,0.0,0.0,0.0,0.0,0.0,0.0,0.0,0.0,0.0,0.0,0.0,0.0,0.0,0.0,0.0,0.0,0.0,0.0,0.0,0.0,0.0,0.0,0.0,0.0,0.0,0.0,0.0,0.0,0.0,0.0,0.0,0.0,0.0,0.0,0.0,0.0,0.0,0.0,0.0,0.0,0.0,0.0,0.0,0.0,0.0,0.0,0.0,0.0,0.0,0.0,0.0,0.0,0.0,0.0,0.0,0.0,0.0,0.0,0.0,0.0,0.0,0.0,0.0,0.0,0.0,0.0,0.0,0.0,0.0,0.0,0.0,0.0,0.0,0.0,0.0,0.0,0.0,0.0,0.0,0.0,0.0,0.0,0.0,0.0,0.0,0.0,0.0,0.0,0.0,0.0,0.0,0.0,0.0,0.0,0.0,0.0,0.0,0.0,0.0,0.0,0.0,0.0,0.0,0.0,0.0,0.0,0.0,0.0,0.0,0.0,0.0,0.0,0.0,0.0,0.0,0.0,0.0,0.0,0.0,0.0,0.0,0.0,0.0,0.0,0.0,0.0,0.0,0.0,0.0,0.0,0.0,0.0,0.0,0.0,0.0,0.0,0.0,0.0,0.0,0.0,0.0,0.0,0.0,0.0,0.0,0.0,0.0,0.0,0.0,0.0,0.0,0.0,0.0,0.0,0.0,0.0,0.0,0.0,0.0,0.0,0.0,0.0,0.0,0.0,0.0,0.0,0.0,0.0,0.0,0.0,0.0,0.0,0.0,0.0,0.0,0.0,0.0,0.0,0.0,0.0,0.0,0.0,0.0,0.0,0.0,0.0,0.0,0.0,0.0,0.0,0.0,0.0,0.0,0.0,0.0,0.0,0.0,0.0,0.0,0.0,0.0,0.0,0.0,0.0,0.0,0.0,0.0,0.0,0.0,0.0,0.0,0.0,0.0,0.0,0.0,0.0,0.0,0.0,0.0,0.0,0.0,0.0,0.0,0.0,0.0,0.0,0.0,0.0,0.0,0.0,0.0,0.0,0.0,0.0,0.0,0.0,0.0,0.0,0.0,0.0,0.0,0.0,0.0,0.0,0.0,0.0,0.0,0.0,0.0,0.0,0.0,0.0,0.0,0.0,0.0,0.0,0.0,0.0,0.0,0.0,0.0,0.0,0.0,0.0,0.0,0.0,0.0,0.0,0.0,0.0,0.0,0.0,0.0,0.0,0.0,0.0,0.0,0.0,0.0,0.0,0.0,0.0,0.0,0.0,0.0,0.0,0.0,0.0,0.0,0.0,0.0,0.0,0.0,0.0,0.0,0.0,0.0,0.0,0.0,0.0,0.0,0.0,0.0,0.0,0.0,0.0,0.0,0.0,0.0,0.0,0.0,0.0,0.0,0.0,0.0,0.0,0.0,0.0,0.0,0.0,0.0,0.0,0.0,0.0,0.0,0.0,0.0,0.0,0.0,0.0,0.0,0.0,0.0,0.0,0.0,0.0,0.0,0.0,0.0,0.0,0.0,0.0,0.0,0.0,0.0,0.0,0.0,0.0,0.0,0.0,0.0,0.0,0.0,0.0,0.0,0.0,0.0,0.0,0.0,0.0,0.0,0.0,0.0,0.0,0.0,0.0,0.0,0.0,0.0,0.0,0.0,0.0,0.0,0.0,0.0,0.0,0.0,0.0,0.0,0.0,0.0,0.0,0.0,0.0,0.0,0.0,0.0,0.0,0.0,0.0,0.0,0.0,0.0,0.0,0.0,0.0,0.0,0.0,0.0,0.0,0.0,0.0,0.0,0.0,0.0,0.0,0.0,0.0,0.0,0.0,0.0,0.0,0.0,0.0,0.0,0.0,0.0,0.0,0.0,0.0,0.0,0.0,0.0,0.0,0.0,0.0,0.0,0.0,0.0,0.0,0.0,0.0,0.0,0.0,0.0,0.0,0.0,0.0,0.0,0.0,0.0,0.0,0.0,0.0,0.0,0.0,0.0,0.0,0.0,0.0,0.0,0.0,0.0,0.0,0.0,0.0,0.0,0.0,0.0,0.0,0.0,0.0,0.0,0.0,0.0,0.0,0.0,0.0,0.0,0.0,0.0,0.0,0.0,0.0,0.0,0.0,0.0,0.0,0.0,0.0,0.0,0.0,0.0,0.0,0.0,0.0,0.0,0.0,0.0,0.0,0.0,0.0,0.0,0.0,0.0,0.0,0.0,0.0,0.0,0.0,0.0,0.0,0.0,0.0,0.0,0.0,0.0,0.0,0.0,0.0,0.0,0.0,0.0,0.0,0.0,0.0,0.0,0.0,0.0,0.0,0.0,0.0,0.0,0.0,0.0,0.0,0.0,0.0,0.0,0.0,0.0,0.0,0.0,0.0,0.0,0.0,0.0,0.0,0.0,0.0,0.0,0.0,0.0,0.0,0.0,0.0,0.0,0.0,0.0,0.0,0.0,0.0,0.0,0.0,0.0,0.0,0.0,0.0,0.0,0.0,0.0,0.0,0.0,0.0,0.0,0.0,0.0,0.0,0.0,0.0,0.0,0.0,0.0,0.0,0.0,0.0,0.0,0.0,0.0,0.0,0.0,0.0,0.0,0.0,0.0,0.0,0.0,0.0,0.0,0.0,0.0,0.0,0.0,0.0,0.0,0.0,0.0,0.0,0.0,0.0,0.0,0.0,0.0,0.0,0.0,0.0,0.0,0.0,0.0,0.0,0.0,0.0,0.0,0.0,0.0,0.0,0.0,0.0,0.0,0.0,0.0,0.0,0.0,0.0,0.0,0.0,0.0,0.0,0.0,0.0,0.0,0.0,0.0,0.0,0.0,0.0,0.0,0.0,0.0,0.0,0.0,0.0,0.0,0.0,0.0,0.0,0.0,0.0,0.0,0.0,0.0,0.0,0.0,0.0,0.0,0.0,0.0,0.0,0.0,0.0,0.0,0.0,0.0,0.0,0.0,0.0,0.0,0.0,0.0,0.0,0.0,0.0,0.0,0.0,0.0,0.0,0.0,0.0,0.0,0.0,0.0,0.0,0.0,0.0,0.0,0.0,0.0,0.0,0.0,0.0,0.0,0.0,0.0,0.0,0.0,0.0,0.0,0.0,0.0,0.0,0.0,0.0,0.0,0.0,0.0,0.0,0.0,0.0,0.0,0.0,0.0,0.0,0.0,0.0,0.0,0.0,0.0,0.0,0.0,0.0,0.0,0.0,0.0,0.0,0.0,0.0,0.0,0.0,0.0,0.0,0.0,0.0,0.0,0.0,0.0,0.0,0.0,0.0,0.0,0.0,0.0,0.0,0.0,0.0,0.0,0.0,0.0,0.0,0.0,0.0,0.0,0.0,0.0,0.0,0.0,0.0,0.0,0.0,0.0,0.0,0.0,0.0,0.0,0.0,0.0,0.0,0.0,0.0,0.0,0.0,0.0,0.0,0.0,0.0,0.0,0.0,0.0,0.0,0.0,0.0,0.0,0.0,0.0,0.0,0.0,0.0,0.0,0.0,0.0,0.0,0.0,0.0,0.0,0.0,0.0,0.0,0.0,0.0,0.0,0.0,0.0,0.0,0.0,0.0,0.0,0.0,0.0,0.0,0.0,0.0,0.0,0.0,0.0,0.0,0.0,0.0,0.0,0.0,0.0,0.0,0.0,0.0,0.0,0.0,0.0,0.0,0.0,0.0,0.0,0.0,0.0,0.0,0.0,0.0,0.0,0.0,0.0,0.0,0.0,0.0,0.0,0.0,0.0,0.0,0.0,0.0,0.0,0.0,0.0,0.0,0.0,0.0,0.0,0.0,0.0,0.0,0.0,0.0,0.0,0.0,0.0,0.0,0.0,0.0,0.0,0.0,0.0,0.0,0.0,0.0,0.0,0.0,0.0,0.0,0.0,0.0,0.0,0.0,0.0,0.0,0.0,0.0,0.0,0.0,0.0,0.0,0.0,0.0,0.0,0.0,0.0,0.0,0.0,0.0,0.0,0.0,0.0,0.0,0.0,0.0,0.0,0.0,0.0,0.0,0.0,0.0,0.0,0.0,0.0,0.0,0.0,0.0,0.0,0.0,0.0,0.0,0.0,0.0,0.0,0.0,0.0,0.0,0.0,0.0,0.0,0.0,0.0,0.0,0.0,0.0,0.0,0.0,0.0,0.0,0.0,0.0,0.0,0.0,0.0,0.0,0.0,0.0,0.0,0.0,0.0,0.0,0.0,0.0,0.0,0.0,0.0,0.0,0.0,0.0,0.0,0.0,0.0,0.0,0.0,0.0,0.0,0.0,0.0,0.0,0.0,0.0,0.0,0.0,0.0,0.0,0.0,0.0,0.0,0.0,0.0,0.0,0.0,0.0,0.0,0.0,0.0,0.0,0.0,0.0,0.0,0.0,0.0,0.0,0.0,0.0,0.0,0.0,0.0,0.0,0.0,0.0,0.0,0.0,0.0,0.0,0.0,0.0,0.0,0.0,0.0,0.0,0.0,0.0,0.0,0.0,0.0,0.0,0.0,0.0,0.0,0.0,0.0,0.0,0.0,0.0,0.0,0.0,0.0,0.0,0.0,0.0,0.0,0.0,0.0,0.0,0.0,0.0,0.0,0.0,0.0,0.0,0.0,0.0,0.0,0.0,0.0,0.0,0.0,0.0,0.0,0.0,0.0,0.0,0.0,0.0,0.0,0.0,0.0,0.0,0.0,0.0,0.0,0.0,0.0,0.0,0.0,0.0,0.0,0.0,0.0,0.0,0.0,0.0,0.0,0.0,0.0,0.0,0.0,0.0,0.0,0.0,0.0,0.0,0.0,0.0,0.0,0.0,0.0,0.0,0.0,0.0,0.0,0.0,0.0,0.0,0.0,0.0,0.0,0.0,0.0,0.0,0.0,0.0,0.0,0.0,0.0,0.0,0.0,0.0,0.0,0.0,0.0,0.0,0.0,0.0,4.5968,0.0,0.0,0.0,0.0,0.0,0.0,0.0,0.0,0.0,0.0,0.0,0.0,0.0,0.0,0.0,0.0,0.0,0.0,0.0,0.0,0.0,0.0,0.0,0.0,0.0,0.0,0.0,0.0,0.0,0.0,0.0,0.0,0.0,0.0,0.0,0.0,0.0,0.0,0.0,0.0,0.0,0.0,0.0,0.0,0.0,0.0,0.0,0.0,0.0,0.0,0.0,0.0,0.0,0.0,0.0,0.0,0.0,0.0,0.0,0.0,0.0,0.0,0.0,0.0,0.0,0.0,0.0,0.0,0.0,0.0,0.0,0.0,0.0,0.0,0.0,0.0,0.0,0.0,0.0,0.0,0.0,0.0,0.0,0.0,0.0,0.0,0.0,0.0,0.0,0.0,0.0,0.0,0.0,0.0,0.0,0.0,0.0,0.0,0.0,0.0,0.0,0.0,0.0,0.0,0.0,0.0,0.0,0.0,0.0,0.0,0.0,0.0,0.0,0.0,0.0,0.0,4.5972,0.0,0.0,0.0,0.0,0.0,0.0,0.0,0.0,0.0,0.0,0.0,0.0,0.0,0.0,0.0,0.0,0.0,0.0,0.0,0.0,0.0,0.0,0.0,0.0,0.0,0.0,0.0,0.0,0.0,0.0,0.0,0.0,0.0,0.0,0.0,0.0,0.0,0.0,0.0,0.0,0.0,0.0,0.0,0.0,0.0,0.0,0.0,0.0,0.0,0.0,0.0,0.0,0.0,0.0,0.0,0.0,0.0,0.0,0.0,0.0,0.0,0.0,0.0,0.0,0.0,0.0,0.0,0.0,0.0,0.0,0.0,0.0,0.0,0.0,0.0,0.0,0.0,0.0,0.0,0.0,0.0,0.0,0.0,0.0,0.0,0.0,0.0,0.0,0.0,0.0,0.0,0.0,0.0,0.0,0.0,0.0,0.0,0.0,0.0,0.0,0.0,0.0,0.0,0.0,0.0,0.0,0.0,0.0,4.71,4.7007,4.7837,4.6895,4.6473,4.6533,4.6383,4.6112,4.5654,0.0,0.0,0.0,0.0,0.0,0.0,0.0,0.0,0.0,0.0,0.0,0.0,0.0,0.0,0.0,0.0,0.0,0.0,0.0,0.0,0.0,0.0,0.0,0.0,0.0,0.0,0.0,0.0,0.0,0.0,0.0,0.0,0.0,0.0,0.0,0.0,0.0,0.0,0.0,0.0,0.0,0.0,0.0,0.0,0.0,0.0,0.0,0.0,0.0,0.0,0.0,0.0,0.0,0.0,0.0,0.0,0.0,0.0,0.0,0.0,0.0,0.0,0.0,0.0,0.0,0.0,0.0,0.0,0.0,0.0,0.0,0.0,0.0,0.0,0.0,0.0,0.0,0.0,0.0,0.0,0.0,0.0,0.0,0.0,0.0,0.0,0.0,4.1681,4.2004,0.0,0.0,0.0,0.0,0.0,0.0,0.0,0.0,0.0,0.0,0.0,0.0,0.0,0.0,4.6356,4.6402,4.6593,4.679,4.6533,4.6586,4.6698,4.6586,4.6473,4.6473,4.654,0.0,4.6441,4.7487,0.0,0.0,0.0,0.0,0.0,0.0,0.0,0.0,0.0,0.0,0.0,0.0,0.0,0.0,0.0,0.0,0.0,0.0,0.0,0.0,0.0,0.0,0.0,0.0,0.0,0.0,0.0,0.0,0.0,0.0,0.0,0.0,0.0,0.0,0.0,0.0,0.0,0.0,0.0,0.0,0.0,0.0,0.0,0.0,0.0,0.0,0.0,0.0,0.0,0.0,0.0,0.0,0.0,0.0,0.0,0.0,0.0,0.0,0.0,0.0,0.0,0.0,0.0,0.0,0.0,0.0,0.0,0.0,0.0,0.0,0.0,0.0,0.0,0.0,0.0,0.0,0.0,0.0,0.0,0.0,0.0,0.0,0.0,0.0,0.0,4.196,4.1873,4.2134,4.2448,4.2735,0.0,0.0,0.0,0.0,0.0,0.0,0.0,0.0,0.0,4.6107,4.6342,4.6473,4.6473,4.6787,4.697,4.697,4.7283,4.744,4.744,4.744,4.744,4.744,4.744,4.744,4.7503,4.7271,4.7203,4.7203,0.0,0.0,0.0,0.0,4.6473,4.6525,0.0,0.0,0.0,0.0,0.0,0.0,0.0,0.0,0.0,0.0,0.0,0.0,0.0,0.0,0.0,4.7309,0.0,0.0,0.0,0.0,0.0,0.0,0.0,0.0,0.0,0.0,0.0,0.0,0.0,0.0,0.0,0.0,0.0,0.0,0.0,0.0,0.0,0.0,0.0,0.0,0.0,0.0,0.0,0.0,0.0,0.0,0.0,0.0,0.0,0.0,0.0,0.0,0.0,0.0,0.0,0.0,0.0,0.0,0.0,0.0,0.0,0.0,0.0,0.0,0.0,0.0,0.0,0.0,0.0,0.0,0.0,0.0,0.0,0.0,0.0,0.0,0.0,4.2483,4.2448,4.2579,4.2971,4.3363,0.0,0.0,0.0,0.0,0.0,0.0,4.5846,4.6395,4.6708,4.6708,4.6839,4.6917,4.6917,4.7336,4.7545,4.7571,4.7989,4.8172,4.8172,4.8172,4.8172,4.8172,4.8172,4.8172,4.812,4.7257,4.6917,4.6917,4.6917,4.6917,4.6917,4.6917,4.6917,4.697,0.0,0.0,0.0,0.0,0.0,0.0,0.0,0.0,0.0,0.0,0.0,0.0,0.0,0.0,4.7309,4.7309,4.7309,4.7309,0.0,0.0,0.0,0.0,0.0,0.0,0.0,0.0,0.0,0.0,0.0,0.0,0.0,0.0,0.0,0.0,0.0,0.0,0.0,0.0,0.0,5.0605,0.0,0.0,0.0,0.0,0.0,0.0,0.0,0.0,0.0,0.0,0.0,0.0,0.0,0.0,0.0,0.0,0.0,0.0,0.0,0.0,0.0,0.0,0.0,0.0,0.0,0.0,0.0,0.0,0.0,0.0,0.0,0.0,0.0,0.0,0.0,0.0,0.0,0.0,0.0,4.3729,4.3807,0.0,0.0,0.0,0.0,4.6316,4.6395,4.6421,4.6421,4.697,4.7283,4.7283,4.7832,4.8094,4.8094,4.812,4.8146,4.8146,4.8172,4.8172,4.8172,4.8172,4.8172,4.8172,4.8172,4.8172,4.8172,4.812,4.8094,4.8094,4.8094,4.8094,4.8094,4.8094,4.8094,4.8094,0.0,0.0,0.0,0.0,0.0,0.0,0.0,0.0,0.0,0.0,0.0,0.0,0.0,4.7309,4.7309,4.7309,4.7309,4.7309,4.7309,0.0,0.0,0.0,0.0,0.0,0.0,0.0,0.0,0.0,0.0,0.0,0.0,0.0,0.0,0.0,0.0,0.0,0.0,0.0,0.0,5.0697,5.0697,5.0543,0.0,0.0,0.0,0.0,0.0,0.0,0.0,0.0,0.0,0.0,0.0,0.0,0.0,0.0,0.0,0.0,0.0,0.0,0.0,0.0,0.0,0.0,0.0,0.0,0.0,0.0,0.0,0.0,0.0,0.0,0.0,0.0,0.0,0.0,0.0,0.0,0.0,4.4356,4.4774,0.0,4.6107,4.6186,4.6264,4.6447,4.6813,4.7022,4.7022,4.7571,4.7885,4.7885,4.8068,4.8381,4.8773,4.8773,4.893,4.927,4.927,4.927,4.927,4.927,4.927,4.927,4.927,4.927,4.927,4.927,4.8852,4.8172,4.8172,4.8172,4.8172,4.8172,4.8172,4.8172,0.0,0.0,0.0,0.0,0.0,0.0,0.0,0.0,0.0,0.0,0.0,4.5808,4.7106,4.7309,4.7309,4.7309,4.7309,4.7399,4.7608,0.0,0.0,0.0,0.0,0.0,0.0,0.0,0.0,0.0,0.0,0.0,0.0,0.0,0.0,0.0,0.0,0.0,0.0,0.0,5.1374,5.1374,5.1374,5.1251,5.1036,0.0,0.0,0.0,0.0,0.0,0.0,0.0,0.0,0.0,0.0,0.0,0.0,0.0,0.0,0.0,0.0,0.0,0.0,0.0,0.0,0.0,0.0,0.0,0.0,0.0,0.0,0.0,0.0,0.0,0.0,0.0,0.0,0.0,0.0,0.0,4.467,4.5245,4.5663,4.6133,4.6708,4.6761,4.6839,4.7048,4.7414,4.7623,4.7623,4.8172,4.8486,4.8486,4.8669,4.8956,4.9348,4.9348,4.9531,4.9897,4.9897,4.9897,4.9897,4.9897,4.9897,4.9897,4.9897,4.9897,4.9897,5.0106,4.974,4.9035,4.8826,4.8747,4.8747,4.8747,4.8747,4.8747,0.0,0.0,0.0,0.0,0.0,0.0,0.0,0.0,0.0,0.0,4.4312,4.5052,4.7019,4.7222,4.7222,4.7222,4.7309,4.7578,4.8237,4.8297,0.0,0.0,0.0,0.0,0.0,0.0,0.0,0.0,0.0,0.0,0.0,0.0,0.0,0.0,0.0,0.0,0.0,0.0,5.2729,5.2729,5.2729,5.2329,5.1744,0.0,0.0,0.0,0.0,0.0,0.0,0.0,0.0,0.0,0.0,0.0,0.0,0.0,0.0,0.0,0.0,0.0,0.0,0.0,0.0,0.0,0.0,0.0,0.0,0.0,0.0,0.0,0.0,0.0,0.0,0.0,0.0,0.0,4.4879,4.5297,4.5872,4.6447,4.6499,4.6734,4.731,4.7362,4.7597,4.8172,4.8224,4.8224,4.8224,4.8799,4.9113,4.9113,4.961,4.9897,4.9949,4.9949,4.9976,5.0028,5.0028,5.0028,5.0028,5.0028,5.0028,5.0002,5.0028,5.0028,5.008,5.0681,5.0917,5.0864,5.0211,4.9949,4.9949,4.9923,4.9897,4.9897,0.0,0.0,0.0,0.0,0.0,0.0,0.0,0.0,0.0,0.0,4.4312,4.4776,4.6077,4.6255,4.6255,4.6255,4.6931,4.7199,4.7102,0.0,0.0,0.0,0.0,0.0,0.0,0.0,0.0,0.0,0.0,0.0,0.0,0.0,0.0,0.0,0.0,0.0,0.0,5.3652,5.3437,5.3406,5.2914,5.2606,5.2452,0.0,0.0,0.0,0.0,0.0,0.0,0.0,0.0,0.0,0.0,0.0,0.0,0.0,0.0,0.0,0.0,0.0,0.0,0.0,0.0,0.0,0.0,0.0,0.0,0.0,0.0,0.0,0.0,0.0,0.0,0.0,0.0,4.6055,4.548,4.5872,4.6447,4.7022,4.71,4.7336,4.7885,4.7937,4.8198,4.8799,4.8826,4.9008,4.9401,4.9584,4.9662,4.9662,4.9819,5.0289,5.1126,5.1126,5.1779,5.3008,5.3008,5.3008,5.3008,5.3008,5.2798,5.2459,5.2851,5.3008,5.306,5.3661,5.3922,5.3739,5.1858,5.1126,5.1073,5.0681,5.0263,4.9897,0.0,0.0,0.0,0.0,0.0,0.0,0.0,0.0,0.0,0.0,4.3937,4.4219,4.5689,4.5779,4.5895,4.6156,4.6784,4.7376,4.8077,0.0,0.0,0.0,0.0,0.0,0.0,0.0,0.0,0.0,0.0,0.0,0.0,0.0,0.0,0.0,0.0,0.0,5.4699,5.4299,5.4145,5.4114,5.3714,5.3221,5.2698,5.2698,5.2483,5.2113,5.2024,5.1778,5.141,5.075,0.0,0.0,0.0,0.0,0.0,0.0,0.0,0.0,0.0,0.0,0.0,0.0,0.0,0.0,0.0,0.0,0.0,0.0,0.0,0.0,0.0,0.0,0.0,0.0,4.6473,4.6734,4.6395,4.663,4.7048,4.7623,4.7702,4.7911,4.8512,4.8564,4.8799,4.9374,4.9427,4.9557,4.9871,5.0342,5.0603,5.0603,5.11,5.1675,5.2354,5.2354,5.2851,5.387,5.387,5.387,5.387,5.387,5.3687,0.0,5.3975,5.421,5.4262,5.5099,5.5438,0.0,0.0,0.0,0.0,0.0,5.1988,5.1675,0.0,0.0,0.0,0.0,0.0,0.0,0.0,0.0,0.0,0.0,0.0,4.3531,4.5417,4.5656,4.5945,4.6524,4.6732,4.7683,0.0,0.0,0.0,0.0,0.0,0.0,0.0,0.0,0.0,0.0,0.0,0.0,0.0,0.0,0.0,0.0,0.0,5.4976,5.4945,5.4884,5.4853,5.4822,5.476,5.4022,5.2944,5.2852,5.2821,5.2821,5.2427,5.2518,5.2516,5.1723,0.0,0.0,0.0,0.0,0.0,0.0,0.0,0.0,0.0,0.0,0.0,0.0,0.0,0.0,0.0,0.0,0.0,0.0,0.0,0.0,0.0,0.0,0.0,0.0,4.7048,4.744,4.744,4.7492,4.7702,4.812,4.825,4.8486,4.9035,4.9139,4.9401,4.9949,5.0054,5.0106,5.0185,0.0,0.0,0.0,0.0,5.3426,5.3478,5.3478,5.3583,5.3792,5.3792,5.3818,5.387,5.387,5.3844,5.3818,5.4367,5.4602,5.468,5.5752,5.6196,5.6144,5.5543,5.5255,5.5125,5.4602,5.4367,5.4236,0.0,0.0,0.0,0.0,0.0,0.0,0.0,0.0,0.0,4.4125,4.3464,4.3273,4.4499,4.5044,4.5477,4.5591,4.6735,4.7811,0.0,0.0,0.0,0.0,0.0,0.0,0.0,0.0,0.0,0.0,0.0,0.0,0.0,0.0,0.0,0.0,5.6361,5.6361,5.633,5.5745,5.5499,5.5468,5.4945,5.4576,5.4268,5.3745,5.3529,5.3468,5.2823,5.2608,5.2608,5.2244,5.2123,5.2002,5.1516,0.0,0.0,0.0,0.0,0.0,0.0,0.0,0.0,0.0,0.0,0.0,0.0,0.0,0.0,0.0,0.0,0.0,0.0,0.0,0.0,4.7153,4.7649,4.8015,4.8015,4.8433,4.8616,4.8224,4.8616,4.8956,4.9087,4.9479,4.9976,5.0577,5.1021,5.1465,5.1962,5.2668,0.0,5.3034,5.3269,5.3609,5.4053,5.4053,5.4759,5.6144,0.0,0.0,5.6824,5.6824,5.6588,5.617,5.6745,5.6981,5.7033,5.7739,5.8,5.7921,5.6876,5.617,5.5726,5.5621,5.5308,5.4916,0.0,0.0,0.0,0.0,0.0,0.0,0.0,0.0,0.0,0.0,4.2722,4.2538,4.3905,4.4305,4.4719,4.5327,4.7384,0.0,0.0,0.0,0.0,0.0,0.0,0.0,0.0,0.0,0.0,0.0,0.0,0.0,0.0,0.0,0.0,5.6567,5.6761,5.6761,5.673,5.6392,5.6238,5.6207,5.5869,5.5745,5.5653,5.4607,5.4237,5.4176,5.3837,5.3498,5.3221,5.3009,5.2794,5.2427,5.2033,5.1849,5.1787,0.0,0.0,0.0,0.0,0.0,0.0,0.0,0.0,0.0,0.0,0.0,0.0,0.0,0.0,4.8489,0.0,0.0,4.7754,4.7754,4.825,4.8643,4.8643,4.9139,4.927,4.8695,4.9139,4.961,4.9897,5.042,5.0995,5.1596,5.2171,5.2642,5.2929,5.3478,5.3792,5.3792,5.4105,5.4497,5.5046,5.5046,5.5647,5.6798,5.6798,5.6954,5.7242,5.7242,5.7085,5.685,5.7425,5.766,5.7712,5.8287,5.8523,5.847,5.7895,5.7477,5.719,5.6876,5.6615,5.6353,0.0,0.0,0.0,0.0,0.0,0.0,0.0,0.0,0.0,0.0,0.0,4.1908,4.3562,4.3823,4.4366,0.0,0.0,0.0,0.0,0.0,0.0,0.0,0.0,0.0,0.0,0.0,0.0,0.0,0.0,0.0,0.0,0.0,5.6372,5.6372,5.6664,5.6761,5.6761,5.6761,5.6761,5.6761,5.6761,5.6761,5.6638,5.553,5.5037,5.4914,5.4791,5.4391,5.3929,5.3807,5.3469,5.3008,5.2612,5.2459,5.2274,5.1964,5.1777,0.0,0.0,0.0,0.0,0.0,0.0,0.0,0.0,0.0,5.0644,4.9514,4.9036,4.8803,4.8803,4.8524,4.8224,4.8329,4.8773,4.9113,4.9218,4.9714,4.9949,4.961,4.9871,5.0289,5.089,5.1439,5.2014,5.2616,5.3217,5.3556,5.3556,5.4079,5.4419,5.4524,5.4994,5.5517,5.6092,5.6092,5.6379,5.6981,5.6981,5.7033,5.7137,5.7137,5.7137,5.7163,5.7634,5.7817,5.7869,5.8314,5.8523,5.8523,5.8523,5.8523,5.8444,5.8,5.7817,5.7765,0.0,0.0,0.0,0.0,0.0,0.0,0.0,0.0,0.0,0.0,0.0,0.0,0.0,0.0,0.0,0.0,0.0,0.0,0.0,0.0,0.0,0.0,0.0,0.0,0.0,0.0,0.0,0.0,0.0,0.0,5.5979,5.6274,5.6372,5.6372,5.647,5.6567,5.6761,5.6761,5.6761,5.6761,5.6761,5.6761,5.673,5.6607,5.6146,5.5499,5.4945,5.4668,5.4513,5.4296,5.414,5.3985,5.3572,5.3476,5.3381,5.3061,0.0,5.2965,5.2965,5.2221,0.0,5.1583,5.0726,4.9637,0.0,0.0,4.8979,4.7774,4.7906,4.8326,4.8326,4.8262,4.8355,4.8904,4.9035,4.9244,4.974,5.0315,5.0838,5.1256,5.0943,5.0917,5.1465,5.204,5.2642,5.3243,5.3792,5.4105,5.4105,5.468,5.5229,5.57,5.5778,5.6118,5.6693,5.6719,5.6981,5.7556,5.7556,5.7843,5.8314,5.8314,5.8314,5.8314,5.8392,5.8418,5.8418,5.8497,5.8523,5.8523,5.8523,5.8523,5.8497,5.8444,5.8418,5.8418,0.0,0.0,0.0,0.0,0.0,0.0,0.0,0.0,0.0,0.0,0.0,0.0,0.0,0.0,0.0,0.0,0.0,0.0,0.0,0.0,0.0,0.0,0.0,0.0,0.0,0.0,0.0,0.0,5.5681,5.5681,5.5581,5.5979,5.6077,5.5979,5.6077,5.6274,5.6567,5.6567,5.6664,5.6761,5.6761,5.6761,5.6761,5.6761,5.6577,5.6269,5.5992,5.5653,0.0,0.0,5.4724,5.4229,5.3975,5.3688,5.3495,5.3271,5.3174,0.0,5.2358,0.0,0.0,0.0,5.0421,4.9721,4.928,4.9386,4.9239,4.8037,4.8015,4.8303,4.8643,4.8695,4.8904,0.0,4.9845,5.0159,5.0394,5.1204,5.1858,5.2093,5.2223,5.2406,5.2616,5.3164,5.3583,5.3844,5.4393,5.4863,5.5177,5.5438,5.583,5.6405,5.6432,5.6719,5.7294,5.7294,5.7582,5.8157,5.8157,5.8287,5.8523,5.8523,5.8523,5.8523,5.8523,5.8523,5.8523,5.8523,5.8523,5.8523,5.8523,5.8523,5.8523,5.8523,5.8523,5.8523,0.0,0.0,0.0,0.0,0.0,0.0,0.0,0.0,0.0,0.0,0.0,0.0,0.0,0.0,0.0,0.0,0.0,0.0,0.0,0.0,0.0,0.0,0.0,0.0,0.0,0.0,0.0,5.4743,5.528,5.5481,5.5179,5.5681,5.578,5.5581,5.578,5.6077,5.6372,5.6274,5.647,5.6761,5.6761,5.6761,5.6761,5.6761,5.6664,5.6664,5.6664,5.6326,0.0,0.0,5.5176,5.4587,5.4425,5.4164,5.3969,5.3841,5.3743,5.3516,5.2355,0.0,0.0,5.0596,4.9938,4.9475,4.9475,4.9475,4.9213,4.8615,4.8433,4.8616,4.9191,4.9296,4.9479,5.0054,5.0629,5.1073,5.123,5.2119,5.2798,5.2955,5.3347,5.3687,5.3844,5.4079,5.4262,5.4445,5.4994,5.5491,5.5883,5.6066,5.6432,5.7033,5.7033,5.732,5.7895,5.7895,5.8104,5.8523,5.8679,5.8758,5.8758,5.8915,5.8993,5.8993,5.8993,5.8993,5.8993,5.8993,5.8993,5.8993,5.8993,5.8993,5.8993,5.8993,5.8784,5.8523,0.0,0.0,0.0,0.0,0.0,0.0,0.0,0.0,0.0,0.0,0.0,0.0,0.0,0.0,0.0,0.0,0.0,0.0,0.0,0.0,0.0,0.0,0.0,0.0,0.0,5.2857,5.3413,5.3413,5.4917,5.5481,5.5179,5.5481,5.5581,5.5581,5.5581,5.588,5.6372,5.6077,5.6274,5.6761,5.6567,5.6567,5.6761,5.647,5.6372,5.6372,5.6372,0.0,0.0,0.0,5.5551,5.5521,5.522,5.5119,0.0,5.5119,5.5119,0.0,0.0,0.0,5.1428,5.0211,4.9045,4.8289,4.8289,4.8289,4.8472,4.893,4.9061,4.9218,4.9766,4.9871,5.0054,5.0655,5.1204,5.1779,5.2354,5.2981,5.3556,5.4079,5.4158,5.4419,0.0,5.4524,5.4445,5.502,5.5569,5.5883,5.5909,5.6458,5.7033,5.7608,5.7634,5.7895,5.847,5.8497,5.8497,5.8523,5.9072,5.9333,5.9359,5.9908,6.0169,6.0169,6.0169,6.0169,6.0169,6.0169,6.0169,6.0169,6.0169,6.0169,6.0169,6.0169,5.9464,5.8523,0.0,0.0,0.0,0.0,0.0,0.0,0.0,0.0,0.0,0.0,0.0,0.0,0.0,0.0,0.0,0.0,0.0,0.0,0.0,0.0,0.0,0.0,0.0,0.0,5.2857,5.3964,5.4641,5.4641,5.4479,5.4713,5.5179,5.4611,5.4815,5.5581,5.5381,5.5581,5.6176,5.6077,5.6176,5.6567,5.6664,5.6761,5.6761,5.647,5.6372,5.6372,0.0,0.0,0.0,0.0,0.0,0.0,5.5481,0.0,0.0,5.5179,0.0,0.0,0.0,0.0,5.1237,4.9274,4.8811,4.8773,4.8773,4.9061,4.9374,4.9584,4.961,4.9793,5.0368,5.0786,5.123,5.1831,5.2406,5.2877,5.306,5.3583,5.4001,5.4184,5.455,0.0,0.0,0.0,0.0,5.5621,5.617,5.6667,5.7059,5.7268,5.7634,5.8209,5.8601,5.8889,5.9072,5.9464,5.9647,5.9647,5.983,5.9934,5.9934,6.0143,6.0222,6.0222,6.0222,6.0222,6.0222,6.0222,6.0222,6.0222,6.0222,6.0222,6.0222,6.0222,5.9986,5.9647,0.0,0.0,0.0,0.0,0.0,0.0,0.0,0.0,0.0,0.0,0.0,0.0,0.0,0.0,0.0,0.0,0.0,0.0,0.0,0.0,0.0,0.0,0.0,5.1565,5.1565,5.2673,5.3308,5.3308,5.3518,5.3935,5.4509,5.3935,5.4377,5.5581,5.4947,5.525,5.6176,5.6077,5.6176,5.6372,5.6017,5.5888,5.5789,5.5059,5.5089,0.0,0.0,0.0,0.0,0.0,0.0,0.0,0.0,0.0,0.0,0.0,0.0,0.0,0.0,5.1183,5.0931,4.8954,4.893,4.9374,4.9374,4.9636,4.9949,5.0159,5.0211,5.0446,5.1256,5.1675,5.2119,5.272,5.3295,5.3687,5.3687,5.4158,5.4524,5.4524,5.5046,5.5517,0.0,0.0,0.0,5.6249,5.6771,5.7268,5.7634,5.7843,5.8235,5.881,5.9176,5.9464,5.9673,6.0039,6.0326,6.0535,6.0535,6.064,6.0849,6.0849,6.0849,6.0849,6.0849,6.0849,6.0875,6.1058,6.1163,6.1163,6.1372,6.145,6.145,6.145,6.145,6.1346,0.0,0.0,0.0,0.0,0.0,0.0,0.0,0.0,0.0,0.0,0.0,0.0,0.0,0.0,0.0,0.0,0.0,0.0,0.0,0.0,0.0,0.0,4.766,4.8262,4.8289,4.9388,5.0014,5.0014,5.2216,5.3308,5.3308,5.3308,5.4068,5.535,5.4245,5.4654,5.6145,5.5948,5.5948,5.6145,5.4726,5.4186,5.4083,5.2722,0.0,0.0,0.0,0.0,0.0,0.0,0.0,0.0,0.0,0.0,0.0,0.0,0.0,5.1512,5.0293,5.0417,5.0559,4.9469,4.9531,4.9949,4.9949,4.9949,5.0132,5.0707,5.0864,5.1204,0.0,0.0,5.2772,5.3347,5.3896,5.4262,5.4262,5.4759,5.5151,0.0,0.0,0.0,0.0,0.0,0.0,5.6928,0.0,5.7712,5.7739,5.8261,5.881,5.9385,5.9437,5.9725,6.0248,6.03,6.0588,6.1163,6.1163,6.145,6.2025,6.2025,6.2025,6.2051,6.2051,6.2051,6.2104,6.2652,6.2862,6.2914,6.3463,6.3672,6.3672,6.3672,6.3672,6.3358,0.0,0.0,0.0,0.0,0.0,0.0,0.0,0.0,0.0,0.0,0.0,0.0,0.0,0.0,0.0,0.0,0.0,0.0,0.0,0.0,0.0,0.0,0.0,0.0,0.0,0.0,0.0,0.0,0.0,5.1237,5.2108,5.1237,5.1537,5.2963,5.243,5.2644,5.3145,5.3145,5.3384,5.3802,0.0,5.3831,5.4171,5.3652,0.0,0.0,0.0,0.0,0.0,0.0,0.0,0.0,0.0,0.0,5.3203,0.0,0.0,5.2045,5.0835,5.1041,5.1152,5.0022,5.0132,5.0551,5.0551,5.0864,5.1204,5.1361,5.1753,5.2145,0.0,0.0,0.0,5.3975,5.4497,0.0,5.4863,5.536,0.0,5.57,0.0,5.6745,5.7163,5.7477,0.0,0.0,5.8209,5.847,5.8915,5.9072,5.9411,5.9986,6.0431,6.0744,6.0901,6.1319,6.1607,6.1764,6.1764,6.2051,6.26,6.26,6.2835,6.3254,6.3254,6.3254,6.3254,6.341,6.3463,6.3489,6.362,6.3672,6.3672,6.3672,6.3672,6.3593,0.0,0.0,0.0,0.0,0.0,0.0,0.0,0.0,0.0,0.0,0.0,0.0,0.0,0.0,0.0,0.0,0.0,0.0,0.0,0.0,0.0,0.0,0.0,0.0,0.0,0.0,0.0,0.0,0.0,0.0,0.0,5.0238,5.0685,5.2079,5.1428,5.1537,5.2266,5.2266,0.0,0.0,0.0,0.0,0.0,0.0,0.0,0.0,0.0,0.0,0.0,0.0,0.0,5.3442,5.2216,5.1863,5.1731,5.0819,0.0,5.0905,5.0479,5.0869,5.1083,5.0506,5.0707,5.1152,5.1152,5.1387,5.1596,5.1596,5.2067,0.0,5.2851,0.0,0.0,0.0,0.0,0.0,5.5099,5.5569,5.5909,0.0,5.6667,0.0,5.7634,5.8104,5.8549,0.0,5.8889,5.9019,5.9333,5.9594,6.0013,6.0588,6.0953,6.1241,6.1476,6.1816,6.1973,6.1973,6.2234,6.2522,6.2835,6.3071,6.3384,6.3672,0.0,6.3672,6.3698,6.3959,6.4064,6.409,6.4325,6.443,6.443,6.443,6.443,6.443,0.0,0.0,0.0,0.0,0.0,0.0,0.0,0.0,0.0,0.0,0.0,0.0,0.0,0.0,0.0,0.0,0.0,0.0,0.0,0.0,0.0,0.0,0.0,0.0,0.0,0.0,0.0,0.0,0.0,0.0,0.0,0.0,0.0,0.0,0.0,0.0,0.0,0.0,0.0,0.0,0.0,0.0,0.0,0.0,0.0,0.0,0.0,0.0,0.0,0.0,5.0573,5.1456,5.0238,4.9901,4.981,4.9232,4.9139,4.9322,4.9871,5.0446,5.089,5.089,5.1256,5.1596,5.1596,5.1596,5.1622,5.1701,0.0,5.2798,5.34,5.3949,5.4497,5.502,0.0,5.5125,5.5203,5.5674,5.6066,5.6118,5.7111,5.7791,5.7869,5.8784,5.9385,5.9464,5.9542,5.9594,5.9594,6.0065,6.0614,6.1215,6.1241,6.1476,6.1973,6.2051,6.2077,6.2077,6.2652,6.2992,6.3071,6.3567,6.3829,6.3907,0.0,0.0,6.3933,6.443,6.4639,6.4691,6.5188,6.5371,6.5371,6.5371,6.5371,6.5397,0.0,0.0,0.0,0.0,0.0,0.0,0.0,0.0,0.0,0.0,0.0,0.0,0.0,0.0,0.0,0.0,0.0,0.0,0.0,0.0,0.0,0.0,0.0,0.0,0.0,0.0,0.0,0.0,0.0,0.0,0.0,0.0,0.0,0.0,0.0,0.0,0.0,0.0,0.0,0.0,0.0,0.0,0.0,0.0,0.0,0.0,0.0,0.0,0.0,0.0,4.9928,5.1456,5.0238,4.9901,4.981,4.9232,4.9401,4.9871,5.0472,5.1047,5.1465,5.1465,5.1518,5.1596,5.1596,5.1596,0.0,0.0,5.2825,5.34,5.3949,5.455,5.4968,5.5072,0.0,0.0,0.0,0.0,5.6824,0.0,0.0,0.0,0.0,0.0,0.0,0.0,0.0,6.0823,6.0823,6.0901,6.1241,6.179,6.1816,6.1868,6.1973,6.2443,6.2679,6.2679,6.3254,6.3776,6.4247,6.4325,6.4639,6.5083,6.5083,0.0,6.5083,6.5188,6.524,6.524,6.5345,6.5371,6.5371,6.5371,6.5371,6.5449,0.0,0.0,0.0,0.0,0.0,0.0,0.0,0.0,0.0,0.0,0.0,0.0,0.0,0.0,0.0,0.0,0.0,0.0,0.0,0.0,0.0,0.0,0.0,0.0,0.0,0.0,0.0,0.0,0.0,0.0,0.0,0.0,0.0,0.0,0.0,0.0,0.0,0.0,0.0,0.0,0.0,0.0,0.0,0.0,0.0,0.0,0.0,0.0,0.0,0.0,4.9186,5.0154,4.9274,4.9045,4.9116,4.9482,4.9688,5.008,5.0969,5.1387,5.1596,5.1596,5.1596,5.1596,5.1596,0.0,0.0,0.0,5.3191,5.3896,5.4158,0.0,0.0,0.0,0.0,0.0,0.0,0.0,0.0,0.0,0.0,0.0,0.0,0.0,0.0,0.0,0.0,6.1424,6.1136,6.1398,6.1685,6.1973,6.1973,6.2104,6.2417,6.2679,6.2966,6.328,6.3855,6.4273,6.4534,6.4848,6.5136,6.5371,6.5371,0.0,6.5371,6.5371,6.558,6.5841,6.5841,6.6024,6.6259,6.6259,6.6259,6.6312,0.0,0.0,0.0,0.0,0.0,0.0,0.0,0.0,0.0,0.0,0.0,0.0,0.0,0.0,0.0,0.0,0.0,0.0,0.0,0.0,0.0,0.0,0.0,0.0,0.0,0.0,0.0,0.0,0.0,0.0,0.0,0.0,0.0,0.0,0.0,0.0,0.0,0.0,0.0,0.0,0.0,0.0,0.0,0.0,0.0,0.0,0.0,0.0,0.0,0.0,4.8868,4.8983,4.8521,4.8405,4.8641,4.9557,4.9897,5.0132,5.1282,5.1596,5.1596,5.1721,5.1721,5.1622,5.1878,5.2271,0.0,5.3054,5.3815,5.4498,5.463,0.0,5.5498,0.0,0.0,0.0,0.0,0.0,0.0,0.0,0.0,0.0,0.0,0.0,0.0,0.0,0.0,0.0,6.1319,6.1738,6.2025,6.2156,6.2156,6.2443,6.3018,6.3123,6.341,6.3855,6.443,6.4717,6.4743,6.5188,6.5371,6.5397,6.5528,0.0,0.0,6.5711,6.6024,6.6442,6.6442,6.6704,6.7096,6.7096,6.7096,6.7096,0.0,0.0,0.0,0.0,0.0,0.0,0.0,0.0,0.0,0.0,0.0,0.0,0.0,0.0,0.0,0.0,0.0,0.0,0.0,0.0,0.0,0.0,0.0,0.0,0.0,0.0,0.0,0.0,0.0,0.0,0.0,0.0,0.0,0.0,0.0,0.0,0.0,0.0,0.0,0.0,0.0,0.0,0.0,0.0,0.0,0.0,0.0,0.0,0.0,0.0,0.0,4.9125,4.901,4.8983,4.908,4.9677,0.0,0.0,5.1282,5.1596,5.1721,5.2342,5.2094,5.1878,5.3058,0.0,5.2926,5.4569,5.5017,5.5256,5.5814,5.6471,0.0,0.0,0.0,5.6107,0.0,0.0,0.0,0.0,0.0,0.0,0.0,0.0,0.0,0.0,0.0,0.0,6.1894,6.1947,6.2208,6.2731,6.2757,6.3018,6.3593,6.4116,6.4404,6.4456,6.5031,6.5318,6.5318,6.5345,6.5371,6.5423,6.5972,0.0,0.0,6.673,6.6965,6.7017,6.7017,6.7044,6.7096,6.7122,6.7122,6.7174,0.0,0.0,0.0,0.0,0.0,0.0,0.0,0.0,0.0,0.0,0.0,0.0,0.0,0.0,0.0,0.0,0.0,0.0,0.0,0.0,0.0,0.0,0.0,0.0,0.0,0.0,0.0,0.0,0.0,0.0,0.0,0.0,0.0,0.0,0.0,0.0,0.0,0.0,0.0,0.0,0.0,0.0,0.0,0.0,0.0,0.0,0.0,0.0,0.0,0.0,0.0,0.0,4.967,4.9897,0.0,0.0,5.0259,5.0254,5.1778,5.197,5.1721,5.2465,5.2342,5.2501,5.3858,0.0,5.3986,5.5552,5.5751,5.5838,5.6078,5.6628,5.6628,0.0,0.0,0.0,5.6778,0.0,0.0,0.0,0.0,0.0,0.0,0.0,0.0,0.0,0.0,0.0,6.2469,6.2496,6.26,6.2809,6.3149,6.362,6.4195,6.443,6.4691,6.5031,6.5266,6.558,6.592,6.592,6.6103,6.6416,6.6678,0.0,0.0,6.6991,6.7305,6.7619,6.7619,6.7854,6.8141,6.8168,6.8168,6.8168,0.0,0.0,0.0,0.0,0.0,0.0,0.0,0.0,0.0,0.0,0.0,0.0,0.0,0.0,0.0,0.0,0.0,0.0,0.0,0.0,0.0,0.0,0.0,0.0,0.0,0.0,0.0,0.0,0.0,0.0,0.0,0.0,0.0,0.0,0.0,0.0,0.0,0.0,0.0,0.0,0.0,0.0,0.0,0.0,0.0,0.0,0.0,0.0,0.0,0.0,0.0,0.0,0.0,0.0,0.0,0.0,5.0605,5.0469,5.2177,5.2086,5.1846,5.2956,5.2834,5.3048,0.0,0.0,5.4815,5.6487,5.659,5.6497,5.6628,5.7275,5.7275,0.0,0.0,5.6982,5.6804,5.7092,0.0,0.0,0.0,0.0,0.0,0.0,0.0,0.0,0.0,0.0,0.0,6.3149,6.3332,6.3332,6.3724,6.4195,6.477,6.4796,6.4979,6.5371,6.5554,6.5867,6.6286,6.6442,6.673,6.7096,0.0,0.0,0.0,6.754,6.7854,6.8246,6.8246,6.8481,6.8847,6.8847,6.8847,6.8847,0.0,0.0,0.0,0.0,0.0,0.0,0.0,0.0,0.0,0.0,0.0,0.0,0.0,0.0,0.0,0.0,0.0,0.0,0.0,0.0,0.0,0.0,0.0,0.0,0.0,0.0,0.0,0.0,0.0,0.0,0.0,0.0,0.0,0.0,0.0,0.0,0.0,0.0,0.0,0.0,0.0,0.0,0.0,0.0,0.0,0.0,0.0,0.0,0.0,0.0,0.0,0.0,0.0,0.0,0.0,0.0,5.0874,5.1109,5.2269,5.2135,5.2068,5.4019,5.3537,5.3278,0.0,0.0,5.5049,5.7669,5.7661,5.7275,5.8071,5.8704,5.8451,5.6367,5.7792,5.8522,5.6993,5.7985,0.0,0.0,0.0,0.0,0.0,0.0,0.0,0.0,0.0,0.0,0.0,6.3907,6.4508,6.4508,6.4534,6.4796,6.5371,6.5371,6.5371,6.5397,6.5998,6.6286,6.6312,6.6834,6.707,0.0,0.0,0.0,0.0,6.8586,6.8821,6.8847,6.8847,6.8847,6.8847,6.8847,6.8847,6.8847,0.0,0.0,0.0,0.0,0.0,0.0,0.0,0.0,0.0,0.0,0.0,0.0,0.0,0.0,0.0,0.0,0.0,0.0,0.0,0.0,0.0,0.0,0.0,0.0,0.0,0.0,0.0,0.0,0.0,0.0,0.0,0.0,0.0,0.0,0.0,0.0,0.0,0.0,0.0,0.0,0.0,0.0,0.0,0.0,0.0,0.0,0.0,0.0,0.0,0.0,0.0,0.0,0.0,0.0,0.0,0.0,0.0,0.0,5.2979,5.3103,5.32,5.4259,5.4139,5.4468,5.6586,0.0,5.6307,5.8453,5.8325,5.7944,5.8198,5.8704,5.8704,5.7017,5.8052,5.8914,5.8295,0.0,0.0,0.0,0.0,0.0,0.0,0.0,0.0,0.0,0.0,0.0,0.0,6.4426,6.4534,6.4534,6.49,6.5214,6.5371,6.5371,6.558,6.5998,6.6181,6.6704,6.7462,6.7619,0.0,0.0,0.0,0.0,0.0,6.8769,6.8847,6.8847,6.8847,6.8847,6.8847,6.8847,6.8847,6.8847,0.0,0.0,0.0,0.0,0.0,0.0,0.0,0.0,0.0,0.0,0.0,0.0,0.0,0.0,0.0,0.0,0.0,0.0,0.0,0.0,0.0,0.0,0.0,0.0,0.0,0.0,0.0,0.0,0.0,0.0,0.0,0.0,0.0,0.0,0.0,0.0,0.0,0.0,0.0,0.0,0.0,0.0,4.8753,0.0,0.0,0.0,0.0,0.0,0.0,0.0,0.0,0.0,0.0,0.0,0.0,0.0,0.0,0.0,0.0,5.3654,5.3833,5.4643,5.4734,0.0,0.0,0.0,0.0,0.0,5.8704,5.8325,5.8578,5.8955,5.8829,5.7661,5.876,5.9579,5.8589,0.0,0.0,0.0,0.0,0.0,0.0,0.0,0.0,0.0,0.0,0.0,0.0,6.5002,6.4848,6.4848,6.5188,6.5371,6.5371,6.5606,6.592,6.6286,6.673,6.7305,6.8011,6.822,0.0,0.0,0.0,0.0,0.0,6.8847,6.8847,6.8847,6.8847,6.8847,6.8847,6.8847,6.8847,6.8847,0.0,0.0,0.0,0.0,0.0,0.0,0.0,0.0,0.0,0.0,0.0,0.0,0.0,0.0,0.0,0.0,0.0,0.0,0.0,0.0,0.0,0.0,0.0,0.0,0.0,0.0,0.0,4.8172,4.8172,4.8172,4.8172,0.0,0.0,0.0,0.0,0.0,0.0,0.0,0.0,0.0,0.0,0.0,0.0,0.0,0.0,0.0,0.0,0.0,0.0,0.0,0.0,0.0,0.0,0.0,0.0,0.0,0.0,0.0,0.0,0.0,0.0,0.0,0.0,0.0,0.0,0.0,0.0,0.0,0.0,0.0,5.908,5.9205,5.8955,5.8325,5.989,6.0413,5.8268,0.0,0.0,0.0,0.0,0.0,0.0,0.0,0.0,0.0,0.0,0.0,0.0,6.5685,6.5529,6.5555,6.5581,6.5608,6.5608,6.6158,6.6472,6.6577,6.7651,6.8011,6.8063,6.8612,0.0,0.0,0.0,0.0,0.0,6.8847,6.8847,6.8847,6.8847,6.8847,6.8847,6.8847,6.8847,6.8847,0.0,0.0,0.0,0.0,0.0,0.0,0.0,0.0,0.0,0.0,0.0,0.0,0.0,0.0,0.0,0.0,0.0,0.0,0.0,0.0,0.0,0.0,0.0,0.0,0.0,0.0,0.0,4.8172,4.8172,4.8172,4.8172,4.8172,0.0,0.0,0.0,0.0,0.0,0.0,0.0,0.0,0.0,0.0,0.0,0.0,0.0,0.0,4.9213,4.9897,0.0,0.0,0.0,0.0,0.0,0.0,0.0,0.0,5.2321,0.0,0.0,0.0,0.0,0.0,0.0,0.0,0.0,0.0,0.0,0.0,0.0,0.0,0.0,0.0,5.908,5.8955,6.0146,6.0959,6.0413,0.0,0.0,0.0,0.0,0.0,0.0,0.0,0.0,0.0,0.0,0.0,0.0,6.6463,6.6628,6.7276,6.7238,6.7136,6.7136,6.7296,6.7668,6.8569,6.8834,6.8878,6.8638,6.8795,0.0,0.0,0.0,0.0,6.8847,6.8847,6.8847,6.8847,6.8847,6.8847,6.8847,6.8847,6.8847,6.8847,0.0,0.0,0.0,0.0,0.0,0.0,0.0,0.0,0.0,0.0,0.0,0.0,0.0,0.0,0.0,0.0,0.0,0.0,0.0,0.0,0.0,0.0,0.0,0.0,0.0,0.0,0.0,0.0,0.0,4.8172,0.0,0.0,0.0,0.0,0.0,0.0,0.0,0.0,0.0,0.0,0.0,0.0,0.0,0.0,0.0,0.0,4.9328,4.9983,0.0,5.1017,5.1348,5.1787,0.0,0.0,0.0,0.0,5.2433,0.0,0.0,0.0,0.0,0.0,0.0,0.0,0.0,0.0,0.0,0.0,0.0,0.0,0.0,0.0,0.0,5.9598,6.0469,6.1267,0.0,0.0,0.0,0.0,0.0,0.0,0.0,0.0,0.0,0.0,0.0,0.0,0.0,6.753,6.7538,6.8299,6.8131,6.8136,6.8136,6.8358,6.8653,6.9292,6.9069,6.9195,6.9485,6.9485,6.9651,0.0,0.0,0.0,6.998,6.9485,6.9485,6.9485,6.9485,6.9154,6.8847,6.8847,6.8847,6.8847,0.0,0.0,0.0,0.0,0.0,0.0,0.0,0.0,0.0,0.0,0.0,0.0,0.0,0.0,0.0,0.0,0.0,0.0,0.0,0.0,0.0,0.0,0.0,0.0,0.0,0.0,0.0,0.0,0.0,0.0,0.0,0.0,4.8172,0.0,0.0,0.0,0.0,0.0,0.0,0.0,4.8172,0.0,0.0,0.0,0.0,0.0,0.0,0.0,0.0,5.1128,5.1348,5.1787,5.1787,0.0,0.0,0.0,0.0,0.0,0.0,0.0,0.0,0.0,0.0,0.0,0.0,0.0,0.0,0.0,0.0,0.0,0.0,0.0,0.0,0.0,0.0,0.0,0.0,0.0,0.0,0.0,0.0,0.0,0.0,0.0,0.0,0.0,0.0,0.0,0.0,6.8777,6.8471,6.907,6.9179,6.9261,6.9525,6.9427,6.9481,6.9587,6.9248,6.9485,7.0118,7.0282,7.0771,0.0,0.0,0.0,7.1258,7.0608,7.0282,7.0118,7.0118,6.9624,6.9014,6.9014,6.9014,6.9014,0.0,0.0,0.0,0.0,0.0,0.0,0.0,0.0,0.0,0.0,0.0,0.0,0.0,0.0,0.0,0.0,0.0,0.0,0.0,0.0,0.0,0.0,0.0,0.0,0.0,0.0,0.0,0.0,0.0,0.0,4.8172,4.8172,4.8172,0.0,0.0,0.0,4.8172,4.8172,4.8172,4.8172,4.8172,0.0,0.0,0.0,0.0,0.0,0.0,0.0,0.0,5.0906,5.1348,5.1787,5.1787,0.0,0.0,0.0,0.0,0.0,5.3529,0.0,0.0,0.0,0.0,0.0,0.0,0.0,0.0,0.0,0.0,0.0,0.0,0.0,0.0,0.0,0.0,0.0,0.0,0.0,0.0,0.0,0.0,0.0,0.0,0.0,0.0,0.0,0.0,0.0,0.0,0.0,6.9536,7.0752,7.0643,7.1169,7.2497,7.1104,7.0635,7.115,7.1069,7.0608,7.0118,7.0934,7.1258,0.0,0.0,7.1258,7.1419,7.1258,7.0771,7.0118,7.0118,6.9954,6.9954,6.9954,6.9954,6.9789,0.0,0.0,0.0,0.0,0.0,0.0,0.0,0.0,0.0,0.0,0.0,0.0,0.0,0.0,0.0,0.0,0.0,0.0,0.0,0.0,0.0,0.0,0.0,0.0,0.0,0.0,0.0,0.0,0.0,4.8521,4.916,4.8521,4.8172,4.8172,0.0,4.8172,4.8172,4.8172,4.8172,4.8172,0.0,0.0,0.0,0.0,0.0,0.0,0.0,0.0,0.0,0.0,5.1348,5.1787,5.1787,0.0,0.0,0.0,0.0,0.0,5.3585,5.4372,0.0,0.0,0.0,0.0,0.0,0.0,0.0,0.0,0.0,0.0,0.0,0.0,0.0,0.0,0.0,0.0,0.0,0.0,0.0,0.0,0.0,0.0,0.0,0.0,0.0,0.0,0.0,0.0,0.0,0.0,7.064,7.1737,7.1714,7.2162,7.3086,7.2147,7.1788,7.2062,7.1581,7.1419,7.1581,7.1902,7.2381,7.2727,0.0,7.2381,7.2727,7.2222,7.1581,7.0771,7.1258,7.0934,7.0118,7.0118,7.0118,6.9954,0.0,0.0,0.0,0.0,0.0,0.0,0.0,0.0,0.0,0.0,0.0,0.0,0.0,0.0,0.0,0.0,0.0,0.0,0.0,0.0,0.0,0.0,0.0,0.0,0.0,0.0,5.0573,5.0685,4.9362,4.893,4.9475,4.8842,4.8521,0.0,0.0,4.8289,4.8172,4.8289,4.8289,4.8172,0.0,0.0,0.0,0.0,0.0,0.0,0.0,0.0,0.0,0.0,0.0,0.0,0.0,0.0,0.0,0.0,5.2798,5.3697,5.3838,5.4681,0.0,0.0,0.0,0.0,0.0,0.0,0.0,0.0,0.0,0.0,0.0,0.0,0.0,0.0,0.0,0.0,0.0,0.0,0.0,0.0,0.0,0.0,0.0,0.0,0.0,0.0,0.0,0.0,0.0,0.0,7.1681,7.2187,7.2327,7.2692,7.3311,7.3136,7.2858,7.2699,7.2062,7.2062,7.2699,7.2858,7.3359,7.4013,7.3359,7.3359,7.4013,7.3359,7.254,7.1741,7.2381,7.1875,7.0771,7.0445,7.0445,7.0282,0.0,0.0,0.0,0.0,0.0,0.0,0.0,0.0,0.0,0.0,0.0,0.0,0.0,0.0,0.0,0.0,0.0,0.0,0.0,0.0,0.0,0.0,0.0,0.0,0.0,5.2196,5.2295,5.3203,5.1099,4.9562,4.8289,4.9362,4.916,4.8172,0.0,4.8753,4.8172,4.8842,4.8753,4.8172,4.8172,0.0,0.0,0.0,0.0,0.0,0.0,0.0,0.0,0.0,0.0,0.0,0.0,0.0,0.0,0.0,5.3135,5.3782,5.4372,5.499,0.0,0.0,0.0,0.0,0.0,0.0,0.0,0.0,0.0,0.0,0.0,0.0,0.0,0.0,0.0,0.0,0.0,0.0,0.0,0.0,0.0,0.0,0.0,0.0,0.0,0.0,0.0,0.0,0.0,0.0,0.0,7.2187,7.2749,7.3339,7.3957,7.3829,7.3516,7.2699,7.2699,7.2699,7.2699,7.3516,7.4013,7.4013,7.3857,7.4013,7.4013,7.3857,7.3359,7.254,7.2699,7.2699,7.2381,7.1581,7.1285,7.1096,0.0,0.0,0.0,0.0,0.0,0.0,0.0,0.0,0.0,0.0,0.0,0.0,0.0,0.0,0.0,0.0,0.0,0.0,0.0,0.0,0.0,0.0,0.0,5.3174,5.3174,5.2952,5.3069,5.3413,5.2644,5.1209,4.9274,5.0489,0.0,0.0,0.0,4.9274,4.8753,4.8637,4.8405,4.8172,4.8172,4.8405,0.0,0.0,0.0,0.0,0.0,0.0,0.0,0.0,5.1787,0.0,0.0,0.0,0.0,0.0,5.3164,5.381,5.4428,5.5299,0.0,0.0,0.0,0.0,0.0,0.0,0.0,0.0,0.0,0.0,0.0,0.0,0.0,0.0,0.0,0.0,0.0,0.0,0.0,0.0,0.0,0.0,0.0,0.0,0.0,0.0,0.0,0.0,0.0,0.0,0.0,7.2187,7.2777,7.3395,7.4013,7.4013,7.3857,7.3516,7.3516,7.3516,7.3516,7.3857,7.4013,7.4013,7.4013,7.4013,7.4013,7.4013,7.3516,7.2699,7.2699,7.3016,7.3359,7.254,7.1902,7.1258,0.0,0.0,0.0,0.0,0.0,0.0,0.0,0.0,0.0,0.0,0.0,0.0,0.0,0.0,0.0,0.0,0.0,0.0,0.0,0.0,0.0,0.0,0.0,5.3174,5.3174,5.3727,5.3964,5.3964,5.3964,5.2857,5.0685,0.0,0.0,0.0,0.0,0.0,4.9843,4.9274,4.9072,4.8957,4.8637,4.8753,0.0,0.0,0.0,0.0,0.0,0.0,0.0,0.0,0.0,0.0,0.0,0.0,0.0,0.0,5.3332,5.3838,5.4653,5.5636,0.0,0.0,0.0,0.0,0.0,0.0,0.0,0.0,0.0,0.0,0.0,0.0,0.0,0.0,0.0,0.0,0.0,0.0,0.0,0.0,0.0,0.0,0.0,0.0,0.0,0.0,0.0,0.0,0.0,0.0,0.0,0.0,7.3086,7.3592,7.4013,7.4013,7.4013,7.4013,7.4013,7.4013,7.4013,7.4013,7.4013,7.4013,7.4013,7.4013,7.4013,7.4013,7.3673,7.3044,7.3044,7.3516,7.3857,7.3016,7.2222,7.1285,0.0,0.0,0.0,0.0,0.0,0.0,0.0,0.0,0.0,0.0,0.0,0.0,0.0,0.0,0.0,0.0,0.0,0.0,0.0,0.0,0.0,0.0,0.0,5.3174,5.3204,5.4521,5.5179,5.5179,5.5179,5.4171,5.2079,5.2963,0.0,0.0,0.0,0.0,0.0,0.0,5.0796,5.0685,4.9616,4.9098,4.9125,0.0,0.0,0.0,0.0,0.0,0.0,0.0,0.0,0.0,0.0,0.0,0.0,5.3304,5.3669,5.395,5.5187,0.0,0.0,0.0,0.0,0.0,0.0,0.0,0.0,0.0,0.0,0.0,0.0,0.0,0.0,0.0,0.0,0.0,0.0,0.0,0.0,0.0,0.0,0.0,0.0,0.0,0.0,0.0,0.0,0.0,0.0,0.0,0.0,0.0,7.3704,7.4013,7.4013,7.4013,7.4013,7.4013,7.4013,7.4013,7.4013,7.4013,7.4013,7.4013,7.4013,7.4013,7.4013,7.4013,7.4013,7.4013,7.4013,7.4013,7.3857,7.3016,7.2222,7.1258,0.0,0.0,0.0,0.0,0.0,0.0,0.0,0.0,0.0,0.0,0.0,0.0,0.0,0.0,0.0,0.0,0.0,0.0,0.0,0.0,0.0,0.0,0.0,0.0,0.0,0.0,5.5179,5.5179,5.5179,5.4406,0.0,0.0,0.0,5.2459,0.0,0.0,0.0,0.0,5.0685,5.1347,5.0154,5.0181,5.0989,0.0,0.0,0.0,0.0,0.0,0.0,0.0,0.0,0.0,0.0,0.0,0.0,5.439,5.4934,5.5564,5.6737,0.0,0.0,0.0,0.0,0.0,0.0,0.0,0.0,0.0,0.0,0.0,0.0,0.0,0.0,0.0,0.0,0.0,0.0,0.0,0.0,0.0,0.0,0.0,0.0,0.0,0.0,0.0,0.0,0.0,0.0,0.0,0.0,0.0,7.3704,7.4013,7.4013,7.4013,7.4013,7.4013,7.4013,7.4013,7.4013,7.4013,7.4013,7.4013,7.4013,7.4013,7.4013,7.4013,7.4013,7.4013,7.4013,7.4013,7.4013,7.3701,7.2727,7.1419,0.0,0.0,0.0,0.0,0.0,0.0,0.0,0.0,0.0,0.0,0.0,0.0,0.0,0.0,0.0,0.0,0.0,0.0,0.0,0.0,0.0,0.0,0.0,0.0,0.0,5.497,5.528,0.0,0.0,0.0,0.0,0.0,0.0,5.4142,0.0,5.4274,0.0,0.0,5.1972,5.2751,5.1646,5.1674,5.238,0.0,0.0,0.0,0.0,0.0,0.0,0.0,0.0,0.0,0.0,0.0,0.0,5.4858,5.5411,5.6047,0.0,0.0,0.0,0.0,0.0,0.0,0.0,0.0,0.0,0.0,0.0,0.0,0.0,0.0,0.0,0.0,0.0,0.0,0.0,0.0,0.0,0.0,0.0,0.0,0.0,0.0,0.0,0.0,0.0,0.0,0.0,0.0,0.0,0.0,7.3816,7.4013,7.4013,7.4013,7.4013,7.4013,7.4013,7.4013,7.4013,7.4013,7.4013,7.4013,7.4013,7.4013,7.4013,7.4013,7.4013,7.4013,7.4013,7.4013,7.4013,7.3673,7.2568,7.1258,0.0,0.0,0.0,0.0,0.0,0.0,0.0,0.0,0.0,0.0,0.0,0.0,0.0,0.0,0.0,0.0,0.0,0.0,0.0,0.0,0.0,0.0,0.0,0.0,0.0,0.0,0.0,0.0,0.0,0.0,0.0,0.0,5.5681,5.6372,0.0,5.5581,5.5481,5.4347,5.4142,5.4684,5.3489,5.3279,5.3518,5.3518,0.0,0.0,0.0,0.0,0.0,0.0,0.0,0.0,0.0,0.0,5.5453,5.5213,5.5632,0.0,0.0,0.0,0.0,0.0,0.0,0.0,0.0,0.0,0.0,0.0,0.0,0.0,0.0,0.0,0.0,0.0,0.0,0.0,0.0,0.0,0.0,0.0,0.0,0.0,0.0,0.0,0.0,0.0,0.0,0.0,0.0,0.0,0.0,0.0,7.4013,7.4013,7.4013,7.4013,7.4013,0.0,7.4013,7.4013,7.4013,7.4013,7.4013,7.4013,7.4013,7.4013,7.4013,7.4013,7.4013,7.4013,7.4013,7.4013,7.3857,7.3044,7.2222,7.1258,0.0,0.0,0.0,0.0,0.0,0.0,0.0,0.0,0.0,0.0,0.0,0.0,0.0,0.0,0.0,0.0,0.0,0.0,0.0,0.0,0.0,0.0,0.0,0.0,0.0,0.0,0.0,0.0,0.0,0.0,0.0,0.0,0.0,5.6077,0.0,5.578,5.5481,5.4347,5.445,5.525,5.4142,5.3935,5.4479,5.4684,5.4713,0.0,0.0,0.0,0.0,0.0,0.0,0.0,5.4509,5.5515,5.6989,5.7004,5.7766,0.0,0.0,0.0,0.0,0.0,0.0,0.0,0.0,0.0,0.0,0.0,0.0,0.0,0.0,0.0,0.0,0.0,0.0,0.0,0.0,0.0,0.0,0.0,0.0,0.0,0.0,0.0,0.0,0.0,0.0,0.0,0.0,0.0,0.0,7.3985,7.4013,7.4013,7.4013,7.4013,7.4013,0.0,7.4013,7.4013,7.4013,7.4013,7.4013,7.4013,7.4013,7.4013,7.4013,7.4013,7.4013,7.4013,7.4013,7.4013,7.4013,7.3857,7.2727,7.1419,0.0,0.0,0.0,0.0,0.0,0.0,0.0,0.0,0.0,0.0,0.0,0.0,0.0,0.0,0.0,0.0,0.0,0.0,0.0,0.0,0.0,0.0,0.0,0.0,0.0,5.588,5.5979,0.0,0.0,0.0,0.0,0.0,0.0,5.6176,0.0,5.6077,5.5979,5.529,5.532,5.578,5.522,5.519,5.5581,5.6183,5.6222,5.5979,5.6412,0.0,0.0,0.0,0.0,0.0,0.0,0.0,5.851,5.8066,5.8686,5.9555,0.0,0.0,0.0,0.0,0.0,0.0,0.0,0.0,0.0,0.0,0.0,0.0,0.0,0.0,0.0,0.0,0.0,0.0,0.0,0.0,0.0,0.0,0.0,0.0,0.0,0.0,0.0,0.0,0.0,0.0,0.0,7.3114,7.3395,7.3985,7.4013,7.4013,7.4013,7.4013,7.4013,7.4013,7.4013,7.4013,7.4013,7.4013,7.4013,7.4013,7.4013,7.4013,7.4013,7.4013,7.4013,7.4013,7.4013,7.4013,7.4013,7.3516,7.2885,7.1902,0.0,0.0,0.0,0.0,0.0,0.0,0.0,0.0,0.0,0.0,0.0,0.0,0.0,0.0,0.0,0.0,0.0,0.0,0.0,0.0,0.0,0.0,0.0,0.0,5.5979,5.6077,5.6274,0.0,0.0,0.0,0.0,0.0,0.0,5.647,0.0,5.6372,5.6372,5.6494,5.6427,5.626,5.6579,5.6708,5.6868,5.7648,5.7592,5.7192,5.7746,5.7592,5.7192,5.7746,0.0,0.0,0.0,0.0,5.9676,5.8923,5.9259,5.9921,0.0,0.0,0.0,0.0,0.0,0.0,0.0,0.0,0.0,0.0,0.0,0.0,0.0,0.0,0.0,0.0,0.0,0.0,0.0,0.0,0.0,0.0,0.0,0.0,0.0,0.0,0.0,0.0,0.0,0.0,7.3114,7.3198,7.3479,7.3985,7.4013,7.4013,7.4013,7.4013,7.4013,7.4013,7.4013,7.4013,7.4013,7.4013,7.4013,7.4013,7.4013,7.4013,7.4013,7.4013,7.4013,7.4013,7.4013,7.4013,7.3857,7.3201,7.2858,7.2568,0.0,0.0,0.0,0.0,0.0,0.0,0.0,0.0,0.0,0.0,0.0,0.0,0.0,0.0,0.0,0.0,0.0,0.0,0.0,0.0,0.0,0.0,0.0,5.6274,5.5979,5.647,5.6567,0.0,0.0,0.0,0.0,0.0,0.0,5.6761,0.0,0.0,5.6403,5.6984,5.7228,5.7289,5.787,5.8115,5.8215,5.8508,5.8477,5.8215,5.8508,5.8577,5.8516,5.8608,5.8639,0.0,0.0,0.0,0.0,0.0,0.0,0.0,0.0,0.0,0.0,0.0,0.0,0.0,0.0,0.0,0.0,0.0,0.0,0.0,0.0,0.0,0.0,0.0,0.0,0.0,0.0,0.0,0.0,0.0,0.0,0.0,0.0,0.0,0.0,0.0,0.0,0.0,7.3142,7.362,7.3929,7.4013,7.4013,7.4013,7.4013,7.4013,7.4013,7.4013,7.4013,7.4013,7.4013,7.4013,7.4013,7.4013,7.4013,7.4013,7.4013,7.4013,7.4013,7.4013,7.4013,7.4013,7.4013,7.3857,7.3359,7.2782,0.0,0.0,0.0,0.0,0.0,0.0,0.0,0.0,0.0,0.0,0.0,0.0,0.0,0.0,0.0,0.0,0.0,0.0,0.0,0.0,0.0,0.0,0.0,5.6372,5.647,5.6664,0.0,0.0,0.0,0.0,0.0,5.6664,5.6567,0.0,0.0,0.0,0.0,0.0,0.0,5.7962,5.8469,5.8561,5.8522,5.9092,5.9,5.8723,5.9193,5.9101,5.8854,5.9224,5.9347,5.9408,5.9778,0.0,0.0,0.0,0.0,0.0,0.0,0.0,0.0,0.0,0.0,0.0,0.0,0.0,0.0,0.0,0.0,0.0,0.0,0.0,0.0,0.0,0.0,0.0,0.0,0.0,0.0,0.0,0.0,0.0,0.0,0.0,0.0,0.0,0.0,7.376,7.3142,7.3676,7.4013,7.4013,7.4013,7.4013,7.4013,7.4013,7.4013,7.4013,7.4013,7.4013,7.4013,7.4013,7.4013,7.4013,7.4013,7.4013,7.4013,7.4013,7.4013,7.4013,7.4013,7.4013,7.4013,7.4013,7.3924,7.3916,0.0,0.0,0.0,0.0,0.0,0.0,0.0,0.0,0.0,0.0,0.0,0.0,0.0,0.0,0.0,0.0,0.0,0.0,0.0,0.0,0.0,0.0,0.0,0.0,5.6761,5.6761,0.0,0.0,0.0,0.0,5.6761,5.6946,5.691,0.0,5.7433,0.0,0.0,0.0,0.0,0.0,5.9123,5.9184,5.9042,5.9768,5.9716,5.9347,5.987,5.9716,5.9378,5.987,6.0055,6.0116,6.064,0.0,0.0,0.0,0.0,0.0,0.0,0.0,0.0,0.0,0.0,0.0,0.0,0.0,0.0,0.0,0.0,0.0,0.0,0.0,0.0,0.0,0.0,0.0,0.0,0.0,0.0,0.0,0.0,0.0,0.0,0.0,0.0,0.0,0.0,7.3972,7.3801,7.3915,7.4013,7.4013,7.4013,7.4013,7.4013,7.4013,7.4013,7.4013,7.4013,7.4013,7.4013,7.4013,7.4013,7.4013,7.4013,7.4013,7.4013,7.4013,7.4013,7.4013,7.4013,7.4013,7.4013,7.4013,7.4407,7.4969,0.0,0.0,0.0,0.0,0.0,0.0,0.0,0.0,0.0,0.0,0.0,0.0,0.0,0.0,0.0,0.0,0.0,0.0,0.0,0.0,0.0,0.0,0.0,0.0,0.0,0.0,0.0,0.0,0.0,0.0,5.6761,5.7408,5.7715,5.7715,5.7746,5.8116,5.8762,0.0,0.0,0.0,0.0,6.0701,6.0701,6.0732,6.0732,6.0701,0.0,0.0,6.0701,6.0732,6.0763,6.0763,0.0,0.0,0.0,0.0,0.0,0.0,0.0,0.0,0.0,0.0,0.0,0.0,0.0,0.0,0.0,0.0,0.0,0.0,0.0,0.0,0.0,0.0,0.0,0.0,0.0,0.0,0.0,0.0,0.0,0.0,0.0,0.0,0.0,0.0,0.0,7.4451,7.5592,7.4577,7.4013,7.4013,7.4013,7.4013,7.4013,7.4013,7.4013,7.4013,7.4013,7.4013,7.4013,7.4013,7.4013,7.4013,7.4013,7.4013,7.4013,7.4013,7.4013,7.4013,7.4013,7.4013,7.4013,7.4013,7.4407,7.5025,0.0,0.0,0.0,0.0,0.0,0.0,0.0,0.0,0.0,0.0,0.0,0.0,0.0,0.0,0.0,0.0,0.0,0.0,0.0,0.0,0.0,0.0,0.0,0.0,0.0,0.0,0.0,0.0,0.0,5.7408,5.7438,5.8116,5.8639,5.907,5.907,5.9193,5.947,6.0147,0.0,0.0,0.0,0.0,0.0,0.0,0.0,0.0,0.0,0.0,0.0,0.0,0.0,0.0,0.0,0.0,0.0,6.2979,6.3441,6.3995,0.0,0.0,0.0,0.0,0.0,0.0,0.0,0.0,0.0,0.0,0.0,0.0,0.0,0.0,0.0,0.0,0.0,0.0,0.0,0.0,0.0,0.0,0.0,0.0,0.0,0.0,0.0,0.0,0.0,0.0,7.6943,7.6496,7.5924,7.5192,7.5192,7.476,7.4013,7.4013,7.4013,7.4013,7.4013,7.4013,7.4013,7.4013,7.4013,7.4013,7.4013,7.4013,7.4013,7.4013,7.4013,7.4013,7.4013,7.4013,7.4069,7.4463,7.5025,7.5643,0.0,0.0,0.0,0.0,0.0,0.0,0.0,0.0,0.0,0.0,0.0,0.0,0.0,0.0,0.0,0.0,0.0,0.0,0.0,0.0,0.0,0.0,0.0,0.0,0.0,0.0,0.0,0.0,0.0,0.0,0.0,0.0,5.9347,5.9809,6.0024,0.0,0.0,0.0,0.0,6.0794,0.0,0.0,6.1132,0.0,0.0,0.0,0.0,0.0,0.0,0.0,0.0,0.0,0.0,0.0,0.0,6.3995,6.418,6.4303,6.4764,0.0,0.0,0.0,0.0,0.0,0.0,0.0,0.0,0.0,0.0,0.0,0.0,0.0,0.0,0.0,0.0,0.0,0.0,0.0,0.0,0.0,0.0,0.0,0.0,0.0,0.0,0.0,0.0,0.0,7.812,7.7681,7.6943,7.5772,7.5772,7.5192,7.4013,7.4013,7.4013,7.4013,7.4013,7.4013,7.4013,7.4013,7.4013,7.4013,7.4013,7.4013,7.4013,7.4013,7.4013,7.4013,7.4013,7.4013,7.4097,7.4716,7.5334,7.598,0.0,0.0,0.0,0.0,0.0,0.0,0.0,0.0,0.0,0.0,0.0,0.0,0.0,0.0,0.0,0.0,0.0,0.0,0.0,0.0,0.0,0.0,0.0,0.0,0.0,0.0,0.0,0.0,0.0,0.0,0.0,0.0,5.9809,0.0,6.0517,6.0794,6.0794,0.0,6.0824,6.0824,0.0,6.1225,6.184,0.0,0.0,0.0,6.2856,6.2856,0.0,0.0,0.0,0.0,0.0,0.0,0.0,6.4703,6.4888,6.4888,0.0,0.0,0.0,0.0,0.0,0.0,0.0,0.0,0.0,0.0,0.0,0.0,0.0,0.0,0.0,0.0,0.0,0.0,0.0,0.0,0.0,0.0,0.0,0.0,0.0,0.0,0.0,0.0,0.0,7.812,7.9302,7.8265,7.7092,7.5924,7.5772,7.5192,7.4013,7.4013,7.4013,7.4013,7.4013,7.4013,7.4013,7.4013,7.4013,7.4013,7.4013,7.4013,7.4013,7.4013,7.4013,7.4013,7.4013,7.4041,7.4126,7.4744,7.5362,7.6008,0.0,0.0,0.0,0.0,0.0,0.0,0.0,0.0,0.0,0.0,0.0,0.0,0.0,0.0,0.0,0.0,0.0,0.0,0.0,0.0,0.0,0.0,0.0,0.0,0.0,0.0,0.0,0.0,0.0,0.0,0.0,0.0,0.0,0.0,6.0701,6.0794,6.0794,6.0794,0.0,0.0,6.1532,6.1933,0.0,0.0,0.0,0.0,0.0,6.3872,0.0,0.0,6.4334,6.4334,0.0,0.0,0.0,6.4826,6.4888,6.4888,6.4888,0.0,0.0,0.0,0.0,0.0,0.0,0.0,0.0,0.0,0.0,0.0,0.0,0.0,0.0,0.0,0.0,0.0,0.0,0.0,0.0,0.0,0.0,0.0,0.0,0.0,0.0,0.0,8.0322,8.0182,8.0632,7.9445,7.8729,7.8265,7.6675,7.5621,7.5345,7.4451,7.4013,7.4013,7.4013,7.4013,7.4013,7.4013,7.4013,7.4013,7.4013,7.4013,7.4013,7.4013,7.4013,7.4013,7.4013,7.4294,7.4744,7.539,7.6036,7.6654,0.0,0.0,0.0,0.0,0.0,0.0,0.0,0.0,0.0,0.0,0.0,0.0,0.0,0.0,0.0,0.0,0.0,0.0,0.0,0.0,0.0,0.0,0.0,0.0,0.0,0.0,0.0,0.0,0.0,0.0,0.0,0.0,0.0,0.0,0.0,0.0,0.0,0.0,0.0,0.0,6.2117,0.0,0.0,6.3225,6.3656,0.0,0.0,0.0,6.4888,6.4888,6.4888,0.0,0.0,0.0,0.0,0.0,0.0,0.0,0.0,0.0,0.0,0.0,0.0,0.0,0.0,6.7658,0.0,0.0,0.0,0.0,0.0,0.0,0.0,0.0,0.0,0.0,0.0,0.0,0.0,0.0,0.0,0.0,0.0,0.0,0.0,8.1048,8.1079,8.1079,8.1079,7.99,7.9302,7.9302,7.7534,7.6346,7.5772,7.5039,7.4451,7.4013,7.4013,7.4013,7.4013,7.4013,7.4013,7.4013,7.4013,7.4013,7.4013,7.4013,7.4013,7.4013,7.4013,7.4407,7.5025,7.5671,7.6289,7.6907,0.0,0.0,0.0,0.0,0.0,0.0,0.0,0.0,0.0,0.0,0.0,0.0,0.0,0.0,0.0,0.0,0.0,0.0,0.0,0.0,0.0,0.0,0.0,0.0,0.0,0.0,0.0,0.0,0.0,0.0,0.0,0.0,0.0,0.0,0.0,0.0,0.0,0.0,0.0,6.2086,6.2702,6.3349,0.0,0.0,6.4334,0.0,6.4888,6.4888,6.4888,6.4888,6.4888,0.0,0.0,0.0,0.0,0.0,6.4888,0.0,0.0,0.0,0.0,0.0,0.0,0.0,6.7012,6.7997,6.9259,0.0,0.0,0.0,0.0,0.0,0.0,0.0,0.0,0.0,0.0,0.0,0.0,0.0,0.0,0.0,0.0,7.9663,8.034,8.0925,8.1017,8.1079,8.1079,8.0041,7.9475,7.9302,7.812,7.7092,7.6075,7.5772,7.5192,7.4169,7.4013,7.4013,7.4013,7.4013,7.4013,7.4013,7.4013,7.4013,7.4013,7.4013,7.4013,7.4013,7.4013,7.4435,7.5109,7.5699,7.6317,7.6992,0.0,0.0,0.0,0.0,0.0,0.0,0.0,0.0,0.0,0.0,0.0,0.0,0.0,0.0,0.0,0.0,0.0,0.0,0.0,0.0,0.0,0.0,0.0,0.0,0.0,0.0,0.0,0.0,0.0,0.0,0.0,0.0,0.0,0.0,0.0,0.0,0.0,0.0,0.0,6.3441,6.3564,0.0,6.4703,6.4703,6.4764,6.4888,6.4888,6.4888,6.4888,0.0,6.4888,6.4888,0.0,0.0,0.0,0.0,0.0,0.0,0.0,0.0,0.0,0.0,0.0,0.0,6.7596,6.8335,6.9259,0.0,0.0,0.0,0.0,0.0,0.0,0.0,0.0,0.0,0.0,0.0,0.0,0.0,0.0,0.0,0.0,7.9386,8.0155,8.0278,8.0771,8.1079,8.1079,8.091,8.0322,7.9302,7.812,7.7358,7.724,7.5316,7.476,7.5469,7.4451,7.4013,7.4013,7.4013,7.4013,7.4013,7.4013,7.4013,7.4013,7.4013,7.4013,7.4013,7.4013,7.4716,7.5727,7.5868,7.6598,7.7526,0.0,0.0,0.0,0.0,0.0,0.0,0.0,0.0,0.0,0.0,0.0,0.0,0.0,0.0,0.0,0.0,0.0,0.0,0.0,0.0,0.0,0.0,0.0,0.0,0.0,0.0,0.0,0.0,0.0,0.0,0.0,0.0,0.0,0.0,0.0,0.0,0.0,0.0,6.4364,6.4364,6.4364,0.0,6.4888,6.4888,6.4888,6.4888,6.4888,6.5103,6.5442,6.578,6.5903,0.0,0.0,6.5903,6.5903,0.0,6.5903,6.5903,0.0,0.0,0.0,6.6334,0.0,0.0,0.0,6.8427,6.9259,7.0613,0.0,0.0,0.0,0.0,0.0,0.0,0.0,0.0,0.0,0.0,0.0,0.0,0.0,0.0,0.0,7.8678,7.9355,8.0063,8.0709,8.1079,8.1079,8.0492,8.0182,8.0182,7.841,7.7505,7.7505,7.6346,7.5469,7.4885,7.4885,7.4606,7.4013,7.4013,7.4013,7.4013,7.4013,7.4013,7.4013,7.4013,7.4013,7.4041,7.435,7.5053,7.5952,7.6261,7.6907,7.7694,0.0,0.0,0.0,0.0,0.0,0.0,0.0,0.0,0.0,0.0,0.0,0.0,0.0,0.0,0.0,0.0,0.0,0.0,0.0,0.0,0.0,0.0,0.0,6.1194,0.0,0.0,0.0,0.0,0.0,0.0,0.0,0.0,0.0,0.0,0.0,0.0,0.0,0.0,0.0,6.4918,0.0,6.5011,6.4918,6.5042,6.5103,6.5103,6.5226,6.5626,6.618,6.6735,0.0,6.6919,6.6919,6.6919,0.0,0.0,0.0,0.0,0.0,0.0,0.0,0.0,0.0,6.7997,0.0,0.0,0.0,7.0828,0.0,0.0,0.0,0.0,0.0,0.0,0.0,0.0,0.0,0.0,0.0,0.0,0.0,0.0,0.0,7.7877,7.8616,8.0001,8.0586,8.0925,8.1079,8.0182,8.0041,8.0771,7.8843,7.7681,7.7505,7.721,7.6346,7.476,7.5192,7.5039,7.4296,7.4169,7.4013,7.4013,7.4013,7.4013,7.4013,7.4013,7.4013,7.4069,7.4688,7.5334,7.598,7.6598,7.7188,7.7694,0.0,0.0,0.0,0.0,0.0,0.0,0.0,0.0,0.0,0.0,0.0,0.0,0.0,0.0,0.0,0.0,0.0,0.0,6.2761,0.0,0.0,0.0,0.0,0.0,6.2579,0.0,0.0,0.0,0.0,0.0,0.0,0.0,0.0,0.0,6.4457,0.0,0.0,0.0,6.4888,0.0,6.5565,6.5442,0.0,6.5565,6.578,6.5873,6.6457,6.6735,6.6827,0.0,6.6919,6.6919,0.0,6.6919,6.6919,0.0,0.0,0.0,0.0,0.0,0.0,0.0,6.7873,0.0,0.0,0.0,7.0182,7.1567,0.0,0.0,0.0,0.0,0.0,0.0,0.0,0.0,0.0,0.0,0.0,0.0,0.0,0.0,0.0,0.0,7.8616,8.0001,8.0186,8.0463,8.1048,8.091,8.0492,7.9475,7.9302,7.8555,7.7505,7.6496,7.6346,7.7092,7.5192,7.476,7.5621,7.4451,7.4013,7.4013,7.4013,7.4013,7.4013,7.4013,7.4013,7.4069,7.4688,7.5334,7.598,7.6598,7.7188,7.7694,0.0,0.0,0.0,0.0,0.0,0.0,0.0,0.0,0.0,0.0,0.0,0.0,0.0,0.0,0.0,0.0,0.0,0.0,0.0,0.0,0.0,0.0,0.0,0.0,0.0,0.0,0.0,0.0,6.3195,0.0,0.0,0.0,0.0,0.0,6.4764,0.0,6.4888,0.0,0.0,0.0,0.0,0.0,0.0,6.6242,6.6488,6.6581,6.7258,6.775,6.8181,0.0,6.9505,0.0,0.0,0.0,0.0,0.0,0.0,0.0,0.0,0.0,0.0,0.0,0.0,0.0,7.0367,0.0,7.0767,0.0,0.0,0.0,0.0,0.0,0.0,0.0,0.0,0.0,0.0,0.0,0.0,0.0,0.0,0.0,0.0,0.0,0.0,0.0,0.0,8.0217,8.0494,8.0863,8.091,8.0322,7.9617,7.9016,7.8555,7.7387,7.7092,7.7505,7.5772,7.5345,7.5772,7.4606,7.4296,7.5039,7.4324,7.4451,7.5039,7.4324,7.4238,7.4603,7.525,7.5671,7.6008,7.6964,7.7469,7.7694,0.0,0.0,0.0,0.0,0.0,0.0,0.0,0.0,0.0,0.0,0.0,0.0,6.7571,6.7328,0.0,0.0,0.0,6.4753,0.0,0.0,6.3778,0.0,0.0,0.0,0.0,0.0,0.0,0.0,0.0,0.0,0.0,0.0,0.0,0.0,0.0,6.5011,6.5165,0.0,0.0,6.5503,6.618,6.6796,6.7319,6.7627,6.7843,6.8089,6.8797,6.9351,6.9843,7.0644,7.1259,0.0,7.169,0.0,0.0,0.0,0.0,0.0,7.089,0.0,0.0,0.0,0.0,0.0,0.0,0.0,0.0,0.0,0.0,0.0,0.0,0.0,0.0,0.0,0.0,0.0,0.0,0.0,0.0,0.0,0.0,0.0,0.0,0.0,0.0,7.8031,7.9139,7.9909,8.0094,8.074,8.1079,8.1079,8.0182,7.9617,7.9302,7.841,7.7974,7.7974,7.6795,7.6196,7.6196,7.5039,7.476,7.5192,7.4296,7.4451,7.5192,7.4296,7.4378,7.4997,7.5643,7.6008,7.6261,7.7301,7.7694,7.7694,0.0,6.0428,0.0,0.0,0.0,0.0,0.0,0.0,0.0,0.0,0.0,0.0,0.0,0.0,0.0,0.0,0.0,6.5701,6.6396,0.0,6.6428,0.0,0.0,0.0,0.0,0.0,0.0,0.0,0.0,0.0,0.0,0.0,0.0,0.0,0.0,6.5257,6.5873,6.5873,6.6242,6.6919,6.7596,6.9012,7.0675,0.0,7.0213,7.0859,7.1598,0.0,0.0,7.1136,7.0921,0.0,0.0,0.0,0.0,0.0,0.0,0.0,0.0,0.0,0.0,7.089,0.0,0.0,0.0,0.0,7.2152,0.0,0.0,0.0,0.0,0.0,0.0,0.0,0.0,0.0,0.0,0.0,0.0,0.0,0.0,0.0,0.0,0.0,0.0,7.797,7.8709,7.9417,8.0063,8.074,8.1079,8.1079,8.1079,8.0492,7.9302,7.9302,7.9302,7.916,7.7974,7.7505,7.7358,7.6196,7.5192,7.4013,7.4013,7.4013,7.4013,7.4013,7.4378,7.4997,7.5643,7.6261,7.6851,7.7469,7.7694,7.7694,0.0,0.0,0.0,0.0,0.0,0.0,0.0,6.7611,0.0,0.0,0.0,0.0,0.0,0.0,6.9163,0.0,0.0,6.8011,6.7567,6.7599,0.0,0.0,0.0,6.5991,0.0,0.0,0.0,0.0,0.0,0.0,0.0,0.0,0.0,0.0,0.0,6.5934,0.0,0.0,0.0,0.0,0.0,7.0582,7.1598,0.0,0.0,7.1598,7.1352,7.1567,0.0,7.2214,7.2583,7.2952,7.2952,7.2952,7.286,7.2398,7.2275,0.0,0.0,0.0,7.2275,7.2275,0.0,0.0,0.0,0.0,0.0,0.0,0.0,0.0,0.0,0.0,0.0,0.0,0.0,0.0,0.0,0.0,0.0,0.0,0.0,0.0,0.0,0.0,0.0,7.7323,7.8001,7.8709,7.9417,8.0063,8.0617,8.1048,8.1079,8.091,8.0492,7.9759,7.9759,8.0492,7.841,7.7974,7.8699,7.7534,7.7092,7.7387,7.5924,7.5621,7.6196,7.4606,7.4631,7.5587,7.5811,7.6514,7.7413,7.761,7.7694,7.7694,6.5013,0.0,0.0,0.0,0.0,0.0,0.0,0.0,0.0,0.0,6.9336,0.0,6.9727,0.0,7.08,0.0,6.9871,6.9874,6.9517,6.9051,0.0,6.7851,6.743,0.0,0.0,0.0,0.0,0.0,0.0,6.5626,0.0,0.0,0.0,0.0,0.0,0.0,0.0,0.0,6.8612,0.0,0.0,7.1906,0.0,0.0,7.2768,7.2306,0.0,7.2306,7.2768,7.3199,7.363,7.403,7.4276,7.4338,7.4214,7.3537,7.3353,7.3291,7.3045,7.2983,0.0,7.2983,7.2983,0.0,7.2983,0.0,0.0,0.0,0.0,0.0,0.0,0.0,0.0,0.0,0.0,0.0,0.0,0.0,0.0,0.0,0.0,0.0,0.0,0.0,7.6031,7.6954,7.7416,7.8093,0.0,0.0,8.0402,8.1048,8.1079,8.1079,8.1079,8.0352,8.0352,8.1079,7.9587,7.8986,7.9302,7.8555,7.8265,7.8555,7.6646,7.6196,7.6795,7.5345,7.5215,7.5896,7.6346,7.692,7.7694,7.7694,7.7694,7.7694,0.0,0.0,0.0,0.0,6.6527,0.0,0.0,0.0,6.788,0.0,6.9079,6.8634,6.9541,7.0675,7.079,6.9477,7.024,0.0,7.1883,7.0924,0.0,0.0,6.9298,6.8139,6.7002,0.0,0.0,0.0,0.0,0.0,0.0,0.0,0.0,0.0,6.7042,0.0,6.9012,6.972,7.0398,7.1136,7.2521,7.3076,7.3229,7.4522,0.0,7.3168,7.3814,7.403,7.403,7.403,7.403,7.4153,7.4799,7.5015,7.4861,7.4245,7.403,7.3907,7.326,7.3076,7.3076,7.3076,0.0,0.0,0.0,0.0,7.3014,0.0,0.0,0.0,0.0,0.0,0.0,0.0,0.0,0.0,0.0,0.0,0.0,0.0,0.0,0.0,0.0,7.4984,7.5538,7.6862,7.6954,7.757,0.0,0.0,8.0309,8.1017,8.1048,8.1079,8.1079,8.1079,8.1079,8.1079,8.1079,8.0492,7.9332,7.9332,7.8699,7.7652,7.6496,7.5924,7.5924,7.5924,7.5935,7.6056,7.7206,7.7662,7.7694,7.7694,7.7694,7.7694,6.6415,6.6776,6.7487,0.0,6.9189,6.9625,0.0,0.0,0.0,0.0,7.0664,7.0781,6.9384,7.147,7.2505,7.126,7.1391,0.0,0.0,0.0,0.0,7.1425,7.1225,7.0105,6.8249,6.8139,0.0,6.6919,0.0,0.0,6.6919,0.0,0.0,0.0,0.0,0.0,7.0428,7.1136,7.1844,7.2552,7.3937,7.4491,0.0,0.0,7.4799,7.4522,7.4676,7.4738,7.4738,7.4738,7.4738,7.4769,7.4953,7.5015,7.4953,7.4799,7.4738,7.4707,7.4522,7.4491,7.4491,7.4491,7.4491,7.4338,0.0,0.0,0.0,0.0,0.0,0.0,0.0,0.0,0.0,0.0,0.0,0.0,0.0,0.0,0.0,0.0,0.0,0.0,7.4184,7.4707,7.5353,7.6215,7.6277,7.6862,7.8247,0.0,0.0,8.0309,8.0832,8.1079,8.1079,8.1079,8.1079,8.1079,8.1079,8.091,8.0632,8.0632,8.0492,8.0182,7.8873,7.7828,7.7062,7.7062,7.6521,7.6056,7.7206,7.7662,7.7694,7.7694,7.7694,7.7694,6.7264,0.0,0.0,6.9163,0.0,0.0,7.0737,0.0,0.0,7.0857,7.1587,0.0,7.1125,7.282,7.3898,7.3499,7.3833,0.0,0.0,0.0,0.0,7.3487,7.2725,7.1823,7.0526,7.0214,0.0,6.9135,0.0,0.0,6.9105,0.0,0.0,0.0,0.0,7.0551,0.0,7.1998,7.2983,7.3907,7.4368,0.0,0.0,7.5661,7.5877,7.5969,7.6585,7.6215,7.5476,7.5784,7.6092,7.6369,7.6677,7.68,7.6739,7.6431,7.6338,7.6277,7.5969,7.5877,7.5877,7.5877,7.5877,7.5723,7.5015,7.4861,7.4769,0.0,0.0,0.0,0.0,0.0,0.0,0.0,0.0,0.0,0.0,0.0,0.0,0.0,7.2983,0.0,7.3506,7.3907,7.4522,7.5507,7.5569,7.6154,0.0,0.0,0.0,8.0063,8.074,8.1079,8.1079,8.1079,8.1079,8.1079,8.1079,8.1079,8.1079,8.1079,8.1079,8.1079,7.9759,7.8555,7.7505,7.812,7.7704,7.6849,7.7993,7.8465,7.848,7.7829,7.7694,7.7694,0.0,0.0,0.0,0.0,0.0,0.0,0.0,7.1386,0.0,7.2355,0.0,7.2768,7.3602,7.4499,7.5208,7.572,0.0,7.7202,7.7942,7.6505,7.5722,7.5831,7.4405,7.3624,7.3381,7.2701,0.0,0.0,0.0,0.0,0.0,0.0,0.0,0.0,0.0,0.0,0.0,7.2737,7.3968,0.0,7.4584,7.4799,7.5538,7.68,7.7293,7.7447,7.8678,7.7939,7.6523,7.7108,7.7693,7.8247,7.8801,7.8955,7.8832,7.8093,7.7908,7.7754,7.7169,7.7016,7.7016,7.7016,7.7016,7.6831,7.6154,7.6,7.6,7.5907,7.5877,7.5877,0.0,0.0,0.0,0.0,0.0,0.0,0.0,0.0,0.0,0.0,0.0,0.0,0.0,7.3076,7.3599,7.4769,7.4861,7.5446,0.0,0.0,0.0,7.994,8.0679,8.1079,8.1079,0.0,8.1079,8.1079,8.1079,8.1079,8.1079,8.1079,8.1079,8.1079,8.0041,7.8873,7.7828,7.9016,7.8892,7.8099,7.9242,7.9415,7.9255,7.8155,7.7694,7.753,0.0,0.0,0.0,0.0,0.0,7.3477,7.395,7.3426,7.301,7.2776,7.4128,0.0,7.4872,7.6371,7.7107,7.6271,7.6269,0.0,0.0,0.0,0.0,7.7514,7.7311,7.6727,7.5709,7.46,7.3529,0.0,0.0,0.0,0.0,0.0,0.0,0.0,0.0,0.0,7.4307,7.4553,0.0,7.5877,7.6308,7.6892,7.76,7.8432,7.8739,7.877,7.9016,7.8862,7.8585,7.8709,7.8801,7.8832,7.837,7.8216,7.8093,7.7416,7.72,7.7169,7.7046,7.7016,7.7016,7.7016,7.7016,7.6831,7.6154,7.6,7.5846,7.5292,7.5169,7.5169,7.5169,0.0,0.0,0.0,0.0,0.0,0.0,0.0,0.0,0.0,0.0,0.0,0.0,0.0,0.0,0.0,7.4184,7.4769,0.0,0.0,0.0,0.0,8.0432,0.0,0.0,0.0,8.1079,8.1079,8.1079,8.1079,8.1079,8.1079,8.1079,8.1079,8.091,8.0041,7.9016,8.0322,8.0086,7.9173,7.9557,7.8963,7.7993,7.7829,7.7201,7.6567,0.0,0.0,0.0,0.0,0.0,0.0,0.0,7.5291,0.0,7.5033,7.6096,7.68,7.6609,7.7781,7.8352,7.7782,7.8118,7.8589,7.9126,7.8378,7.7914,7.7775,7.749,0.0,7.5655,7.4753,7.4005,7.3406,0.0,0.0,0.0,0.0,0.0,0.0,0.0,7.3968,0.0,0.0,0.0,7.7077,7.7416,7.797,7.8616,7.8955,7.9109,7.9109,7.9109,7.9324,7.957,7.9232,7.9109,7.9047,7.8709,7.8585,7.8524,7.8185,7.8093,7.8093,7.8093,7.8093,7.8093,7.8093,7.8093,7.7908,7.7231,7.7046,7.6954,7.6646,7.6585,7.6585,7.6585,7.6,0.0,0.0,0.0,0.0,0.0,0.0,0.0,0.0,0.0,0.0,0.0,0.0,0.0,0.0,0.0,0.0,0.0,0.0,0.0,0.0,0.0,0.0,0.0,0.0,0.0,8.1079,8.1079,8.1079,8.1079,8.1079,8.1079,8.1079,8.1079,8.0492,7.9363,8.0659,8.0574,7.9476,8.0308,8.0178,7.9386,7.8155,7.761,7.739,0.0,7.2547,0.0,0.0,7.5097,0.0,0.0,7.7178,7.8428,7.7205,7.7742,7.8379,7.845,7.8991,7.9397,7.9566,8.0107,8.0378,8.0308,7.9835,7.9232,7.8307,7.7821,7.7309,7.6644,7.5526,7.4998,0.0,7.4253,0.0,0.0,0.0,0.0,0.0,0.0,0.0,0.0,0.0,7.7231,7.8462,7.8308,7.877,7.9509,7.9355,7.9386,7.9509,7.9509,7.9786,8.0032,7.9478,7.9417,7.9509,7.9355,7.9324,7.9293,7.9139,7.9109,7.9109,7.9109,7.9109,7.9109,7.9109,7.9109,7.8955,7.8401,7.8247,7.8247,7.8247,7.8124,7.8031,7.8031,7.7046,0.0,0.0,0.0,0.0,0.0,0.0,0.0,0.0,0.0,0.0,0.0,0.0,0.0,0.0,0.0,7.4122,7.4953,7.68,0.0,0.0,0.0,8.1079,8.1079,0.0,8.1079,0.0,8.1079,8.1079,8.1079,8.1079,8.1079,8.1079,8.1079,8.0632,7.985,8.1183,8.0999,7.9929,8.0925,8.1426,8.1116,7.8774,7.807,7.8091,0.0,0.0,0.0,0.0,0.0,0.0,0.0,7.8889,7.8923,7.757,7.8489,7.9559,7.9904,8.0073,8.0378,8.1021,8.1156,8.1013,8.0518,8.0399,8.0322,8.0212,8.0167,8.0674,8.1711,7.9462,7.8248,0.0,7.703,7.623,0.0,0.0,0.0,0.0,0.0,0.0,0.0,7.7847,7.8647,7.9847,7.9232,7.9755,8.0832,8.0248,8.0371,8.0894,8.0894,8.0555,8.0094,8.0032,8.0402,8.0802,8.0186,8.0032,7.9909,7.9293,7.9109,7.9109,7.9109,7.9109,7.9109,7.9109,7.9109,7.9078,7.9016,7.9016,7.9016,7.9016,7.8493,7.8031,7.8031,7.7416,7.6923,0.0,0.0,0.0,0.0,0.0,0.0,0.0,0.0,0.0,0.0,0.0,0.0,0.0,0.0,7.363,7.4922,7.6338,7.7724,7.9047,0.0,8.1079,8.1079,8.1079,8.1079,8.1079,8.1079,8.1079,8.1079,8.1079,8.1079,8.1079,8.1079,8.1079,8.1033,8.2385,8.2192,8.1119,8.1354,8.1426,8.1271,7.9415,7.8099,7.7034,0.0,0.0,0.0,0.0,0.0,0.0,0.0,8.1353,8.1725,8.0263,8.0342,8.0547,8.0599,8.0488,8.0482,8.0782,8.0816,8.1056,8.1571,8.1291,8.0748,8.0035,7.9612,7.9396,7.9156,7.8213,7.7622,0.0,0.0,0.0,0.0,0.0,0.0,0.0,0.0,7.8154,7.8709,7.9109,7.9601,8.0124,8.0248,8.0586,8.1017,8.0371,8.0278,8.0432,8.0032,8.0001,8.0094,8.0094,8.0001,7.9847,7.957,7.9509,7.9447,7.917,7.9109,7.9109,7.9109,7.9109,7.9109,7.9109,7.9109,7.9109,7.9109,7.9109,7.9109,7.9109,7.8862,7.8678,7.8678,7.8462,7.8278,0.0,0.0,0.0,0.0,0.0,0.0,0.0,0.0,7.6523,0.0,0.0,0.0,0.0,0.0,7.3568,7.4922,7.6277,7.7662,7.9047,0.0,8.1079,8.1079,8.1079,8.1079,8.1079,8.1079,8.1079,8.1079,8.1079,8.1079,8.1079,8.1079,8.1079,8.1171,8.2525,8.2336,8.1266,8.214,8.204,8.1271,8.0649,7.9009,7.6869,8.0622,0.0,8.0699,0.0,8.1145,8.2022,8.1733,8.2749,8.336,8.2955,8.2238,8.1653,8.1376,8.1442,8.1434,8.1633,8.1414,8.1524,8.2455,8.1769,8.123,8.0964,8.0142,0.0,7.929,7.8584,7.8226,7.8226,7.8226,0.0,0.0,0.0,0.0,0.0,7.8647,7.9201,7.9447,8.0124,8.0402,8.0402,8.0679,8.0894,8.1017,8.0371,8.0217,8.034,7.9847,7.9971,8.0402,8.0402,8.0063,7.9694,7.9694,7.9694,7.9694,7.9694,7.9694,7.9694,7.9694,7.9694,7.9694,7.9694,7.9694,7.9694,7.9694,7.9694,7.9694,7.9694,7.954,7.9386,7.9386,7.9232,7.9109,7.9109,0.0,0.0,0.0,0.0,0.0,0.0,7.7447,7.7016,7.7016,0.0,0.0,0.0,0.0,0.0,7.5538,7.6677,0.0,0.0,0.0,0.0,0.0,8.1079,8.1079,8.1079,8.1079,8.1079,8.1079,8.1079,8.1079,8.1079,8.1079,8.1079,8.1171,8.231,8.2439,8.185,8.223,8.2167,8.1887,8.0961,7.9328,7.7526,8.3949,8.3949,8.3655,8.2854,8.2718,8.2718,8.2752,8.2547,8.3024,8.4854,8.3874,8.2892,8.2603,8.3173,8.3795,8.4539,8.3387,8.2684,8.2684,8.1505,8.1714,0.0,0.0,8.2672,8.4755,8.2197,8.0996,8.0996,0.0,0.0,7.9795,0.0,7.8807,7.9078,7.9078,7.9478,8.0124,8.0771,8.1048,8.1017,8.0371,8.0494,8.1017,8.0371,8.0494,8.1048,8.1048,8.1048,8.1048,8.1048,8.1048,8.1048,8.1048,8.1048,8.1048,8.1048,8.1048,8.1048,8.1048,8.1048,8.1048,8.1048,8.1048,8.1048,8.1048,8.1048,8.1048,8.1048,8.0525,8.0094,8.0094,7.954,7.9109,7.9109,0.0,0.0,0.0,0.0,0.0,7.8124,7.7447,7.7016,7.7016,0.0,0.0,0.0,0.0,0.0,0.0,0.0,0.0,8.0063,8.074,0.0,8.1079,8.1079,8.1079,8.1079,8.1079,8.1079,8.1079,8.1079,8.1079,8.1079,8.1079,8.1079,8.111,8.1817,8.2495,8.2857,8.1123,8.1628,8.2951,8.0049,7.9226,7.9169,8.4018,8.4018,8.3724,8.2989,8.3736,8.4179,8.3636,8.4387,8.5035,8.507,8.4967,8.4859,8.4514,8.3166,8.2598,0.0,8.2942,8.3087,0.0,8.2494,8.2269,8.3729,8.2142,8.2004,8.3454,8.2723,8.2109,8.1723,0.0,0.0,0.0,8.0492,8.0378,8.0432,8.0432,8.0309,8.0155,8.0802,8.0832,8.0432,8.0679,8.0894,8.1048,8.0832,8.0894,8.1079,8.1079,8.1079,8.1079,8.1079,8.1079,8.1079,8.1079,8.1079,8.1079,8.1079,8.1079,8.1079,8.1079,8.1079,8.1079,8.1079,8.1079,8.1079,8.1079,8.1079,8.1079,8.1079,8.0894,8.0771,8.0771,8.0586,8.0432,8.0432,8.0432,0.0,0.0,0.0,0.0,7.9478,7.8862,7.8616,0.0,7.8062,0.0,0.0,0.0,0.0,0.0,0.0,0.0,0.0,8.074,0.0,8.1079,8.1079,8.1079,8.1079,8.1079,8.1079,8.1079,8.1079,8.1079,8.1079,8.1079,8.1079,8.111,8.1787,8.2495,8.3141,8.2923,8.2529,8.204,8.1887,7.9992,7.731,8.488,8.488,8.4682,8.4248,8.4659,8.5068,8.4831,8.5344,8.5754,8.5549,8.5789,8.5923,8.5977,8.4578,0.0,8.3888,8.3374,8.3743,8.4939,8.3579,8.3498,8.5278,8.377,8.3148,8.3778,0.0,0.0,8.169,8.169,8.1403,8.1079,8.0832,8.0709,8.0709,8.0709,8.0494,8.0155,8.0802,8.0832,8.0494,8.0894,8.1079,8.1079,8.1079,8.1079,8.1079,8.1079,8.1079,8.1079,8.1079,8.1079,8.1079,8.1079,8.1079,8.1079,8.1079,8.1079,8.1079,8.1079,8.1079,8.1079,8.1079,8.1079,8.1079,8.1079,8.1079,8.1079,8.1079,8.1079,8.1079,8.1079,8.1079,8.1079,8.1079,8.1079,8.1079,8.1079,0.0,8.0371,0.0,0.0,0.0,0.0,7.917,0.0,0.0,0.0,0.0,0.0,0.0,0.0,8.0432,8.0863,0.0,8.1079,8.1079,8.1079,8.1079,8.1079,8.1079,8.1079,8.1079,8.1079,8.1079,8.1079,8.1079,8.111,8.151,8.2248,8.311,8.3082,8.2615,8.204,8.1887,8.0306,7.7964,8.6294,8.6294,0.0,0.0,8.572,0.0,8.6332,8.5823,8.5479,8.6366,8.6302,8.6397,8.6954,8.6797,8.6392,8.5784,0.0,0.0,0.0,8.451,8.4997,8.7486,8.6314,8.5396,8.4944,8.3706,8.2489,8.1124,8.1186,8.1079,8.1048,8.0463,8.0186,8.0186,8.0186,8.0186,8.0217,8.0802,8.1079,8.1079,8.1079,8.1079,8.1079,8.1079,8.1079,8.1079,8.1079,8.1079,8.1079,8.1079,8.1079,8.1079,8.1079,8.1079,8.1079,8.1079,8.1079,8.1079,8.1079,8.1079,8.1079,8.1079,8.1079,8.1079,8.1079,8.1079,8.1079,8.1079,8.1079,8.1079,8.1079,8.1079,8.1079,8.1079,8.1079,8.1079,8.1079,0.0,8.0863,0.0,0.0,0.0,0.0,7.9817,8.0155,0.0,0.0,0.0,0.0,0.0,8.0463,8.1048,8.1079,8.1079,8.1079,8.1079,8.1079,8.1079,8.1079,8.1079,8.1079,8.1079,8.1079,8.1079,8.1079,8.1079,8.1079,8.111,8.191,8.2938,8.1789,8.2136,8.2951,8.0649,8.0207,8.0335,0.0,0.0,8.6501,8.7053,8.6953,8.7125,8.795,8.7848,8.7814,8.8053,8.7431,8.6967,8.686,8.6119,8.5625,8.5264,8.6018,8.6095,8.5164,8.3939,8.3509,8.4075,8.2858,8.2582,8.3363,8.3116,8.2525,8.1799,8.1319,8.1079,8.1079,8.0925,8.0832,8.0832,8.0832,8.0832,8.0863,8.1017,8.1079,8.1079,8.1079,8.1079,8.1079,8.1079,8.1079,8.1079,8.1079,8.1079,8.1079,8.1079,8.1079,8.1079,8.1079,8.1079,8.1079,8.1079,8.1079,8.1079,8.1079,8.1079,8.1079,8.1079,8.1079,8.1079,8.1079,8.1079,8.1079,8.1079,8.1079,8.1079,8.1079,8.1079,8.1079,8.1079,8.1079,8.1079,8.1079,8.1079,0.0,0.0,8.0832,8.0771,8.0617,8.074,8.0648,0.0,0.0,0.0,0.0,8.0648,8.0925,8.1079,8.1079,8.1079,8.1079,8.1079,8.1079,8.1079,8.1079,8.1079,8.1079,8.1079,8.1079,8.1079,8.1079,8.1079,8.111,8.1633,8.2341,8.3141,8.3348,8.3295,8.3251,8.2649,8.1426,7.9545,8.7363,8.7363,8.7467,8.7881,8.795,8.7985,8.7949,8.8364,8.8468,8.8017,8.7868,8.7857,8.8072,8.7617,8.7149,8.6808,8.6432,8.5938,8.505,8.4337,8.3861,8.394,8.3192,8.2971,8.2971,8.2971,8.2523,8.1517,8.1275,8.1079,8.1079,8.1079,8.1079,8.1079,8.1079,8.1079,8.1079,8.1079,8.1079,8.1079,8.1079,8.1079,8.111,8.1417,8.154,8.1571,8.1879,8.2002,8.1941,8.1633,8.154,8.1479,8.1171,8.1079,8.1079,8.1079,8.1079,8.1079,8.1079,8.1079,8.1079,8.1079,8.1079,8.1079,8.1079,8.1079,8.1079,8.1079,8.1079,8.1079,8.1079,8.1079,8.1079,8.1079,8.1079,8.1079,8.1079,8.1079,0.0,8.1079,8.1079,8.1079,8.1079,8.1079,8.0925,8.0586,8.0863,0.0,8.0555,8.0863,8.1079,8.1079,8.1079,8.1079,8.1079,8.1079,8.1079,8.1079,8.1079,8.1079,8.1079,8.1079,8.1079,8.1079,8.1079,8.1079,8.111,8.1787,8.2495,8.3141,8.3818,8.4062,8.4025,8.358,8.2345,8.0834,8.8605,8.8605,8.8639,8.8743,8.8777,8.8571,8.7868,8.8465,8.8708,8.7902,8.8198,8.8715,8.9426,8.9219,8.8892,8.8438,8.6513,8.511,8.4935,8.4724,8.4615,8.4442,8.4474,8.3962,8.2849,8.2975,8.2369,8.1233,8.1325,8.1387,8.1387,8.1387,8.1387,8.1387,8.1387,8.1387,8.1387,8.1387,8.1387,8.1387,8.1387,8.1387,8.1448,8.2002,8.2218,8.231,8.2895,8.308,8.2987,8.2433,8.2218,8.2125,8.1448,8.1233,8.1202,8.111,8.1079,8.1079,8.1079,8.1079,8.1079,8.1079,8.1079,8.1079,8.1079,8.1079,8.1079,8.1079,8.1079,8.1079,8.1079,8.1079,8.1079,8.1079,8.1079,8.1079,8.1079,0.0,8.1079,8.1079,8.1079,8.1079,8.1079,8.1079,8.1079,8.1079,8.1079,8.1079,0.0,8.1079,8.1079,8.1079,8.1079,8.1079,8.1079,8.1079,8.1079,8.1079,8.1079,8.1079,8.1079,8.1079,8.1079,8.1079,8.1079,8.1079,8.114,8.191,8.2587,8.3172,8.3941,8.4588,8.4966,8.3877,8.3131,8.2709,8.8605,8.8605,8.8812,8.9433,8.9536,8.9743,9.0153,9.0362,9.0362,9.0222,8.9682,8.9058,8.8384,8.7645,8.6798,8.598,8.6033,8.5624,8.4346,8.3706,8.2856,8.1839,8.1703,8.1566,8.1461,8.2018,8.2188,8.191,8.2495,8.2772,8.2772,8.2772,8.2772,8.2772,8.2772,8.2772,8.2772,8.2772,8.2772,8.2772,8.2772,8.2772,8.2772,8.2895,8.2926,8.2956,8.3049,8.308,8.308,8.2956,8.2926,8.2803,8.2125,8.191,8.1817,8.1233,8.1079,8.1079,8.1079,8.1079,8.1079,8.1079,8.1079,8.1079,8.1079,8.1079,8.1079,8.1079,8.1079,8.1079,8.1079,8.1079,8.1079,8.1079,8.1079,8.1079,8.1079,0.0,8.1079,8.1079,8.1079,8.1079,8.1079,8.1079,8.1079,8.1079,8.1079,8.1079,8.1079,8.1079,8.1079,8.1079,8.1079,8.1079,8.1079,8.1079,8.1079,8.1079,8.1079,8.1079,8.1079,8.1079,8.1079,8.1079,8.1079,8.1079,8.1171,8.2402,8.2987,8.3203,8.4465,8.5019,8.5111,8.4966,8.3907,8.2527,8.9778,8.9778,8.9881,9.0226,9.0295,9.0082,8.9381,8.9779,8.984,8.9285,8.8779,8.8714,8.9232,8.8436,8.7619,8.7248,8.72,8.6597,8.5469,8.4682,8.3777,8.282,8.2435,8.2156,8.2156,8.2464,8.2618,8.2618,8.2926,8.308,8.308,8.308,8.308,8.308,8.308,8.308,8.308,8.308,8.308,8.308,8.308,8.308,8.3141,8.348,8.3634,8.3695,8.4034,8.4188,8.4126,8.3757,8.3634,8.351,8.2833,8.2372,8.2002,8.1694,8.1356,8.1079,8.1079,8.1079,8.1079,8.1079,8.1079,8.1079,8.1079,8.1079,8.1079,8.1079,8.1079,8.1079,8.1079,8.1079,8.1079,8.1079,8.1079,0.0,0.0,8.1079,8.1079,8.1079,8.1079,8.1079,8.1079,8.1079,8.1079,8.1079,8.1079,8.1079,8.1079,8.1079,8.1079,8.1079,8.1079,8.1079,8.1079,8.1079,8.1079,8.1079,8.1079,8.1079,8.1079,8.1079,8.1079,8.1079,8.1079,8.1263,8.1694,8.2679,8.3295,8.3726,8.4711,8.5111,8.5111,8.4789,8.4203,8.3311,9.133,9.133,9.133,9.133,9.133,9.0902,8.9512,8.9882,9.0086,8.9131,8.908,8.9398,9.0439,8.9673,8.9099,8.8852,8.8235,8.7728,8.7014,8.6213,8.537,8.42,8.3503,8.308,8.308,8.3233,8.3326,8.3326,8.348,8.3541,8.3541,8.3541,8.3541,8.3541,8.3541,8.3541,8.3541,8.3541,8.3541,8.3541,8.3541,8.3541,8.3603,8.4126,8.4342,8.4403,8.4926,8.5111,8.5019,8.4495,8.4342,8.4218,8.3541,8.2864,8.2279,8.2125,8.1602,8.1079,8.1079,8.1079,8.1079,8.1079,8.1079,8.1079,8.1079,8.1079,8.1079,8.1079,8.1079,8.1079,8.1079,8.1079,8.1079,8.1079,0.0,0.0,0.0,8.1079,8.1079,8.1079,8.1079,8.1079,8.1079,8.1079,8.1079,8.1079,8.1079,8.1079,8.1079,8.1079,8.1079,8.1079,8.1079,8.1079,8.1079,8.1079,8.1079,8.1079,8.1079,8.1079,8.1079,8.1079,8.1079,8.1079,8.1079,8.1448,8.2125,8.2803,8.348,8.4157,8.4834,8.5111,8.5111,8.4643,8.4203,8.3789,9.2916,9.2916,9.2916,9.2916,9.2916,9.2916,9.27,9.2808,9.2843,9.2769,9.266,9.244,9.1659,9.074,8.9793,8.8976,8.863,8.8409,8.8279,8.7661,8.6346,8.4231,8.3503,8.308,8.308,8.3695,8.4034,8.4034,8.4649,8.4957,8.4957,8.4957,8.4957,8.4957,8.4957,8.4957,8.4957,8.4957,8.4957,8.4957,8.4957,8.4957,8.4957,8.5019,8.5019,8.505,8.508,8.5111,8.508,8.505,8.5019,8.4926,8.4249,8.3572,8.2895,8.2248,8.1602,8.1079,8.1079,8.1079,8.1079,8.1079,8.1079,8.1079,8.1079,8.1079,8.1079,8.1079,8.1079,8.1079,8.1079,8.1079,8.1079,8.1079,0.0,0.0,8.1079,8.1079,8.1079,8.1079,8.1079,8.1079,8.1079,8.1079,8.1079,8.1079,8.1079,8.1079,8.1079,8.1079,8.1079,8.1079,8.1079,8.1079,8.1079,8.1079,8.1079,8.1079,8.1079,8.1079,8.1079,8.1079,8.1079,8.1079,8.1079,8.1448,8.2125,8.2803,8.348,8.4157,8.4834,8.5111,8.5111,8.4643,8.4203,8.3789,9.3089,9.3089,9.3089,9.3089,9.3089,9.2872,9.2254,9.2254,9.1976,9.1262,9.1647,9.1582,9.0511,9.0544,9.0328,8.9348,8.9253,8.9154,8.9154,8.8449,8.7096,8.4913,8.4485,8.4342,8.4342,8.4588,8.4711,8.4711,8.4988,8.5111,8.5111,8.5111,8.5111,8.5111,8.5111,8.5111,8.5111,8.5111,8.5111,8.5111,8.5111,8.5111,8.5111,8.5111,8.5111,8.5111,8.5111,8.5111,8.5111,8.5111,8.5111,8.505,8.4803,8.3972,8.2864,8.1787,8.1263,8.1079,8.1079,8.1079,8.1079,8.1079,8.1079,8.1079,8.1079,8.1079,8.1079,8.1079,8.1079,8.1079,8.1079,8.1079,8.1079,8.1079,0.0,8.1079,8.1079,8.1079,8.1079,8.1079,8.1079,8.1079,8.1079,8.1079,8.1079,8.1079,8.1079,8.1079,8.1079,8.1079,8.1079,8.1079,8.1079,8.1079,8.1079,8.1079,8.1079,8.1079,8.1079,8.1079,8.1079,8.1079,8.1079,8.1079,8.151,8.2064,8.2772,8.3418,8.4126,8.4742,8.5019,8.5111,8.4966,8.435,8.4086,8.3789,9.3813,9.3813,9.3813,9.3813,9.356,9.3084,9.2487,9.2144,9.1615,9.0858,9.1381,9.1425,9.0612,9.0773,9.0773,9.0066,8.9837,8.9575,8.9575,8.8878,8.7624,8.58,8.58,8.5657,8.537,8.54,8.537,8.5111,8.5111,8.5111,8.5111,8.5111,8.5111,8.5111,8.5111,8.5111,8.5111,8.5111,8.5111,8.5111,8.5111,8.5111,8.5111,8.5111,8.5111,8.5111,8.5111,8.5111,8.5111,8.5111,8.5111,8.5111,8.5111,8.4188,8.2864,8.1725,8.1233,8.1079,8.1079,8.1079,8.1079,8.1079,8.1079,8.1079,8.1079,8.1079,8.1079,8.1079,8.1079,8.1079,8.1079,8.1079,8.1079,8.1079,8.1079,8.1079,8.1079,8.1079,8.1079,8.1079,8.1079,8.1079,8.1079,8.1079,8.1079,8.1079,8.1079,8.1079,8.1079,8.1079,8.1079,8.1079,8.1079,8.1079,8.1079,8.1079,8.1079,8.1079,8.1079,8.1079,8.1079,8.1079,8.1171,8.1417,8.1879,8.2587,8.3449,8.3911,8.4495,8.5111,8.5111,8.5111,8.4966,8.435,8.4086,8.3789,9.54,9.54,9.54,9.54,9.4511,9.3903,9.3903,9.3081,9.2514,9.2514,9.2514,9.2514,9.2514,9.1621,9.1027,9.1027,9.0196,8.9575,8.9575,8.8878,8.8172,8.7348,8.7348,8.69,8.6227,8.6227,8.58,8.5111,8.5111,8.5111,8.5111,8.5111,8.5111,8.5111,8.5111,8.5111,8.5111,8.5111,8.5111,8.5111,8.5111,8.5111,8.5111,8.5111,8.5111,8.5111,8.5111,8.5111,8.5111,8.5111,8.5111,8.5111,8.5111,8.4188,8.2956,8.2279,8.1602,8.1079,8.1079,8.1079,8.1079,8.1079,8.1079,8.1079,8.1079,8.1079,8.1079,8.1079,8.1079,8.1079,8.1079,8.1079,8.1079,8.1079,8.1079,8.1079,8.1079,8.1079,8.1079,8.1079,8.1079,8.1079,8.1079,8.1079,8.1079,8.1079,8.1079,8.1079,8.1079,8.1079,8.1079,8.1079,8.1079,8.1079,8.1079,8.1079,8.1079,8.1079,8.1079,8.1079,8.1079,8.1079,8.1448,8.2095,8.2095,8.2864,8.4095,8.4095,8.4495,8.5111,8.5111,8.5111,8.5111,8.4643,8.4203,8.3938,9.54,9.54,9.54,9.54,9.5143,9.4772,9.4019,9.367,9.2928,9.1621,9.2025,9.2025,9.055,9.0773,9.0773,9.0066,8.9706,8.9575,8.9575,8.9443,8.9145,8.8878,8.7899,8.69,8.6227,8.6227,8.58,8.5111,8.5111,8.5111,8.5111,8.5111,8.5111,8.5111,8.5111,8.5111,8.5111,8.5111,8.5111,8.5111,8.5111,8.5111,8.5111,8.5111,8.5111,8.5111,8.5111,8.5111,8.5111,8.5111,8.5111,8.5019,8.4557,8.3788,8.2956,8.2279,8.1602,8.1079,8.1079,8.1079,8.1079,8.1079,8.1079,8.1079,8.1079,8.1079,8.1079,8.1079,8.1079,8.1079,8.1079,8.1079,8.1079,8.1079,8.1079,8.1079,8.1079,8.1079,8.1079,8.1079,8.1079,8.1079,8.1079,8.1079,8.1079,8.1079,8.1079,8.1079,8.1079,8.1079,8.1079,8.1079,8.1079,8.1079,8.1079,8.1079,8.1079,8.1079,8.1079,8.1325,8.1787,8.1787,8.2156,8.2803,8.3295,8.3726,8.4126,8.4619,8.4926,8.5111,8.5111,8.5111,8.5111,8.4643,8.4497,8.4203,9.54,9.54,9.54,9.54,9.5031,9.4625,9.4019,9.3553,9.2842,9.1246,9.1496,9.1279,8.9837,9.0066,9.0163,8.9706,8.9575,8.9575,8.9575,8.9575,8.9575,8.9575,8.8744,8.7762,8.6651,8.6651,8.6086,8.5111,8.5111,8.5111,8.5111,8.5111,8.5111,8.5111,8.5111,8.5111,8.5111,8.5111,8.5111,8.5111,8.5111,8.5111,8.5111,8.5111,8.5111,8.5111,8.5111,8.5111,8.5111,8.5111,8.5111,8.5019,8.4619,8.3849,8.3018,8.2587,8.1817,8.1079,8.1079,8.1079,8.1079,8.1079,8.1079,8.1079,8.1079,8.1079,8.1079,8.1079,8.1079,8.1079,8.1079,8.1079,8.1079,8.1079,8.1079,8.1079,8.1079,8.1079,8.1079,8.1079,8.1079,8.1079,8.1079,8.1079,8.1079,8.1079,8.1325,8.1479,8.1479,8.1725,8.1879,8.1879,8.1879,8.1879,8.1879,8.1879,8.1725,8.1479,8.1725,8.2064,8.2495,8.2495,8.2833,8.351,8.3911,8.4249,8.4526,8.4926,8.5111,8.5111,8.5111,8.5111,8.5111,8.4789,8.4643,8.4497,9.54,9.54,9.54,9.54,9.4625,9.4019,9.3903,9.3081,9.2148,9.112,9.09,9.055,8.9706,8.9575,8.9575,8.9575,8.9575,8.9575,8.9575,8.9575,8.9575,8.9575,8.9575,8.8878,8.7487,8.7348,8.6651,8.5256,8.5111,8.5111,8.5111,8.5111,8.5111,8.5111,8.5111,8.5111,8.5111,8.5111,8.5111,8.5111,8.5111,8.5111,8.5111,8.5111,8.5111,8.5111,8.5111,8.5111,8.5111,8.5111,8.5111,8.5111,8.5111,8.4218,8.3172,8.311,8.2156,8.114,8.1079,8.1079,8.1079,8.1079,8.1079,8.1079,8.1079,8.1079,8.1079,8.1079,8.1079,8.1079,8.1079,8.1079,8.1079,8.1079,8.1079,8.1079,8.1079,8.1079,8.1079,8.1079,8.111,8.1171,8.1171,8.1202,8.1263,8.1263,8.1817,8.2156,8.2156,8.2741,8.308,8.308,8.308,8.308,8.308,8.3141,8.2833,8.2187,8.2803,8.311,8.3172,8.3172,8.3541,8.4188,8.4188,8.4526,8.5111,8.5111,8.5111,8.5111,8.5111,8.5111,8.5111,8.5111,8.4789,8.4497,9.54,9.54,9.54,9.54,9.5254,9.4772,9.4019,9.3081,9.2148,9.112,9.0422,8.9837,8.9575,8.9575,8.9575,8.9575,8.9575,8.9575,8.9575,8.9575,8.9575,8.9575,8.9575,8.9145,8.8307,8.7624,8.6931,8.5943,8.537,8.5111,8.5111,8.5111,8.5111,8.5111,8.5111,8.5111,8.5111,8.5111,8.5111,8.5111,8.5111,8.5111,8.5111,8.5111,8.5111,8.5111,8.5111,8.5111,8.5111,8.5111,8.5111,8.5111,8.5111,8.4526,8.3757,8.3233,8.2495,8.1756,8.1202,8.1079,8.1079,8.1079,8.1079,8.1079,8.1079,8.1079,8.1079,8.1079,8.1079,8.1079,8.1079,8.1079,8.1079,8.1079,8.1079,8.1079,8.1079,8.1079,8.1079,8.1079,8.154,8.1848,8.1848,8.2341,8.2649,8.2649,8.2772,8.2864,8.2864,8.3018,8.308,8.308,8.308,8.308,8.308,8.3603,8.3541,8.2864,8.3018,8.3357,8.388,8.388,8.4249,8.4896,8.4896,8.4957,8.5111,8.5111,8.5111,8.5111,8.5111,8.5111,8.5111,8.5111,8.5111,8.4935,9.54,9.54,9.54,9.54,9.54,9.5254,9.4659,9.3787,9.2842,9.1868,9.09,9.0066,8.9706,8.9575,8.9575,8.9575,8.9575,8.9575,8.9575,8.9575,8.9575,8.9575,8.9575,8.9443,8.9012,8.8307,8.7487,8.676,8.5943,8.58,8.6086,8.58,8.5657,8.5657,8.5256,8.5111,8.5111,8.5111,8.5111,8.5111,8.5111,8.5111,8.5111,8.5111,8.5111,8.5111,8.5111,8.5111,8.5111,8.5111,8.5111,8.5111,8.5111,8.4649,8.3972,8.3295,8.2618,8.1941,8.1263,8.1079,8.1079,8.1079,8.1079,8.1079,8.1079,8.1079,8.1079,8.1079,8.1079,8.1079,8.1079,8.1079,8.1079,8.1079,8.1079,8.1079,8.1079,8.1356,8.154,8.154,8.2156,8.2556,8.2556,8.2895,8.308,8.308,8.3387,8.3572,8.3572,8.388,8.4034,8.4034,8.4034,8.4034,8.4034,8.4403,8.4403,8.4034,8.4034,8.4249,8.4588,8.4588,8.4773,8.5111,8.5111,8.5111,8.5111,8.5111,8.5111,8.5111,8.5111,8.5111,8.5111,8.5111,8.5111,8.5111,9.54,9.54,9.54,9.54,9.54,9.54,9.54,9.4511,9.3553,9.2635,9.1621,9.0645,8.9706,8.9575,8.9575,8.9575,8.9575,8.9575,8.9575,8.9575,8.9575,8.9575,8.9575,8.9575,8.9575,8.8878,8.8172,8.7487,8.6791,8.6651,8.7317,8.651,8.6227,8.6227,8.537,8.5111,8.5111,8.5111,8.5111,8.5111,8.5111,8.5111,8.5111,8.5111,8.5111,8.5111,8.5111,8.5111,8.5111,8.5111,8.5111,8.5111,8.5111,8.4711,8.4126,8.3449,8.2864,8.2248,8.1448,8.1233,8.1202,8.111,8.1079,8.1079,8.1079,8.1079,8.1079,8.1079,8.1079,8.1079,8.1079,8.1079,8.111,8.1233,8.1233,8.1294,8.1387,8.191,8.2248,8.2248,8.2833,8.3295,8.3418,8.3418,8.3418,8.3418,8.3941,8.428,8.428,8.4803,8.5111,8.5111,8.5111,8.5111,8.5111,8.5111,8.5111,8.5111,8.5111,8.5111,8.5111,8.5111,8.5111,8.5111,8.5111,8.5111,8.5111,8.5111,8.5111,8.5111,8.5111,8.5111,8.5111,8.5111,8.5111,8.5111,9.54,9.54,9.54,9.54,9.54,9.54,9.54,9.4511,9.3553,9.2635,9.1621,9.0645,8.9706,8.9575,8.9575,8.9575,8.9575,8.9575,8.9575,8.9575,8.9575,8.9575,8.9575,8.9575,8.9575,8.8878,8.8475,8.8339,8.7487,8.7178,8.7317,8.651,8.6227,8.6227,8.537,8.5111,8.5111,8.5111,8.5111,8.5111,8.5111,8.5111,8.5111,8.5111,8.5111,8.5111,8.5111,8.5111,8.5111,8.5111,8.5111,8.5111,8.5111,8.505,8.4834,8.4157,8.388,8.3541,8.2279,8.1941,8.1817,8.1202,8.1079,8.1079,8.1079,8.1079,8.1079,8.1079,8.1079,8.1079,8.1079,8.1079,8.1263,8.1848,8.1941,8.2156,8.2741,8.2895,8.2956,8.2956,8.3541,8.4188,8.4773,8.4834,8.4834,8.4834,8.4926,8.4957,8.4957,8.505,8.5111,8.5111,8.5111,8.5111,8.5111,8.5111,8.5111,8.5111,8.5111,8.5111,8.5111,8.5111,8.5111,8.5111,8.5111,8.5111,8.5111,8.5111,8.5111,8.5111,8.5111,8.5111,8.5111,8.5111,8.5111,8.5111,9.54,9.54,9.54,9.54,9.54,9.54,9.54,9.4511,9.3787,9.3318,9.1992,9.09,9.0422,8.9936,8.9575,8.9575,8.9575,8.9575,8.9575,8.9575,8.9575,8.9575,8.9575,8.9575,8.9575,8.931,8.9145,8.9145,8.8339,8.8172,8.861,8.7762,8.7487,8.7487,8.6227,8.5657,8.5657,8.5225,8.5111,8.5111,8.5111,8.5111,8.5111,8.5111,8.5111,8.5111,8.5111,8.5111,8.5111,8.5111,8.5111,8.5111,8.5111,8.5111,8.4957,8.4311,8.4095,8.388,8.2895,8.2649,8.2587,8.2279,8.2187,8.2187,8.2187,8.2187,8.1971,8.1233,8.1387,8.1633,8.1633,8.1941,8.2279,8.2587,8.2649,8.2741,8.3049,8.3418,8.3788,8.4157,8.4465,8.4773,8.508,8.5111,8.5111,8.5111,8.5111,8.5111,8.5111,8.5111,8.5111,8.5111,8.5111,8.5111,8.5111,8.5111,8.5111,8.5111,8.5111,8.5111,8.5111,8.5111,8.5111,8.5111,8.5111,8.5111,8.5111,8.5111,8.5111,8.5111,8.5111,8.5111,8.5111,8.5111,8.5111,8.5111]},{"header":{"parameterUnit":"m.s-1","parameterCategory":1,"la1":30.6,"la2":28.766,"lo1":-90.7593,"lo2":-88.6598,"dx":0.0162,"dy":0.0183,"nx":116,"ny":114,"refTime":"2023-02-07T06:00:00:Z","depth":0,"parameterNumber":3,"parameterNumberName":"V-component_of_WINDS"},"data":[0.0,0.0,0.0,0.0,0.0,0.0,0.0,0.0,0.0,0.0,0.0,0.0,0.0,0.0,0.0,0.0,0.0,0.0,0.0,0.0,0.0,0.0,0.0,0.0,0.0,0.0,0.0,0.0,0.0,0.0,0.0,0.0,0.0,0.0,0.0,0.0,0.0,0.0,0.0,0.0,0.0,0.0,0.0,0.0,0.0,0.0,0.0,0.0,0.0,0.0,0.0,0.0,0.0,0.0,0.0,0.0,0.0,0.0,0.0,0.0,0.0,0.0,0.0,0.0,0.0,0.0,0.0,0.0,0.0,0.0,0.0,0.0,0.0,0.0,0.0,0.0,0.0,0.0,0.0,0.0,0.0,0.0,0.0,0.0,0.0,0.0,0.0,0.0,0.0,0.0,0.0,0.0,0.0,0.0,0.0,0.0,0.0,0.0,0.0,0.0,0.0,0.0,0.0,0.0,0.0,0.0,0.0,0.0,0.0,0.0,0.0,0.0,0.0,0.0,0.0,0.0,0.0,0.0,0.0,0.0,0.0,0.0,0.0,0.0,0.0,0.0,0.0,0.0,0.0,0.0,0.0,0.0,0.0,0.0,0.0,0.0,0.0,0.0,0.0,0.0,0.0,0.0,0.0,0.0,0.0,0.0,0.0,0.0,0.0,0.0,0.0,0.0,0.0,0.0,0.0,0.0,0.0,0.0,0.0,0.0,0.0,0.0,0.0,0.0,0.0,0.0,0.0,0.0,0.0,0.0,0.0,0.0,0.0,0.0,0.0,0.0,0.0,0.0,0.0,0.0,0.0,0.0,0.0,0.0,0.0,0.0,0.0,0.0,0.0,0.0,0.0,0.0,0.0,0.0,0.0,0.0,0.0,0.0,0.0,0.0,0.0,0.0,0.0,0.0,0.0,0.0,0.0,0.0,0.0,0.0,0.0,0.0,0.0,0.0,0.0,0.0,0.0,0.0,0.0,0.0,0.0,0.0,0.0,0.0,0.0,0.0,0.0,0.0,0.0,0.0,0.0,0.0,0.0,0.0,0.0,0.0,0.0,0.0,0.0,0.0,0.0,0.0,0.0,0.0,0.0,0.0,0.0,0.0,0.0,0.0,0.0,0.0,0.0,0.0,0.0,0.0,0.0,0.0,0.0,0.0,0.0,0.0,0.0,0.0,0.0,0.0,0.0,0.0,0.0,0.0,0.0,0.0,0.0,0.0,0.0,0.0,0.0,0.0,0.0,0.0,0.0,0.0,0.0,0.0,0.0,0.0,0.0,0.0,0.0,0.0,0.0,0.0,0.0,0.0,0.0,0.0,0.0,0.0,0.0,0.0,0.0,0.0,0.0,0.0,0.0,0.0,0.0,0.0,0.0,0.0,0.0,0.0,0.0,0.0,0.0,0.0,0.0,0.0,0.0,0.0,0.0,0.0,0.0,0.0,0.0,0.0,0.0,0.0,0.0,0.0,0.0,0.0,0.0,0.0,0.0,0.0,0.0,0.0,0.0,0.0,0.0,0.0,0.0,0.0,0.0,0.0,0.0,0.0,0.0,0.0,0.0,0.0,0.0,0.0,0.0,0.0,0.0,0.0,0.0,0.0,0.0,0.0,0.0,0.0,0.0,0.0,0.0,0.0,0.0,0.0,0.0,0.0,0.0,0.0,0.0,0.0,0.0,0.0,0.0,0.0,0.0,0.0,0.0,0.0,0.0,0.0,0.0,0.0,0.0,0.0,0.0,0.0,0.0,0.0,0.0,0.0,0.0,0.0,0.0,0.0,0.0,0.0,0.0,0.0,0.0,0.0,0.0,0.0,0.0,0.0,0.0,0.0,0.0,0.0,0.0,0.0,0.0,0.0,0.0,0.0,0.0,0.0,0.0,0.0,0.0,0.0,0.0,0.0,0.0,0.0,0.0,0.0,0.0,0.0,0.0,0.0,0.0,0.0,0.0,0.0,0.0,0.0,0.0,0.0,0.0,0.0,0.0,0.0,0.0,0.0,0.0,0.0,0.0,0.0,0.0,0.0,0.0,0.0,0.0,0.0,0.0,0.0,0.0,0.0,0.0,0.0,0.0,0.0,0.0,0.0,0.0,0.0,0.0,0.0,0.0,0.0,0.0,0.0,0.0,0.0,0.0,0.0,0.0,0.0,0.0,0.0,0.0,0.0,0.0,0.0,0.0,0.0,0.0,0.0,0.0,0.0,0.0,0.0,0.0,0.0,0.0,0.0,0.0,0.0,0.0,0.0,0.0,0.0,0.0,0.0,0.0,0.0,0.0,0.0,0.0,0.0,0.0,0.0,0.0,0.0,0.0,0.0,0.0,0.0,0.0,0.0,0.0,0.0,0.0,0.0,0.0,0.0,0.0,0.0,0.0,0.0,0.0,0.0,0.0,0.0,0.0,0.0,0.0,0.0,0.0,0.0,0.0,0.0,0.0,0.0,0.0,0.0,0.0,0.0,0.0,0.0,0.0,0.0,0.0,0.0,0.0,0.0,0.0,0.0,0.0,0.0,0.0,0.0,0.0,0.0,0.0,0.0,0.0,0.0,0.0,0.0,0.0,0.0,0.0,0.0,0.0,0.0,0.0,0.0,0.0,0.0,0.0,0.0,0.0,0.0,0.0,0.0,0.0,0.0,0.0,0.0,0.0,0.0,0.0,0.0,0.0,0.0,0.0,0.0,0.0,0.0,0.0,0.0,0.0,0.0,0.0,0.0,0.0,0.0,0.0,0.0,0.0,0.0,0.0,0.0,0.0,0.0,0.0,0.0,0.0,0.0,0.0,0.0,0.0,0.0,0.0,0.0,0.0,0.0,0.0,0.0,0.0,0.0,0.0,0.0,0.0,0.0,0.0,0.0,0.0,0.0,0.0,0.0,0.0,0.0,0.0,0.0,0.0,0.0,0.0,0.0,0.0,0.0,0.0,0.0,0.0,0.0,0.0,0.0,0.0,0.0,0.0,0.0,0.0,0.0,0.0,0.0,0.0,0.0,0.0,0.0,0.0,0.0,0.0,0.0,0.0,0.0,0.0,0.0,0.0,0.0,0.0,0.0,0.0,0.0,0.0,0.0,0.0,0.0,0.0,0.0,0.0,0.0,0.0,0.0,0.0,0.0,0.0,0.0,0.0,0.0,0.0,0.0,0.0,0.0,0.0,0.0,0.0,0.0,0.0,0.0,0.0,0.0,0.0,0.0,0.0,0.0,0.0,0.0,0.0,0.0,0.0,0.0,0.0,0.0,0.0,0.0,0.0,0.0,0.0,0.0,0.0,0.0,0.0,0.0,0.0,0.0,0.0,0.0,0.0,0.0,0.0,0.0,0.0,0.0,0.0,0.0,0.0,0.0,0.0,0.0,0.0,0.0,0.0,0.0,0.0,0.0,0.0,0.0,0.0,0.0,0.0,0.0,0.0,0.0,0.0,0.0,0.0,0.0,0.0,0.0,0.0,0.0,0.0,0.0,0.0,0.0,0.0,0.0,0.0,0.0,0.0,0.0,0.0,0.0,0.0,0.0,0.0,0.0,0.0,0.0,0.0,0.0,0.0,0.0,0.0,0.0,0.0,0.0,0.0,0.0,0.0,0.0,0.0,0.0,0.0,0.0,0.0,0.0,0.0,0.0,0.0,0.0,0.0,0.0,0.0,0.0,0.0,0.0,0.0,0.0,0.0,0.0,0.0,0.0,0.0,0.0,0.0,0.0,0.0,0.0,0.0,0.0,0.0,0.0,0.0,0.0,0.0,0.0,0.0,0.0,0.0,0.0,0.0,0.0,0.0,0.0,0.0,0.0,0.0,0.0,0.0,0.0,0.0,0.0,0.0,0.0,0.0,0.0,0.0,0.0,0.0,0.0,0.0,0.0,0.0,0.0,0.0,0.0,0.0,0.0,0.0,0.0,0.0,0.0,0.0,0.0,0.0,0.0,0.0,0.0,0.0,0.0,0.0,0.0,0.0,0.0,0.0,0.0,0.0,0.0,0.0,0.0,0.0,0.0,0.0,0.0,0.0,0.0,0.0,0.0,0.0,0.0,0.0,0.0,0.0,0.0,0.0,0.0,0.0,0.0,0.0,0.0,0.0,0.0,0.0,0.0,0.0,0.0,0.0,0.0,0.0,0.0,0.0,0.0,0.0,0.0,0.0,0.0,0.0,0.0,0.0,0.0,0.0,0.0,0.0,0.0,0.0,0.0,0.0,0.0,0.0,0.0,0.0,0.0,0.0,0.0,0.0,0.0,0.0,0.0,0.0,0.0,0.0,0.0,0.0,0.0,0.0,0.0,0.0,0.0,0.0,0.0,0.0,0.0,0.0,0.0,0.0,0.0,0.0,0.0,0.0,0.0,0.0,0.0,0.0,0.0,0.0,0.0,0.0,0.0,0.0,0.0,0.0,0.0,0.0,0.0,0.0,0.0,0.0,0.0,0.0,0.0,0.0,0.0,0.0,0.0,0.0,0.0,0.0,0.0,0.0,0.0,0.0,0.0,0.0,0.0,0.0,0.0,0.0,0.0,0.0,0.0,0.0,0.0,0.0,0.0,0.0,0.0,0.0,0.0,0.0,0.0,0.0,0.0,0.0,0.0,0.0,0.0,0.0,0.0,0.0,0.0,0.0,0.0,0.0,0.0,0.0,0.0,0.0,0.0,0.0,0.0,0.0,0.0,0.0,0.0,0.0,0.0,0.0,0.0,0.0,0.0,0.0,0.0,0.0,0.0,0.0,0.0,0.0,0.0,0.0,0.0,0.0,0.0,0.0,0.0,0.0,0.0,0.0,0.0,0.0,0.0,0.0,0.0,0.0,0.0,0.0,0.0,0.0,0.0,0.0,0.0,0.0,0.0,0.0,0.0,0.0,0.0,0.0,0.0,0.0,0.0,0.0,0.0,0.0,0.0,0.0,0.0,0.0,0.0,0.0,0.0,0.0,0.0,0.0,0.0,0.0,0.0,0.0,0.0,0.0,0.0,0.0,0.0,0.0,0.0,0.0,0.0,0.0,0.0,0.0,0.0,0.0,0.0,0.0,0.0,0.0,0.0,0.0,0.0,0.0,0.0,0.0,0.0,0.0,0.0,0.0,0.0,0.0,0.0,0.0,0.0,0.0,0.0,0.0,0.0,0.0,0.0,0.0,0.0,0.0,0.0,0.0,0.0,0.0,0.0,0.0,0.0,0.0,0.0,0.0,0.0,0.0,0.0,0.0,0.0,0.0,0.0,0.0,0.0,0.0,0.0,0.0,0.0,0.0,0.0,0.0,0.0,0.0,0.0,0.0,0.0,0.0,0.0,0.0,0.0,0.0,0.0,0.0,0.0,0.0,0.0,0.0,0.0,0.0,0.0,0.0,0.0,0.0,0.0,0.0,0.0,0.0,0.0,0.0,0.0,0.0,0.0,0.0,0.0,0.0,0.0,0.0,0.0,0.0,0.0,0.0,0.0,0.0,0.0,0.0,0.0,0.0,0.0,0.0,0.0,0.0,0.0,0.0,0.0,0.0,0.0,0.0,0.0,0.0,0.0,0.0,0.0,0.0,0.0,0.0,0.0,0.0,0.0,0.0,0.0,0.0,0.0,0.0,0.0,0.0,0.0,0.0,0.0,0.0,0.0,0.0,0.0,0.0,0.0,0.0,0.0,0.0,0.0,0.0,0.0,0.0,0.0,0.0,0.0,0.0,0.0,0.0,0.0,0.0,0.0,0.0,0.0,0.0,0.0,0.0,0.0,0.0,0.0,0.0,0.0,0.0,0.0,0.0,0.0,0.0,0.0,0.0,0.0,0.0,0.0,0.0,0.0,0.0,0.0,0.0,0.0,0.0,0.0,0.0,0.0,0.0,0.0,0.0,0.0,0.0,0.0,0.0,0.0,0.0,0.0,0.0,0.0,0.0,0.0,0.0,0.0,0.0,0.0,0.0,0.0,0.0,0.0,0.0,0.0,0.0,0.0,0.0,0.0,0.0,0.0,0.0,0.0,0.0,0.0,0.0,0.0,0.0,0.0,0.0,0.0,0.0,0.0,0.0,0.0,0.0,0.0,0.0,0.0,0.0,0.0,0.0,0.0,0.0,0.0,0.0,0.0,0.0,0.0,0.0,0.0,0.0,0.0,0.0,0.0,0.0,0.0,0.0,0.0,-4.5568,0.0,0.0,0.0,0.0,0.0,0.0,0.0,0.0,0.0,0.0,0.0,0.0,0.0,0.0,0.0,0.0,0.0,0.0,0.0,0.0,0.0,0.0,0.0,0.0,0.0,0.0,0.0,0.0,0.0,0.0,0.0,0.0,0.0,0.0,0.0,0.0,0.0,0.0,0.0,0.0,0.0,0.0,0.0,0.0,0.0,0.0,0.0,0.0,0.0,0.0,0.0,0.0,0.0,0.0,0.0,0.0,0.0,0.0,0.0,0.0,0.0,0.0,0.0,0.0,0.0,0.0,0.0,0.0,0.0,0.0,0.0,0.0,0.0,0.0,0.0,0.0,0.0,0.0,0.0,0.0,0.0,0.0,0.0,0.0,0.0,0.0,0.0,0.0,0.0,0.0,0.0,0.0,0.0,0.0,0.0,0.0,0.0,0.0,0.0,0.0,0.0,0.0,0.0,0.0,0.0,0.0,0.0,0.0,0.0,0.0,0.0,0.0,0.0,0.0,0.0,0.0,-4.6173,0.0,0.0,0.0,0.0,0.0,0.0,0.0,0.0,0.0,0.0,0.0,0.0,0.0,0.0,0.0,0.0,0.0,0.0,0.0,0.0,0.0,0.0,0.0,0.0,0.0,0.0,0.0,0.0,0.0,0.0,0.0,0.0,0.0,0.0,0.0,0.0,0.0,0.0,0.0,0.0,0.0,0.0,0.0,0.0,0.0,0.0,0.0,0.0,0.0,0.0,0.0,0.0,0.0,0.0,0.0,0.0,0.0,0.0,0.0,0.0,0.0,0.0,0.0,0.0,0.0,0.0,0.0,0.0,0.0,0.0,0.0,0.0,0.0,0.0,0.0,0.0,0.0,0.0,0.0,0.0,0.0,0.0,0.0,0.0,0.0,0.0,0.0,0.0,0.0,0.0,0.0,0.0,0.0,0.0,0.0,0.0,0.0,0.0,0.0,0.0,0.0,0.0,0.0,0.0,0.0,0.0,0.0,0.0,-5.0509,-5.1075,-5.019,-5.1177,-5.1614,-5.1454,-4.9522,-4.838,-4.79,0.0,0.0,0.0,0.0,0.0,0.0,0.0,0.0,0.0,0.0,0.0,0.0,0.0,0.0,0.0,0.0,0.0,0.0,0.0,0.0,0.0,0.0,0.0,0.0,0.0,0.0,0.0,0.0,0.0,0.0,0.0,0.0,0.0,0.0,0.0,0.0,0.0,0.0,0.0,0.0,0.0,0.0,0.0,0.0,0.0,0.0,0.0,0.0,0.0,0.0,0.0,0.0,0.0,0.0,0.0,0.0,0.0,0.0,0.0,0.0,0.0,0.0,0.0,0.0,0.0,0.0,0.0,0.0,0.0,0.0,0.0,0.0,0.0,0.0,0.0,0.0,0.0,0.0,0.0,0.0,0.0,0.0,0.0,0.0,0.0,0.0,0.0,-4.5888,-4.665,0.0,0.0,0.0,0.0,0.0,0.0,0.0,0.0,0.0,0.0,0.0,0.0,0.0,0.0,-5.1034,-5.1309,-5.1295,-5.1062,-5.1454,-5.1512,-5.141,-5.1512,-5.1614,-5.1614,-5.1237,0.0,-5.0904,-4.9823,0.0,0.0,0.0,0.0,0.0,0.0,0.0,0.0,0.0,0.0,0.0,0.0,0.0,0.0,0.0,0.0,0.0,0.0,0.0,0.0,0.0,0.0,0.0,0.0,0.0,0.0,0.0,0.0,0.0,0.0,0.0,0.0,0.0,0.0,0.0,0.0,0.0,0.0,0.0,0.0,0.0,0.0,0.0,0.0,0.0,0.0,0.0,0.0,0.0,0.0,0.0,0.0,0.0,0.0,0.0,0.0,0.0,0.0,0.0,0.0,0.0,0.0,0.0,0.0,0.0,0.0,0.0,0.0,0.0,0.0,0.0,0.0,0.0,0.0,0.0,0.0,0.0,0.0,0.0,0.0,0.0,0.0,0.0,0.0,0.0,-4.5792,-4.6505,-4.6795,-4.7143,-4.7462,0.0,0.0,0.0,0.0,0.0,0.0,0.0,0.0,0.0,-5.1207,-5.1468,-5.1614,-5.1614,-5.1962,-5.2165,-5.2165,-5.2514,-5.2688,-5.2688,-5.2688,-5.2688,-5.2688,-5.2688,-5.2688,-5.2526,-5.1362,-5.0841,-5.0841,0.0,0.0,0.0,0.0,-5.1614,-5.1672,0.0,0.0,0.0,0.0,0.0,0.0,0.0,0.0,0.0,0.0,0.0,0.0,0.0,0.0,0.0,-3.9697,0.0,0.0,0.0,0.0,0.0,0.0,0.0,0.0,0.0,0.0,0.0,0.0,0.0,0.0,0.0,0.0,0.0,0.0,0.0,0.0,0.0,0.0,0.0,0.0,0.0,0.0,0.0,0.0,0.0,0.0,0.0,0.0,0.0,0.0,0.0,0.0,0.0,0.0,0.0,0.0,0.0,0.0,0.0,0.0,0.0,0.0,0.0,0.0,0.0,0.0,0.0,0.0,0.0,0.0,0.0,0.0,0.0,0.0,0.0,0.0,0.0,-4.616,-4.7143,-4.7288,-4.7724,-4.8159,0.0,0.0,0.0,0.0,0.0,0.0,-5.0917,-5.1527,-5.1875,-5.1875,-5.202,-5.2107,-5.2107,-5.2572,-5.2804,-5.2833,-5.3297,-5.35,-5.35,-5.35,-5.35,-5.35,-5.35,-5.35,-5.3442,-5.2484,-5.2107,-5.2107,-5.2107,-5.2107,-5.2107,-5.2107,-5.2107,-5.2165,0.0,0.0,0.0,0.0,0.0,0.0,0.0,0.0,0.0,0.0,0.0,0.0,0.0,0.0,-3.9697,-3.9697,-3.9697,-3.9697,0.0,0.0,0.0,0.0,0.0,0.0,0.0,0.0,0.0,0.0,0.0,0.0,0.0,0.0,0.0,0.0,0.0,0.0,0.0,0.0,0.0,-3.9537,0.0,0.0,0.0,0.0,0.0,0.0,0.0,0.0,0.0,0.0,0.0,0.0,0.0,0.0,0.0,0.0,0.0,0.0,0.0,0.0,0.0,0.0,0.0,0.0,0.0,0.0,0.0,0.0,0.0,0.0,0.0,0.0,0.0,0.0,0.0,0.0,0.0,0.0,0.0,-4.8566,-4.8653,0.0,0.0,0.0,0.0,-5.1439,-5.1527,-5.1556,-5.1556,-5.2165,-5.2514,-5.2514,-5.3123,-5.3413,-5.3413,-5.3442,-5.3471,-5.3471,-5.35,-5.35,-5.35,-5.35,-5.35,-5.35,-5.35,-5.35,-5.35,-5.3442,-5.3413,-5.3413,-5.3413,-5.3413,-5.3413,-5.3413,-5.3413,-5.3413,0.0,0.0,0.0,0.0,0.0,0.0,0.0,0.0,0.0,0.0,0.0,0.0,0.0,-3.9697,-3.9697,-3.9697,-3.9697,-3.9697,-3.9697,0.0,0.0,0.0,0.0,0.0,0.0,0.0,0.0,0.0,0.0,0.0,0.0,0.0,0.0,0.0,0.0,0.0,0.0,0.0,0.0,-3.9609,-3.9609,-3.9489,0.0,0.0,0.0,0.0,0.0,0.0,0.0,0.0,0.0,0.0,0.0,0.0,0.0,0.0,0.0,0.0,0.0,0.0,0.0,0.0,0.0,0.0,0.0,0.0,0.0,0.0,0.0,0.0,0.0,0.0,0.0,0.0,0.0,0.0,0.0,0.0,0.0,-4.9262,-4.9727,0.0,-5.1207,-5.1294,-5.1381,-5.1585,-5.1991,-5.2223,-5.2223,-5.2833,-5.3181,-5.3181,-5.3384,-5.3733,-5.4168,-5.4168,-5.4342,-5.472,-5.472,-5.472,-5.472,-5.472,-5.472,-5.472,-5.472,-5.472,-5.472,-5.472,-5.4255,-5.35,-5.35,-5.35,-5.35,-5.35,-5.35,-5.35,0.0,0.0,0.0,0.0,0.0,0.0,0.0,0.0,0.0,0.0,0.0,-4.1246,-3.9878,-3.9697,-3.9697,-3.9697,-3.9697,-3.9772,-3.9948,0.0,0.0,0.0,0.0,0.0,0.0,0.0,0.0,0.0,0.0,0.0,0.0,0.0,0.0,0.0,0.0,0.0,0.0,0.0,-4.0138,-4.0138,-4.0138,-4.0042,-3.9874,0.0,0.0,0.0,0.0,0.0,0.0,0.0,0.0,0.0,0.0,0.0,0.0,0.0,0.0,0.0,0.0,0.0,0.0,0.0,0.0,0.0,0.0,0.0,0.0,0.0,0.0,0.0,0.0,0.0,0.0,0.0,0.0,0.0,0.0,0.0,-4.9611,-5.0249,-5.0714,-5.1236,-5.1875,-5.1933,-5.202,-5.2252,-5.2659,-5.2891,-5.2891,-5.35,-5.3849,-5.3849,-5.4052,-5.4371,-5.4807,-5.4807,-5.501,-5.5416,-5.5416,-5.5416,-5.5416,-5.5416,-5.5416,-5.5416,-5.5416,-5.5416,-5.5416,-5.5649,-5.5242,-5.4458,-5.4226,-5.4139,-5.4139,-5.4139,-5.4139,-5.4139,0.0,0.0,0.0,0.0,0.0,0.0,0.0,0.0,0.0,0.0,-4.2792,-4.2012,-3.9981,-3.98,-3.98,-3.98,-3.9697,-3.9923,-4.0475,-4.0526,0.0,0.0,0.0,0.0,0.0,0.0,0.0,0.0,0.0,0.0,0.0,0.0,0.0,0.0,0.0,0.0,0.0,0.0,-4.1196,-4.1196,-4.1196,-4.0884,-4.0427,0.0,0.0,0.0,0.0,0.0,0.0,0.0,0.0,0.0,0.0,0.0,0.0,0.0,0.0,0.0,0.0,0.0,0.0,0.0,0.0,0.0,0.0,0.0,0.0,0.0,0.0,0.0,0.0,0.0,0.0,0.0,0.0,0.0,-4.9843,-5.0307,-5.0946,-5.1585,-5.1643,-5.1904,-5.2543,-5.2601,-5.2862,-5.35,-5.3559,-5.3559,-5.3559,-5.4197,-5.4546,-5.4546,-5.5097,-5.5416,-5.5474,-5.5474,-5.5503,-5.5562,-5.5562,-5.5562,-5.5562,-5.5562,-5.5562,-5.5533,-5.5562,-5.5562,-5.562,-5.6287,-5.6549,-5.649,-5.5765,-5.5474,-5.5474,-5.5445,-5.5416,-5.5416,0.0,0.0,0.0,0.0,0.0,0.0,0.0,0.0,0.0,0.0,-4.2792,-4.2306,-4.0945,-4.0743,-4.0743,-4.0743,-4.0083,-4.0311,-4.1672,0.0,0.0,0.0,0.0,0.0,0.0,0.0,0.0,0.0,0.0,0.0,0.0,0.0,0.0,0.0,0.0,0.0,0.0,-4.1918,-4.1749,-4.1725,-4.1341,-4.11,-4.098,0.0,0.0,0.0,0.0,0.0,0.0,0.0,0.0,0.0,0.0,0.0,0.0,0.0,0.0,0.0,0.0,0.0,0.0,0.0,0.0,0.0,0.0,0.0,0.0,0.0,0.0,0.0,0.0,0.0,0.0,0.0,0.0,-5.1149,-5.0511,-5.0946,-5.1585,-5.2223,-5.231,-5.2572,-5.3181,-5.3239,-5.353,-5.4197,-5.4226,-5.4429,-5.4865,-5.5068,-5.5155,-5.5155,-5.5329,-5.5852,-5.6781,-5.6781,-5.7507,-5.8871,-5.8871,-5.8871,-5.8871,-5.8871,-5.8639,-5.8261,-5.8697,-5.8871,-5.8929,-5.9597,-5.9887,-5.9684,-5.7594,-5.6781,-5.6723,-5.6287,-5.5823,-5.5416,0.0,0.0,0.0,0.0,0.0,0.0,0.0,0.0,0.0,0.0,-4.3177,-4.2889,-4.1319,-4.1219,-4.1324,-4.1559,-4.1029,-4.1183,-4.2162,0.0,0.0,0.0,0.0,0.0,0.0,0.0,0.0,0.0,0.0,0.0,0.0,0.0,0.0,0.0,0.0,0.0,-4.2735,-4.2423,-4.2303,-4.2279,-4.1966,-4.1581,-4.1172,-4.1172,-4.1004,-4.0715,-4.0829,-4.0636,-4.0347,-4.055,0.0,0.0,0.0,0.0,0.0,0.0,0.0,0.0,0.0,0.0,0.0,0.0,0.0,0.0,0.0,0.0,0.0,0.0,0.0,0.0,0.0,0.0,0.0,0.0,-5.1614,-5.1904,-5.1527,-5.1788,-5.2252,-5.2891,-5.2978,-5.321,-5.3878,-5.3936,-5.4197,-5.4836,-5.4894,-5.5039,-5.5387,-5.591,-5.62,-5.62,-5.6752,-5.739,-5.8145,-5.8145,-5.8697,-5.9829,-5.9829,-5.9829,-5.9829,-5.9829,-5.9626,0.0,-5.9945,-6.0206,-6.0264,-6.1193,-6.1571,0.0,0.0,0.0,0.0,0.0,-5.7739,-5.739,0.0,0.0,0.0,0.0,0.0,0.0,0.0,0.0,0.0,0.0,0.0,-4.3531,-4.1617,-4.1471,-4.1734,-4.2259,-4.2262,-4.2372,0.0,0.0,0.0,0.0,0.0,0.0,0.0,0.0,0.0,0.0,0.0,0.0,0.0,0.0,0.0,0.0,0.0,-4.2952,-4.2928,-4.288,-4.2856,-4.2832,-4.2784,-4.2206,-4.1365,-4.1293,-4.1268,-4.1268,-4.1516,-4.1402,-4.1215,-4.0959,0.0,0.0,0.0,0.0,0.0,0.0,0.0,0.0,0.0,0.0,0.0,0.0,0.0,0.0,0.0,0.0,0.0,0.0,0.0,0.0,0.0,0.0,0.0,0.0,-5.2252,-5.2688,-5.2688,-5.2746,-5.2978,-5.3442,-5.3588,-5.3849,-5.4458,-5.4575,-5.4865,-5.5474,-5.5591,-5.5649,-5.5736,0.0,0.0,0.0,0.0,-5.9335,-5.9393,-5.9393,-5.951,-5.9742,-5.9742,-5.9771,-5.9829,-5.9829,-5.98,-5.9771,-6.038,-6.0642,-6.0729,-6.1919,-6.2412,-6.2354,-6.1687,-6.1367,-6.1222,-6.0642,-6.038,-6.0235,0.0,0.0,0.0,0.0,0.0,0.0,0.0,0.0,0.0,-4.2985,-4.3654,-4.3843,-4.2598,-4.2932,-4.3157,-4.3264,-4.3012,-4.3049,0.0,0.0,0.0,0.0,0.0,0.0,0.0,0.0,0.0,0.0,0.0,0.0,0.0,0.0,0.0,0.0,-4.4034,-4.4034,-4.401,-4.3553,-4.3361,-4.3337,-4.2928,-4.2639,-4.2399,-4.199,-4.1822,-4.1774,-4.1456,-4.1287,-4.1287,-4.1371,-4.146,-4.155,-4.1903,0.0,0.0,0.0,0.0,0.0,0.0,0.0,0.0,0.0,0.0,0.0,0.0,0.0,0.0,0.0,0.0,0.0,0.0,0.0,0.0,-5.2368,-5.292,-5.3326,-5.3326,-5.3791,-5.3994,-5.3559,-5.3994,-5.4371,-5.4517,-5.4952,-5.5503,-5.6171,-5.6665,-5.7158,-5.771,-5.8493,0.0,-5.89,-5.9161,-5.9539,-6.0032,-6.0032,-6.0816,-6.2354,0.0,0.0,-6.3109,-6.3109,-6.2848,-6.2383,-6.3022,-6.3283,-6.3341,-6.4125,-6.4415,-6.4328,-6.3167,-6.2383,-6.189,-6.1774,-6.1425,-6.099,0.0,0.0,0.0,0.0,0.0,0.0,0.0,0.0,0.0,0.0,-4.4434,-4.4826,-4.4097,-4.4305,-4.4719,-4.5327,-4.438,0.0,0.0,0.0,0.0,0.0,0.0,0.0,0.0,0.0,0.0,0.0,0.0,0.0,0.0,0.0,0.0,-4.4594,-4.4347,-4.4347,-4.4323,-4.4058,-4.3938,-4.3914,-4.3649,-4.3553,-4.3481,-4.2663,-4.2375,-4.2327,-4.2062,-4.1798,-4.1581,-4.1789,-4.1619,-4.1516,-4.1948,-4.2174,-4.2312,0.0,0.0,0.0,0.0,0.0,0.0,0.0,0.0,0.0,0.0,0.0,0.0,0.0,0.0,-5.0431,0.0,0.0,-5.3036,-5.3036,-5.3588,-5.4023,-5.4023,-5.4575,-5.472,-5.4081,-5.4575,-5.5097,-5.5416,-5.5997,-5.6636,-5.7303,-5.7942,-5.8464,-5.8784,-5.9393,-5.9742,-5.9742,-6.009,-6.0526,-6.1135,-6.1135,-6.1803,-6.308,-6.308,-6.3254,-6.3574,-6.3574,-6.3399,-6.3138,-6.3777,-6.4038,-6.4096,-6.4735,-6.4996,-6.4938,-6.4299,-6.3835,-6.3516,-6.3167,-6.2877,-6.2587,0.0,0.0,0.0,0.0,0.0,0.0,0.0,0.0,0.0,0.0,0.0,-4.5734,-4.5307,-4.538,-4.5942,0.0,0.0,0.0,0.0,0.0,0.0,0.0,0.0,0.0,0.0,0.0,0.0,0.0,0.0,0.0,0.0,0.0,-4.484,-4.484,-4.447,-4.4347,-4.4347,-4.4347,-4.4347,-4.4347,-4.4347,-4.4347,-4.4251,-4.3385,-4.3,-4.2904,-4.2808,-4.2495,-4.2134,-4.2228,-4.1962,-4.1601,-4.2037,-4.2291,-4.2519,-4.2836,-4.3062,0.0,0.0,0.0,0.0,0.0,0.0,0.0,0.0,0.0,-4.7642,-4.8871,-5.0337,-5.1428,-5.1428,-5.2492,-5.3559,-5.3675,-5.4168,-5.4546,-5.4662,-5.5213,-5.5474,-5.5097,-5.5387,-5.5852,-5.652,-5.7129,-5.7768,-5.8435,-5.9103,-5.948,-5.948,-6.0061,-6.0438,-6.0555,-6.1077,-6.1658,-6.2296,-6.2296,-6.2616,-6.3283,-6.3283,-6.3341,-6.3457,-6.3457,-6.3457,-6.3486,-6.4009,-6.4212,-6.427,-6.4764,-6.4996,-6.4996,-6.4996,-6.4996,-6.4909,-6.4415,-6.4212,-6.4154,0.0,0.0,0.0,0.0,0.0,0.0,0.0,0.0,0.0,0.0,0.0,0.0,0.0,0.0,0.0,0.0,0.0,0.0,0.0,0.0,0.0,0.0,0.0,0.0,0.0,0.0,0.0,0.0,0.0,0.0,-4.5331,-4.4963,-4.484,-4.484,-4.4717,-4.4594,-4.4347,-4.4347,-4.4347,-4.4347,-4.4347,-4.4347,-4.4323,-4.4227,-4.3866,-4.3361,-4.2928,-4.2711,-4.2782,-4.2996,-4.3065,-4.3135,-4.377,-4.3887,-4.4004,-4.4327,0.0,-4.4443,-4.4443,-4.5195,0.0,-4.6039,-4.7096,-4.8355,0.0,0.0,-5.0719,-5.1908,-5.274,-5.3203,-5.3203,-5.3366,-5.3704,-5.4313,-5.4458,-5.4691,-5.5242,-5.5881,-5.6461,-5.6926,-5.6578,-5.6549,-5.7158,-5.7797,-5.8464,-5.9132,-5.9742,-6.009,-6.009,-6.0729,-6.1338,-6.1861,-6.1948,-6.2325,-6.2964,-6.2993,-6.3283,-6.3922,-6.3922,-6.4241,-6.4764,-6.4764,-6.4764,-6.4764,-6.4851,-6.488,-6.488,-6.4967,-6.4996,-6.4996,-6.4996,-6.4996,-6.4967,-6.4909,-6.488,-6.488,0.0,0.0,0.0,0.0,0.0,0.0,0.0,0.0,0.0,0.0,0.0,0.0,0.0,0.0,0.0,0.0,0.0,0.0,0.0,0.0,0.0,0.0,0.0,0.0,0.0,0.0,0.0,0.0,-4.5696,-4.5696,-4.5817,-4.5331,-4.5208,-4.5331,-4.5208,-4.4963,-4.4594,-4.4594,-4.447,-4.4347,-4.4347,-4.4347,-4.4347,-4.4347,-4.4202,-4.3962,-4.3746,-4.3481,0.0,0.0,-4.3335,-4.333,-4.3708,-4.406,-4.4294,-4.4502,-4.4618,0.0,-4.5514,0.0,0.0,0.0,-4.9118,-5.0376,-5.0808,-5.114,-5.1661,-5.2885,-5.3326,-5.3646,-5.4023,-5.4081,-5.4313,0.0,-5.5358,-5.5707,-5.5968,-5.6868,-5.7594,-5.7855,-5.8,-5.8203,-5.8435,-5.9045,-5.951,-5.98,-6.0409,-6.0932,-6.128,-6.1571,-6.2006,-6.2645,-6.2674,-6.2993,-6.3632,-6.3632,-6.3951,-6.459,-6.459,-6.4735,-6.4996,-6.4996,-6.4996,-6.4996,-6.4996,-6.4996,-6.4996,-6.4996,-6.4996,-6.4996,-6.4996,-6.4996,-6.4996,-6.4996,-6.4996,-6.4996,0.0,0.0,0.0,0.0,0.0,0.0,0.0,0.0,0.0,0.0,0.0,0.0,0.0,0.0,0.0,0.0,0.0,0.0,0.0,0.0,0.0,0.0,0.0,0.0,0.0,0.0,0.0,-4.6755,-4.618,-4.5939,-4.6301,-4.5696,-4.5574,-4.5817,-4.5574,-4.5208,-4.484,-4.4963,-4.4717,-4.4347,-4.4347,-4.4347,-4.4347,-4.4347,-4.447,-4.447,-4.447,-4.4205,0.0,0.0,-4.4085,-4.4007,-4.4269,-4.465,-4.4886,-4.4978,-4.5095,-4.5304,-4.6524,0.0,0.0,-4.9721,-5.1039,-5.2136,-5.2136,-5.2136,-5.2544,-5.3521,-5.3791,-5.3994,-5.4633,-5.4749,-5.4952,-5.5591,-5.6229,-5.6723,-5.6897,-5.7884,-5.8639,-5.8813,-5.9248,-5.9626,-5.98,-6.0061,-6.0264,-6.0467,-6.1077,-6.1629,-6.2064,-6.2267,-6.2674,-6.3341,-6.3341,-6.3661,-6.4299,-6.4299,-6.4532,-6.4996,-6.517,-6.5257,-6.5257,-6.5431,-6.5519,-6.5519,-6.5519,-6.5519,-6.5519,-6.5519,-6.5519,-6.5519,-6.5519,-6.5519,-6.5519,-6.5519,-6.5286,-6.4996,0.0,0.0,0.0,0.0,0.0,0.0,0.0,0.0,0.0,0.0,0.0,0.0,0.0,0.0,0.0,0.0,0.0,0.0,0.0,0.0,0.0,0.0,0.0,0.0,0.0,-4.8647,-4.8094,-4.8094,-4.6491,-4.5939,-4.6301,-4.5939,-4.5817,-4.5817,-4.5817,-4.5453,-4.484,-4.5208,-4.4963,-4.4347,-4.4594,-4.4594,-4.4347,-4.4717,-4.484,-4.484,-4.484,0.0,0.0,0.0,-4.5793,-4.5768,-4.613,-4.625,0.0,-4.625,-4.625,0.0,0.0,0.0,-5.0099,-5.1319,-5.2594,-5.3395,-5.3395,-5.3395,-5.3598,-5.4342,-5.4487,-5.4662,-5.5271,-5.5387,-5.5591,-5.6258,-5.6868,-5.7507,-5.8145,-5.8842,-5.948,-6.0061,-6.0148,-6.0438,0.0,-6.0555,-6.0467,-6.1106,-6.1716,-6.2064,-6.2093,-6.2703,-6.3341,-6.398,-6.4009,-6.4299,-6.4938,-6.4967,-6.4967,-6.4996,-6.5606,-6.5896,-6.5925,-6.6535,-6.6825,-6.6825,-6.6825,-6.6825,-6.6825,-6.6825,-6.6825,-6.6825,-6.6825,-6.6825,-6.6825,-6.6825,-6.6041,-6.4996,0.0,0.0,0.0,0.0,0.0,0.0,0.0,0.0,0.0,0.0,0.0,0.0,0.0,0.0,0.0,0.0,0.0,0.0,0.0,0.0,0.0,0.0,0.0,0.0,-4.8647,-4.7534,-4.6874,-4.6874,-4.6942,-4.673,-4.6301,-4.6849,-4.661,-4.5817,-4.6059,-4.5817,-4.5086,-4.5208,-4.5086,-4.4594,-4.447,-4.4347,-4.4347,-4.4717,-4.484,-4.484,0.0,0.0,0.0,0.0,0.0,0.0,-4.5939,0.0,0.0,-4.6301,0.0,0.0,0.0,0.0,-5.035,-5.238,-5.3501,-5.4168,-5.4168,-5.4487,-5.4836,-5.5068,-5.5097,-5.53,-5.5939,-5.6403,-5.6897,-5.7565,-5.8203,-5.8726,-5.8929,-5.951,-5.9974,-6.0177,-6.0584,0.0,0.0,0.0,0.0,-6.1774,-6.2383,-6.2935,-6.337,-6.3603,-6.4009,-6.4648,-6.5083,-6.5402,-6.5606,-6.6041,-6.6244,-6.6244,-6.6447,-6.6564,-6.6564,-6.6796,-6.6883,-6.6883,-6.6883,-6.6883,-6.6883,-6.6883,-6.6883,-6.6883,-6.6883,-6.6883,-6.6883,-6.6883,-6.6622,-6.6244,0.0,0.0,0.0,0.0,0.0,0.0,0.0,0.0,0.0,0.0,0.0,0.0,0.0,0.0,0.0,0.0,0.0,0.0,0.0,0.0,0.0,0.0,0.0,-5.0014,-5.0014,-4.8904,-4.821,-4.821,-4.7977,-4.7508,-4.6968,-4.7508,-4.7061,-4.5817,-4.6516,-4.6155,-4.5086,-4.5208,-4.5086,-4.484,-4.5159,-4.5257,-4.5379,-4.62,-4.6225,0.0,0.0,0.0,0.0,0.0,0.0,0.0,0.0,0.0,0.0,0.0,0.0,0.0,0.0,-5.0738,-5.1377,-5.3424,-5.4342,-5.4836,-5.4836,-5.5126,-5.5474,-5.5707,-5.5765,-5.6026,-5.6926,-5.739,-5.7884,-5.8552,-5.919,-5.9626,-5.9626,-6.0148,-6.0555,-6.0555,-6.1135,-6.1658,0.0,0.0,0.0,-6.247,-6.3051,-6.3603,-6.4009,-6.4241,-6.4677,-6.5315,-6.5722,-6.6041,-6.6273,-6.668,-6.6999,-6.7231,-6.7231,-6.7347,-6.758,-6.758,-6.758,-6.758,-6.758,-6.758,-6.7609,-6.7812,-6.7928,-6.7928,-6.816,-6.8247,-6.8247,-6.8247,-6.8247,-6.8131,0.0,0.0,0.0,0.0,0.0,0.0,0.0,0.0,0.0,0.0,0.0,0.0,0.0,0.0,0.0,0.0,0.0,0.0,0.0,0.0,0.0,0.0,-5.27,-5.3366,-5.3395,-5.2272,-5.1565,-5.1565,-4.9335,-4.821,-4.821,-4.821,-4.7416,-4.6035,-4.7154,-4.6679,-4.5061,-4.5306,-4.5306,-4.5061,-4.6534,-4.7103,-4.7221,-4.8736,0.0,0.0,0.0,0.0,0.0,0.0,0.0,0.0,0.0,0.0,0.0,0.0,0.0,-5.0181,-5.1402,-5.2208,-5.3046,-5.4223,-5.501,-5.5474,-5.5474,-5.5474,-5.5678,-5.6316,-5.649,-5.6868,0.0,0.0,-5.861,-5.9248,-5.9858,-6.0264,-6.0264,-6.0816,-6.1251,0.0,0.0,0.0,0.0,0.0,0.0,-6.3225,0.0,-6.4096,-6.4125,-6.4706,-6.5315,-6.5954,-6.6012,-6.6331,-6.6912,-6.697,-6.7289,-6.7928,-6.7928,-6.8247,-6.8886,-6.8886,-6.8886,-6.8915,-6.8915,-6.8915,-6.8973,-6.9583,-6.9815,-6.9873,-7.0482,-7.0715,-7.0715,-7.0715,-7.0715,-7.0366,0.0,0.0,0.0,0.0,0.0,0.0,0.0,0.0,0.0,0.0,0.0,0.0,0.0,0.0,0.0,0.0,0.0,0.0,0.0,0.0,0.0,0.0,0.0,0.0,0.0,0.0,0.0,0.0,0.0,-5.035,-4.9448,-5.035,-4.9987,-4.8532,-4.9106,-4.8877,-4.8274,-4.8274,-4.8068,-4.76,0.0,-4.7626,-4.7298,-4.7886,0.0,0.0,0.0,0.0,0.0,0.0,0.0,0.0,0.0,0.0,-4.8326,0.0,0.0,-5.0921,-5.2184,-5.2854,-5.3668,-5.4829,-5.5678,-5.6142,-5.6142,-5.649,-5.6868,-5.7042,-5.7477,-5.7913,0.0,0.0,0.0,-5.9945,-6.0526,0.0,-6.0932,-6.1483,0.0,-6.1861,0.0,-6.3022,-6.3486,-6.3835,0.0,0.0,-6.4648,-6.4938,-6.5431,-6.5606,-6.5983,-6.6622,-6.7115,-6.7463,-6.7638,-6.8102,-6.8421,-6.8596,-6.8596,-6.8915,-6.9525,-6.9525,-6.9786,-7.025,-7.025,-7.025,-7.025,-7.0424,-7.0482,-7.0512,-7.0657,-7.0715,-7.0715,-7.0715,-7.0715,-7.0628,0.0,0.0,0.0,0.0,0.0,0.0,0.0,0.0,0.0,0.0,0.0,0.0,0.0,0.0,0.0,0.0,0.0,0.0,0.0,0.0,0.0,0.0,0.0,0.0,0.0,0.0,0.0,0.0,0.0,0.0,0.0,-5.1347,-5.0906,-4.9422,-5.0099,-4.9987,-4.9167,-4.9167,0.0,0.0,0.0,0.0,0.0,0.0,0.0,0.0,0.0,0.0,0.0,0.0,0.0,-4.812,-4.9335,-4.9648,-4.9956,-5.1488,0.0,-5.2714,-5.366,-5.4312,-5.502,-5.5603,-5.6316,-5.681,-5.681,-5.7071,-5.7303,-5.7303,-5.7826,0.0,-5.8697,0.0,0.0,0.0,0.0,0.0,-6.1193,-6.1716,-6.2093,0.0,-6.2935,0.0,-6.4009,-6.4532,-6.5025,0.0,-6.5402,-6.5548,-6.5896,-6.6186,-6.6651,-6.7289,-6.7696,-6.8015,-6.8276,-6.8654,-6.8828,-6.8828,-6.9118,-6.9437,-6.9786,-7.0047,-7.0395,-7.0715,0.0,-7.0715,-7.0744,-7.1034,-7.115,-7.1179,-7.144,-7.1557,-7.1557,-7.1557,-7.1557,-7.1557,0.0,0.0,0.0,0.0,0.0,0.0,0.0,0.0,0.0,0.0,0.0,0.0,0.0,0.0,0.0,0.0,0.0,0.0,0.0,0.0,0.0,0.0,0.0,0.0,0.0,0.0,0.0,0.0,0.0,0.0,0.0,0.0,0.0,0.0,0.0,0.0,0.0,0.0,0.0,0.0,0.0,0.0,0.0,0.0,0.0,0.0,0.0,0.0,0.0,0.0,-5.1017,-5.0126,-5.1347,-5.1674,-5.2033,-5.3963,-5.4575,-5.4778,-5.5387,-5.6026,-5.652,-5.652,-5.6926,-5.7303,-5.7303,-5.7303,-5.7332,-5.7419,0.0,-5.8639,-5.9306,-5.9916,-6.0526,-6.1106,0.0,-6.1222,-6.1309,-6.1832,-6.2267,-6.2325,-6.3428,-6.4183,-6.427,-6.5286,-6.5954,-6.6041,-6.6128,-6.6186,-6.6186,-6.6709,-6.7318,-6.7986,-6.8015,-6.8276,-6.8828,-6.8915,-6.8944,-6.8944,-6.9583,-6.996,-7.0047,-7.0599,-7.0889,-7.0976,0.0,0.0,-7.1005,-7.1557,-7.1789,-7.1847,-7.2398,-7.2602,-7.2602,-7.2602,-7.2602,-7.2631,0.0,0.0,0.0,0.0,0.0,0.0,0.0,0.0,0.0,0.0,0.0,0.0,0.0,0.0,0.0,0.0,0.0,0.0,0.0,0.0,0.0,0.0,0.0,0.0,0.0,0.0,0.0,0.0,0.0,0.0,0.0,0.0,0.0,0.0,0.0,0.0,0.0,0.0,0.0,0.0,0.0,0.0,0.0,0.0,0.0,0.0,0.0,0.0,0.0,0.0,-5.1702,-5.0126,-5.1347,-5.1674,-5.2033,-5.3963,-5.4865,-5.5387,-5.6055,-5.6694,-5.7158,-5.7158,-5.7216,-5.7303,-5.7303,-5.7303,0.0,0.0,-5.8668,-5.9306,-5.9916,-6.0584,-6.1048,-6.1164,0.0,0.0,0.0,0.0,-6.3109,0.0,0.0,0.0,0.0,0.0,0.0,0.0,0.0,-6.7551,-6.7551,-6.7638,-6.8015,-6.8625,-6.8654,-6.8712,-6.8828,-6.935,-6.9612,-6.9612,-7.025,-7.0831,-7.1353,-7.144,-7.1789,-7.2282,-7.2282,0.0,-7.2282,-7.2398,-7.2456,-7.2456,-7.2573,-7.2602,-7.2602,-7.2602,-7.2602,-7.2689,0.0,0.0,0.0,0.0,0.0,0.0,0.0,0.0,0.0,0.0,0.0,0.0,0.0,0.0,0.0,0.0,0.0,0.0,0.0,0.0,0.0,0.0,0.0,0.0,0.0,0.0,0.0,0.0,0.0,0.0,0.0,0.0,0.0,0.0,0.0,0.0,0.0,0.0,0.0,0.0,0.0,0.0,0.0,0.0,0.0,0.0,0.0,0.0,0.0,0.0,-5.2516,-5.1484,-5.238,-5.2594,-5.2902,-5.4475,-5.5184,-5.562,-5.6607,-5.7071,-5.7303,-5.7303,-5.7303,-5.7303,-5.7303,0.0,0.0,0.0,-5.9074,-5.9858,-6.0148,0.0,0.0,0.0,0.0,0.0,0.0,0.0,0.0,0.0,0.0,0.0,0.0,0.0,0.0,0.0,0.0,-6.8218,-6.7899,-6.8189,-6.8509,-6.8828,-6.8828,-6.8973,-6.9321,-6.9612,-6.9931,-7.0279,-7.0918,-7.1382,-7.1673,-7.2021,-7.234,-7.2602,-7.2602,0.0,-7.2602,-7.2602,-7.2834,-7.3124,-7.3124,-7.3327,-7.3589,-7.3589,-7.3589,-7.3647,0.0,0.0,0.0,0.0,0.0,0.0,0.0,0.0,0.0,0.0,0.0,0.0,0.0,0.0,0.0,0.0,0.0,0.0,0.0,0.0,0.0,0.0,0.0,0.0,0.0,0.0,0.0,0.0,0.0,0.0,0.0,0.0,0.0,0.0,0.0,0.0,0.0,0.0,0.0,0.0,0.0,0.0,0.0,0.0,0.0,0.0,0.0,0.0,0.0,0.0,-5.2865,-5.2759,-5.3184,-5.329,-5.355,-5.5039,-5.5416,-5.5678,-5.6955,-5.7303,-5.7303,-5.7191,-5.7191,-5.7332,-5.7364,-5.7799,0.0,-5.8408,-5.9246,-5.9998,-6.0143,0.0,-6.0831,0.0,0.0,0.0,0.0,0.0,0.0,0.0,0.0,0.0,0.0,0.0,0.0,0.0,0.0,0.0,-6.8102,-6.8567,-6.8886,-6.9031,-6.9031,-6.935,-6.9989,-7.0105,-7.0424,-7.0918,-7.1557,-7.1876,-7.1905,-7.2398,-7.2602,-7.2631,-7.2776,0.0,0.0,-7.2979,-7.3327,-7.3792,-7.3792,-7.4082,-7.4518,-7.4518,-7.4518,-7.4518,0.0,0.0,0.0,0.0,0.0,0.0,0.0,0.0,0.0,0.0,0.0,0.0,0.0,0.0,0.0,0.0,0.0,0.0,0.0,0.0,0.0,0.0,0.0,0.0,0.0,0.0,0.0,0.0,0.0,0.0,0.0,0.0,0.0,0.0,0.0,0.0,0.0,0.0,0.0,0.0,0.0,0.0,0.0,0.0,0.0,0.0,0.0,0.0,0.0,0.0,0.0,-5.268,-5.2787,-5.2759,-5.3095,-5.4931,0.0,0.0,-5.6955,-5.7303,-5.7191,-5.6623,-5.6851,-5.7364,-5.7397,0.0,-5.8523,-5.9033,-5.9257,-5.9514,-6.0116,-5.9768,0.0,0.0,0.0,-6.0962,0.0,0.0,0.0,0.0,0.0,0.0,0.0,0.0,0.0,0.0,0.0,0.0,-6.8741,-6.8799,-6.9089,-6.967,-6.9699,-6.9989,-7.0628,-7.1208,-7.1528,-7.1586,-7.2224,-7.2544,-7.2544,-7.2573,-7.2602,-7.266,-7.3269,0.0,0.0,-7.4111,-7.4372,-7.443,-7.443,-7.4459,-7.4518,-7.4547,-7.4547,-7.4605,0.0,0.0,0.0,0.0,0.0,0.0,0.0,0.0,0.0,0.0,0.0,0.0,0.0,0.0,0.0,0.0,0.0,0.0,0.0,0.0,0.0,0.0,0.0,0.0,0.0,0.0,0.0,0.0,0.0,0.0,0.0,0.0,0.0,0.0,0.0,0.0,0.0,0.0,0.0,0.0,0.0,0.0,0.0,0.0,0.0,0.0,0.0,0.0,0.0,0.0,0.0,0.0,-5.2113,-5.1896,0.0,0.0,-5.5089,-5.5568,-5.6505,-5.6964,-5.7191,-5.6509,-5.6623,-5.6795,-5.6755,0.0,-5.8401,-5.854,-5.9265,-5.9879,-6.0137,-5.9673,-5.9673,0.0,0.0,0.0,-6.2782,0.0,0.0,0.0,0.0,0.0,0.0,0.0,0.0,0.0,0.0,0.0,-6.9379,-6.9408,-6.9525,-6.9757,-7.0134,-7.0657,-7.1295,-7.1557,-7.1847,-7.2224,-7.2485,-7.2834,-7.3211,-7.3211,-7.3414,-7.3763,-7.4053,0.0,0.0,-7.4401,-7.475,-7.5098,-7.5098,-7.5359,-7.5679,-7.5708,-7.5708,-7.5708,0.0,0.0,0.0,0.0,0.0,0.0,0.0,0.0,0.0,0.0,0.0,0.0,0.0,0.0,0.0,0.0,0.0,0.0,0.0,0.0,0.0,0.0,0.0,0.0,0.0,0.0,0.0,0.0,0.0,0.0,0.0,0.0,0.0,0.0,0.0,0.0,0.0,0.0,0.0,0.0,0.0,0.0,0.0,0.0,0.0,0.0,0.0,0.0,0.0,0.0,0.0,0.0,0.0,0.0,0.0,0.0,-5.4505,-5.532,-5.5709,-5.6593,-5.7078,-5.6049,-5.6164,-5.6392,0.0,0.0,-5.827,-5.8239,-5.9115,-5.9797,-5.9673,-5.9052,-5.9052,0.0,0.0,-6.0574,-6.2811,-6.313,0.0,0.0,0.0,0.0,0.0,0.0,0.0,0.0,0.0,0.0,0.0,-7.0134,-7.0337,-7.0337,-7.0773,-7.1295,-7.1934,-7.1963,-7.2166,-7.2602,-7.2805,-7.3153,-7.3618,-7.3792,-7.4111,-7.4518,0.0,0.0,0.0,-7.5011,-7.5359,-7.5795,-7.5795,-7.6056,-7.6462,-7.6462,-7.6462,-7.6462,0.0,0.0,0.0,0.0,0.0,0.0,0.0,0.0,0.0,0.0,0.0,0.0,0.0,0.0,0.0,0.0,0.0,0.0,0.0,0.0,0.0,0.0,0.0,0.0,0.0,0.0,0.0,0.0,0.0,0.0,0.0,0.0,0.0,0.0,0.0,0.0,0.0,0.0,0.0,0.0,0.0,0.0,0.0,0.0,0.0,0.0,0.0,0.0,0.0,0.0,0.0,0.0,0.0,0.0,0.0,0.0,-5.361,-5.4569,-5.46,-5.5908,-5.6822,-5.497,-5.544,-5.6389,0.0,0.0,-5.8263,-5.8174,-5.8676,-5.9052,-5.8325,-5.7688,-5.7944,-5.992,-5.9585,-6.0074,-6.2745,-6.3003,0.0,0.0,0.0,0.0,0.0,0.0,0.0,0.0,0.0,0.0,0.0,-7.0976,-7.1644,-7.1644,-7.1673,-7.1963,-7.2602,-7.2602,-7.2602,-7.2631,-7.3298,-7.3618,-7.3647,-7.4227,-7.4488,0.0,0.0,0.0,0.0,-7.6172,-7.6433,-7.6462,-7.6462,-7.6462,-7.6462,-7.6462,-7.6462,-7.6462,0.0,0.0,0.0,0.0,0.0,0.0,0.0,0.0,0.0,0.0,0.0,0.0,0.0,0.0,0.0,0.0,0.0,0.0,0.0,0.0,0.0,0.0,0.0,0.0,0.0,0.0,0.0,0.0,0.0,0.0,0.0,0.0,0.0,0.0,0.0,0.0,0.0,0.0,0.0,0.0,0.0,0.0,0.0,0.0,0.0,0.0,0.0,0.0,0.0,0.0,0.0,0.0,0.0,0.0,0.0,0.0,0.0,0.0,-5.3912,-5.499,-5.5817,-5.4734,-5.4852,-5.5186,-5.5607,0.0,-5.7049,-5.7442,-5.8071,-5.8451,-5.8198,-5.7688,-5.7688,-5.9301,-5.9332,-5.969,-6.143,0.0,0.0,0.0,0.0,0.0,0.0,0.0,0.0,0.0,0.0,0.0,0.0,-7.0928,-7.1673,-7.1673,-7.2079,-7.2427,-7.2602,-7.2602,-7.2834,-7.3298,-7.3501,-7.4082,-7.4924,-7.5098,0.0,0.0,0.0,0.0,0.0,-7.6375,-7.6462,-7.6462,-7.6462,-7.6462,-7.6462,-7.6462,-7.6462,-7.6462,0.0,0.0,0.0,0.0,0.0,0.0,0.0,0.0,0.0,0.0,0.0,0.0,0.0,0.0,0.0,0.0,0.0,0.0,0.0,0.0,0.0,0.0,0.0,0.0,0.0,0.0,0.0,0.0,0.0,0.0,0.0,0.0,0.0,0.0,0.0,0.0,0.0,0.0,0.0,0.0,0.0,0.0,-5.2972,0.0,0.0,0.0,0.0,0.0,0.0,0.0,0.0,0.0,0.0,0.0,0.0,0.0,0.0,0.0,0.0,-5.4124,-5.5261,-5.4405,-5.4259,0.0,0.0,0.0,0.0,0.0,-5.7688,-5.8071,-5.7816,-5.7431,-5.756,-5.8676,-5.9017,-5.9579,-6.1203,0.0,0.0,0.0,0.0,0.0,0.0,0.0,0.0,0.0,0.0,0.0,0.0,-7.1249,-7.2021,-7.2021,-7.2398,-7.2602,-7.2602,-7.2863,-7.3211,-7.3618,-7.4111,-7.475,-7.5534,-7.5766,0.0,0.0,0.0,0.0,0.0,-7.6462,-7.6462,-7.6462,-7.6462,-7.6462,-7.6462,-7.6462,-7.6462,-7.6462,0.0,0.0,0.0,0.0,0.0,0.0,0.0,0.0,0.0,0.0,0.0,0.0,0.0,0.0,0.0,0.0,0.0,0.0,0.0,0.0,0.0,0.0,0.0,0.0,0.0,0.0,0.0,-5.35,-5.35,-5.35,-5.35,0.0,0.0,0.0,0.0,0.0,0.0,0.0,0.0,0.0,0.0,0.0,0.0,0.0,0.0,0.0,0.0,0.0,0.0,0.0,0.0,0.0,0.0,0.0,0.0,0.0,0.0,0.0,0.0,0.0,0.0,0.0,0.0,0.0,0.0,0.0,0.0,0.0,0.0,0.0,-5.7303,-5.7174,-5.7431,-5.8071,-5.8598,-5.9627,-6.1671,0.0,0.0,0.0,0.0,0.0,0.0,0.0,0.0,0.0,0.0,0.0,0.0,-7.1683,-7.2459,-7.2488,-7.2517,-7.2546,-7.2546,-7.3154,-7.3502,-7.3618,-7.4806,-7.5534,-7.5592,-7.6201,0.0,0.0,0.0,0.0,0.0,-7.6462,-7.6462,-7.6462,-7.6462,-7.6462,-7.6462,-7.6462,-7.6462,-7.6462,0.0,0.0,0.0,0.0,0.0,0.0,0.0,0.0,0.0,0.0,0.0,0.0,0.0,0.0,0.0,0.0,0.0,0.0,0.0,0.0,0.0,0.0,0.0,0.0,0.0,0.0,0.0,-5.35,-5.35,-5.35,-5.35,-5.35,0.0,0.0,0.0,0.0,0.0,0.0,0.0,0.0,0.0,0.0,0.0,0.0,0.0,0.0,-5.2544,-5.1896,0.0,0.0,0.0,0.0,0.0,0.0,0.0,0.0,-5.0525,0.0,0.0,0.0,0.0,0.0,0.0,0.0,0.0,0.0,0.0,0.0,0.0,0.0,0.0,0.0,-5.7303,-5.7431,-5.8336,-5.9125,-5.9627,0.0,0.0,0.0,0.0,0.0,0.0,0.0,0.0,0.0,0.0,0.0,0.0,-7.0962,-7.145,-7.0894,-7.1789,-7.2311,-7.2311,-7.2482,-7.3203,-7.4178,-7.4465,-7.5168,-7.623,-7.6404,0.0,0.0,0.0,0.0,-7.6462,-7.6462,-7.6462,-7.6462,-7.6462,-7.6462,-7.6462,-7.6462,-7.6462,-7.6462,0.0,0.0,0.0,0.0,0.0,0.0,0.0,0.0,0.0,0.0,0.0,0.0,0.0,0.0,0.0,0.0,0.0,0.0,0.0,0.0,0.0,0.0,0.0,0.0,0.0,0.0,0.0,0.0,0.0,-5.35,0.0,0.0,0.0,0.0,0.0,0.0,0.0,0.0,0.0,0.0,0.0,0.0,0.0,0.0,0.0,0.0,-5.2437,-5.1759,0.0,-5.0795,-5.046,-5.001,0.0,0.0,0.0,0.0,-5.0634,0.0,0.0,0.0,0.0,0.0,0.0,0.0,0.0,0.0,0.0,0.0,0.0,0.0,0.0,0.0,0.0,-5.7553,-5.8395,-5.9424,0.0,0.0,0.0,0.0,0.0,0.0,0.0,0.0,0.0,0.0,0.0,0.0,0.0,-7.0543,-7.086,-7.0726,-7.1482,-7.1801,-7.1801,-7.2666,-7.3621,-7.4307,-7.5046,-7.5513,-7.583,-7.583,-7.5678,0.0,0.0,0.0,-7.5374,-7.583,-7.583,-7.583,-7.583,-7.6132,-7.6462,-7.6462,-7.6462,-7.6462,0.0,0.0,0.0,0.0,0.0,0.0,0.0,0.0,0.0,0.0,0.0,0.0,0.0,0.0,0.0,0.0,0.0,0.0,0.0,0.0,0.0,0.0,0.0,0.0,0.0,0.0,0.0,0.0,0.0,0.0,0.0,0.0,-5.35,0.0,0.0,0.0,0.0,0.0,0.0,0.0,-5.35,0.0,0.0,0.0,0.0,0.0,0.0,0.0,0.0,-5.0683,-5.046,-5.001,-5.001,0.0,0.0,0.0,0.0,0.0,0.0,0.0,0.0,0.0,0.0,0.0,0.0,0.0,0.0,0.0,0.0,0.0,0.0,0.0,0.0,0.0,0.0,0.0,0.0,0.0,0.0,0.0,0.0,0.0,0.0,0.0,0.0,0.0,0.0,0.0,0.0,-6.9988,-7.0287,-7.0903,-7.1014,-7.1098,-7.1059,-7.3161,-7.4184,-7.4298,-7.5571,-7.583,-7.5192,-7.5039,-7.4577,0.0,0.0,0.0,-7.4113,-7.4732,-7.5039,-7.5192,-7.5192,-7.5649,-7.6312,-7.6312,-7.6312,-7.6312,0.0,0.0,0.0,0.0,0.0,0.0,0.0,0.0,0.0,0.0,0.0,0.0,0.0,0.0,0.0,0.0,0.0,0.0,0.0,0.0,0.0,0.0,0.0,0.0,0.0,0.0,0.0,0.0,0.0,0.0,-5.35,-5.35,-5.35,0.0,0.0,0.0,-5.35,-5.35,-5.35,-5.35,-5.35,0.0,0.0,0.0,0.0,0.0,0.0,0.0,0.0,-5.0906,-5.046,-5.001,-5.001,0.0,0.0,0.0,0.0,0.0,-5.1692,0.0,0.0,0.0,0.0,0.0,0.0,0.0,0.0,0.0,0.0,0.0,0.0,0.0,0.0,0.0,0.0,0.0,0.0,0.0,0.0,0.0,0.0,0.0,0.0,0.0,0.0,0.0,0.0,0.0,0.0,0.0,-6.9233,-6.9225,-7.0336,-7.0859,-7.0624,-7.2356,-7.3465,-7.4,-7.424,-7.4732,-7.5192,-7.4423,-7.4113,0.0,0.0,-7.4113,-7.3957,-7.4113,-7.4577,-7.5192,-7.5192,-7.5345,-7.5345,-7.5345,-7.5345,-7.5497,0.0,0.0,0.0,0.0,0.0,0.0,0.0,0.0,0.0,0.0,0.0,0.0,0.0,0.0,0.0,0.0,0.0,0.0,0.0,0.0,0.0,0.0,0.0,0.0,0.0,0.0,0.0,0.0,0.0,-5.3184,-5.2487,-5.3184,-5.35,-5.35,0.0,-5.35,-5.35,-5.35,-5.35,-5.35,0.0,0.0,0.0,0.0,0.0,0.0,0.0,0.0,0.0,0.0,-5.046,-5.001,-5.001,0.0,0.0,0.0,0.0,0.0,-5.1747,-5.2506,0.0,0.0,0.0,0.0,0.0,0.0,0.0,0.0,0.0,0.0,0.0,0.0,0.0,0.0,0.0,0.0,0.0,0.0,0.0,0.0,0.0,0.0,0.0,0.0,0.0,0.0,0.0,0.0,0.0,0.0,-6.9115,-6.9276,-6.9861,-7.0297,-7.0578,-7.2147,-7.3052,-7.3331,-7.3801,-7.3957,-7.3801,-7.3488,-7.3016,-7.2727,0.0,-7.3016,-7.2727,-7.3174,-7.3801,-7.4577,-7.4113,-7.4423,-7.5192,-7.5192,-7.5192,-7.5345,0.0,0.0,0.0,0.0,0.0,0.0,0.0,0.0,0.0,0.0,0.0,0.0,0.0,0.0,0.0,0.0,0.0,0.0,0.0,0.0,0.0,0.0,0.0,0.0,0.0,0.0,-5.1017,-5.0906,-5.2244,-5.2701,-5.2136,-5.2837,-5.3184,0.0,0.0,-5.3395,-5.35,-5.3395,-5.3395,-5.35,0.0,0.0,0.0,0.0,0.0,0.0,0.0,0.0,0.0,0.0,0.0,0.0,0.0,0.0,0.0,0.0,-5.0987,-5.1855,-5.1991,-5.2805,0.0,0.0,0.0,0.0,0.0,0.0,0.0,0.0,0.0,0.0,0.0,0.0,0.0,0.0,0.0,0.0,0.0,0.0,0.0,0.0,0.0,0.0,0.0,0.0,0.0,0.0,0.0,0.0,0.0,0.0,-6.9221,-6.971,-6.9846,-7.0198,-7.0795,-7.187,-7.254,-7.2699,-7.3331,-7.3331,-7.2699,-7.254,-7.2089,-7.1474,-7.2089,-7.2089,-7.1474,-7.2089,-7.2858,-7.3645,-7.3016,-7.346,-7.4577,-7.4885,-7.4885,-7.5039,0.0,0.0,0.0,0.0,0.0,0.0,0.0,0.0,0.0,0.0,0.0,0.0,0.0,0.0,0.0,0.0,0.0,0.0,0.0,0.0,0.0,0.0,0.0,0.0,0.0,-4.8039,-4.9194,-4.8326,-5.0435,-5.2,-5.3395,-5.2244,-5.2487,-5.35,0.0,-5.2972,-5.35,-5.2837,-5.2972,-5.35,-5.35,0.0,0.0,0.0,0.0,0.0,0.0,0.0,0.0,0.0,0.0,0.0,0.0,0.0,0.0,0.0,-5.1312,-5.1936,-5.2506,-5.3103,0.0,0.0,0.0,0.0,0.0,0.0,0.0,0.0,0.0,0.0,0.0,0.0,0.0,0.0,0.0,0.0,0.0,0.0,0.0,0.0,0.0,0.0,0.0,0.0,0.0,0.0,0.0,0.0,0.0,0.0,0.0,-6.971,-7.0253,-7.0822,-7.1419,-7.1608,-7.1929,-7.2699,-7.2699,-7.2699,-7.2699,-7.1929,-7.1474,-7.1474,-7.1635,-7.1474,-7.1474,-7.1635,-7.2089,-7.2858,-7.2699,-7.2699,-7.3016,-7.3801,-7.4141,-7.4268,0.0,0.0,0.0,0.0,0.0,0.0,0.0,0.0,0.0,0.0,0.0,0.0,0.0,0.0,0.0,0.0,0.0,0.0,0.0,0.0,0.0,0.0,0.0,-4.4618,-4.4618,-4.7262,-4.8416,-4.8094,-4.8877,-5.0323,-5.238,-5.1155,0.0,0.0,0.0,-5.238,-5.2972,-5.3078,-5.329,-5.35,-5.35,-5.329,0.0,0.0,0.0,0.0,0.0,0.0,0.0,0.0,-5.001,0.0,0.0,0.0,0.0,0.0,-5.1339,-5.1964,-5.2561,-5.3402,0.0,0.0,0.0,0.0,0.0,0.0,0.0,0.0,0.0,0.0,0.0,0.0,0.0,0.0,0.0,0.0,0.0,0.0,0.0,0.0,0.0,0.0,0.0,0.0,0.0,0.0,0.0,0.0,0.0,0.0,0.0,-6.971,-7.028,-7.0877,-7.1474,-7.1474,-7.1635,-7.1929,-7.1929,-7.1929,-7.1929,-7.1635,-7.1474,-7.1474,-7.1474,-7.1474,-7.1474,-7.1474,-7.1929,-7.2699,-7.2699,-7.2381,-7.2089,-7.2858,-7.3488,-7.4113,0.0,0.0,0.0,0.0,0.0,0.0,0.0,0.0,0.0,0.0,0.0,0.0,0.0,0.0,0.0,0.0,0.0,0.0,0.0,0.0,0.0,0.0,0.0,-4.4618,-4.4618,-4.6499,-4.7534,-4.7534,-4.7534,-4.8647,-5.0906,0.0,0.0,0.0,0.0,0.0,-5.1839,-5.238,-5.2623,-5.273,-5.3078,-5.2972,0.0,0.0,0.0,0.0,0.0,0.0,0.0,0.0,0.0,0.0,0.0,0.0,0.0,0.0,-5.1502,-5.1991,-5.2778,-5.3727,0.0,0.0,0.0,0.0,0.0,0.0,0.0,0.0,0.0,0.0,0.0,0.0,0.0,0.0,0.0,0.0,0.0,0.0,0.0,0.0,0.0,0.0,0.0,0.0,0.0,0.0,0.0,0.0,0.0,0.0,0.0,0.0,-7.0578,-7.1067,-7.1474,-7.1474,-7.1474,-7.1474,-7.1474,-7.1474,-7.1474,-7.1474,-7.1474,-7.1474,-7.1474,-7.1474,-7.1474,-7.1474,-7.1769,-7.2409,-7.2409,-7.1929,-7.1635,-7.2381,-7.3174,-7.4141,0.0,0.0,0.0,0.0,0.0,0.0,0.0,0.0,0.0,0.0,0.0,0.0,0.0,0.0,0.0,0.0,0.0,0.0,0.0,0.0,0.0,0.0,0.0,-4.4618,-4.4644,-4.5748,-4.6301,-4.6301,-4.6301,-4.7298,-4.9422,-4.8532,0.0,0.0,0.0,0.0,0.0,0.0,-5.0796,-5.0906,-5.2056,-5.2652,-5.268,0.0,0.0,0.0,0.0,0.0,0.0,0.0,0.0,0.0,0.0,0.0,0.0,-5.1475,-5.1828,-5.2099,-5.3293,0.0,0.0,0.0,0.0,0.0,0.0,0.0,0.0,0.0,0.0,0.0,0.0,0.0,0.0,0.0,0.0,0.0,0.0,0.0,0.0,0.0,0.0,0.0,0.0,0.0,0.0,0.0,0.0,0.0,0.0,0.0,0.0,0.0,-7.1175,-7.1474,-7.1474,-7.1474,-7.1474,-7.1474,-7.1474,-7.1474,-7.1474,-7.1474,-7.1474,-7.1474,-7.1474,-7.1474,-7.1474,-7.1474,-7.1474,-7.1474,-7.1474,-7.1474,-7.1635,-7.2381,-7.3174,-7.4113,0.0,0.0,0.0,0.0,0.0,0.0,0.0,0.0,0.0,0.0,0.0,0.0,0.0,0.0,0.0,0.0,0.0,0.0,0.0,0.0,0.0,0.0,0.0,0.0,0.0,0.0,-4.6301,-4.6301,-4.6301,-4.7087,0.0,0.0,0.0,-4.9133,0.0,0.0,0.0,0.0,-5.0906,-5.0238,-5.1484,-5.1512,-5.0767,0.0,0.0,0.0,0.0,0.0,0.0,0.0,0.0,0.0,0.0,0.0,0.0,-5.0498,-5.1003,-5.1588,-5.2908,0.0,0.0,0.0,0.0,0.0,0.0,0.0,0.0,0.0,0.0,0.0,0.0,0.0,0.0,0.0,0.0,0.0,0.0,0.0,0.0,0.0,0.0,0.0,0.0,0.0,0.0,0.0,0.0,0.0,0.0,0.0,0.0,0.0,-7.1175,-7.1474,-7.1474,-7.1474,-7.1474,-7.1474,-7.1474,-7.1474,-7.1474,-7.1474,-7.1474,-7.1474,-7.1474,-7.1474,-7.1474,-7.1474,-7.1474,-7.1474,-7.1474,-7.1474,-7.1474,-7.1796,-7.2727,-7.3957,0.0,0.0,0.0,0.0,0.0,0.0,0.0,0.0,0.0,0.0,0.0,0.0,0.0,0.0,0.0,0.0,0.0,0.0,0.0,0.0,0.0,0.0,0.0,0.0,0.0,-4.6125,-4.618,0.0,0.0,0.0,0.0,0.0,0.0,-4.7272,0.0,-4.718,0.0,0.0,-4.9535,-4.8762,-4.9874,-4.9901,-4.9274,0.0,0.0,0.0,0.0,0.0,0.0,0.0,0.0,0.0,0.0,0.0,0.0,-5.0048,-5.0775,-5.1583,0.0,0.0,0.0,0.0,0.0,0.0,0.0,0.0,0.0,0.0,0.0,0.0,0.0,0.0,0.0,0.0,0.0,0.0,0.0,0.0,0.0,0.0,0.0,0.0,0.0,0.0,0.0,0.0,0.0,0.0,0.0,0.0,0.0,0.0,-7.1284,-7.1474,-7.1474,-7.1474,-7.1474,-7.1474,-7.1474,-7.1474,-7.1474,-7.1474,-7.1474,-7.1474,-7.1474,-7.1474,-7.1474,-7.1474,-7.1474,-7.1474,-7.1474,-7.1474,-7.1474,-7.1769,-7.2885,-7.4113,0.0,0.0,0.0,0.0,0.0,0.0,0.0,0.0,0.0,0.0,0.0,0.0,0.0,0.0,0.0,0.0,0.0,0.0,0.0,0.0,0.0,0.0,0.0,0.0,0.0,0.0,0.0,0.0,0.0,0.0,0.0,0.0,-4.5696,-4.484,0.0,-4.5817,-4.5939,-4.7036,-4.7272,-4.6704,-4.7951,-4.8184,-4.7977,-4.7977,0.0,0.0,0.0,0.0,0.0,0.0,0.0,0.0,0.0,0.0,-4.8205,-4.9714,-5.0532,0.0,0.0,0.0,0.0,0.0,0.0,0.0,0.0,0.0,0.0,0.0,0.0,0.0,0.0,0.0,0.0,0.0,0.0,0.0,0.0,0.0,0.0,0.0,0.0,0.0,0.0,0.0,0.0,0.0,0.0,0.0,0.0,0.0,0.0,0.0,-7.1474,-7.1474,-7.1474,-7.1474,-7.1474,0.0,-7.1474,-7.1474,-7.1474,-7.1474,-7.1474,-7.1474,-7.1474,-7.1474,-7.1474,-7.1474,-7.1474,-7.1474,-7.1474,-7.1474,-7.1635,-7.2409,-7.3174,-7.4113,0.0,0.0,0.0,0.0,0.0,0.0,0.0,0.0,0.0,0.0,0.0,0.0,0.0,0.0,0.0,0.0,0.0,0.0,0.0,0.0,0.0,0.0,0.0,0.0,0.0,0.0,0.0,0.0,0.0,0.0,0.0,0.0,0.0,-4.5208,0.0,-4.5574,-4.5939,-4.7036,-4.6917,-4.6155,-4.7272,-4.7508,-4.6942,-4.6704,-4.673,0.0,0.0,0.0,0.0,0.0,0.0,0.0,-4.6968,-4.7415,-4.7608,-4.7832,-4.8687,0.0,0.0,0.0,0.0,0.0,0.0,0.0,0.0,0.0,0.0,0.0,0.0,0.0,0.0,0.0,0.0,0.0,0.0,0.0,0.0,0.0,0.0,0.0,0.0,0.0,0.0,0.0,0.0,0.0,0.0,0.0,0.0,0.0,0.0,-7.1447,-7.1474,-7.1474,-7.1474,-7.1474,-7.1474,0.0,-7.1474,-7.1474,-7.1474,-7.1474,-7.1474,-7.1474,-7.1474,-7.1474,-7.1474,-7.1474,-7.1474,-7.1474,-7.1474,-7.1474,-7.1474,-7.1635,-7.2727,-7.3957,0.0,0.0,0.0,0.0,0.0,0.0,0.0,0.0,0.0,0.0,0.0,0.0,0.0,0.0,0.0,0.0,0.0,0.0,0.0,0.0,0.0,0.0,0.0,0.0,0.0,-4.5453,-4.5331,0.0,0.0,0.0,0.0,0.0,0.0,-4.5086,0.0,-4.5208,-4.5331,-4.5985,-4.601,-4.5574,-4.613,-4.6105,-4.5817,-4.5699,-4.5527,-4.5331,-4.5478,0.0,0.0,0.0,0.0,0.0,0.0,0.0,-4.717,-4.7654,-4.8377,-4.9531,0.0,0.0,0.0,0.0,0.0,0.0,0.0,0.0,0.0,0.0,0.0,0.0,0.0,0.0,0.0,0.0,0.0,0.0,0.0,0.0,0.0,0.0,0.0,0.0,0.0,0.0,0.0,0.0,0.0,0.0,0.0,-7.0605,-7.0877,-7.1447,-7.1474,-7.1474,-7.1474,-7.1474,-7.1474,-7.1474,-7.1474,-7.1474,-7.1474,-7.1474,-7.1474,-7.1474,-7.1474,-7.1474,-7.1474,-7.1474,-7.1474,-7.1474,-7.1474,-7.1474,-7.1474,-7.1929,-7.2568,-7.3488,0.0,0.0,0.0,0.0,0.0,0.0,0.0,0.0,0.0,0.0,0.0,0.0,0.0,0.0,0.0,0.0,0.0,0.0,0.0,0.0,0.0,0.0,0.0,0.0,-4.5331,-4.5208,-4.4963,0.0,0.0,0.0,0.0,0.0,0.0,-4.4717,0.0,-4.484,-4.484,-4.4938,-4.5085,-4.5355,-4.5207,-4.5108,-4.5033,-4.5242,-4.4996,-4.4683,-4.5116,-4.4996,-4.4683,-4.5116,0.0,0.0,0.0,0.0,-4.6834,-4.7715,-4.8417,-4.9395,0.0,0.0,0.0,0.0,0.0,0.0,0.0,0.0,0.0,0.0,0.0,0.0,0.0,0.0,0.0,0.0,0.0,0.0,0.0,0.0,0.0,0.0,0.0,0.0,0.0,0.0,0.0,0.0,0.0,0.0,-7.0605,-7.0687,-7.0958,-7.1447,-7.1474,-7.1474,-7.1474,-7.1474,-7.1474,-7.1474,-7.1474,-7.1474,-7.1474,-7.1474,-7.1474,-7.1474,-7.1474,-7.1474,-7.1474,-7.1474,-7.1474,-7.1474,-7.1474,-7.1474,-7.1635,-7.2249,-7.254,-7.2885,0.0,0.0,0.0,0.0,0.0,0.0,0.0,0.0,0.0,0.0,0.0,0.0,0.0,0.0,0.0,0.0,0.0,0.0,0.0,0.0,0.0,0.0,0.0,-4.4963,-4.5331,-4.4717,-4.4594,0.0,0.0,0.0,0.0,0.0,0.0,-4.4347,0.0,0.0,-4.4865,-4.5327,-4.5521,-4.557,-4.6032,-4.6226,-4.61,-4.5917,-4.5893,-4.61,-4.5917,-4.5766,-4.5718,-4.579,-4.5814,0.0,0.0,0.0,0.0,0.0,0.0,0.0,0.0,0.0,0.0,0.0,0.0,0.0,0.0,0.0,0.0,0.0,0.0,0.0,0.0,0.0,0.0,0.0,0.0,0.0,0.0,0.0,0.0,0.0,0.0,0.0,0.0,0.0,0.0,0.0,0.0,0.0,-7.0632,-7.1094,-7.1392,-7.1474,-7.1474,-7.1474,-7.1474,-7.1474,-7.1474,-7.1474,-7.1474,-7.1474,-7.1474,-7.1474,-7.1474,-7.1474,-7.1474,-7.1474,-7.1474,-7.1474,-7.1474,-7.1474,-7.1474,-7.1474,-7.1474,-7.1635,-7.2089,-7.2782,0.0,0.0,0.0,0.0,0.0,0.0,0.0,0.0,0.0,0.0,0.0,0.0,0.0,0.0,0.0,0.0,0.0,0.0,0.0,0.0,0.0,0.0,0.0,-4.484,-4.4717,-4.447,0.0,0.0,0.0,0.0,0.0,-4.447,-4.4594,0.0,0.0,0.0,0.0,0.0,0.0,-4.6105,-4.6093,-4.6166,-4.6342,-4.6376,-4.6303,-4.6086,-4.6247,-4.6175,-4.5982,-4.6271,-4.6367,-4.6415,-4.6704,0.0,0.0,0.0,0.0,0.0,0.0,0.0,0.0,0.0,0.0,0.0,0.0,0.0,0.0,0.0,0.0,0.0,0.0,0.0,0.0,0.0,0.0,0.0,0.0,0.0,0.0,0.0,0.0,0.0,0.0,0.0,0.0,0.0,0.0,-7.1229,-7.0632,-7.1148,-7.1474,-7.1474,-7.1474,-7.1474,-7.1474,-7.1474,-7.1474,-7.1474,-7.1474,-7.1474,-7.1474,-7.1474,-7.1474,-7.1474,-7.1474,-7.1474,-7.1474,-7.1474,-7.1474,-7.1474,-7.1474,-7.1474,-7.1474,-7.1474,-7.2014,-7.2637,0.0,0.0,0.0,0.0,0.0,0.0,0.0,0.0,0.0,0.0,0.0,0.0,0.0,0.0,0.0,0.0,0.0,0.0,0.0,0.0,0.0,0.0,0.0,0.0,-4.4347,-4.4347,0.0,0.0,0.0,0.0,-4.4347,-4.4491,-4.4663,0.0,-4.5073,0.0,0.0,0.0,0.0,0.0,-4.64,-4.6448,-4.6754,-4.6906,-4.6655,-4.6367,-4.6776,-4.6655,-4.6391,-4.6776,-4.692,-4.6968,-4.7377,0.0,0.0,0.0,0.0,0.0,0.0,0.0,0.0,0.0,0.0,0.0,0.0,0.0,0.0,0.0,0.0,0.0,0.0,0.0,0.0,0.0,0.0,0.0,0.0,0.0,0.0,0.0,0.0,0.0,0.0,0.0,0.0,0.0,0.0,-7.1123,-7.0341,-7.1068,-7.1474,-7.1474,-7.1474,-7.1474,-7.1474,-7.1474,-7.1474,-7.1474,-7.1474,-7.1474,-7.1474,-7.1474,-7.1474,-7.1474,-7.1474,-7.1474,-7.1474,-7.1474,-7.1474,-7.1474,-7.1474,-7.1474,-7.1474,-7.1474,-7.1854,-7.2396,0.0,0.0,0.0,0.0,0.0,0.0,0.0,0.0,0.0,0.0,0.0,0.0,0.0,0.0,0.0,0.0,0.0,0.0,0.0,0.0,0.0,0.0,0.0,0.0,0.0,0.0,0.0,0.0,0.0,0.0,-4.4347,-4.4852,-4.5092,-4.5092,-4.5116,-4.5405,-4.591,0.0,0.0,0.0,0.0,-4.7425,-4.7425,-4.7449,-4.7449,-4.7425,0.0,0.0,-4.7425,-4.7449,-4.7473,-4.7473,0.0,0.0,0.0,0.0,0.0,0.0,0.0,0.0,0.0,0.0,0.0,0.0,0.0,0.0,0.0,0.0,0.0,0.0,0.0,0.0,0.0,0.0,0.0,0.0,0.0,0.0,0.0,0.0,0.0,0.0,0.0,0.0,0.0,0.0,0.0,-7.0961,-6.9571,-7.0771,-7.1474,-7.1474,-7.1474,-7.1474,-7.1474,-7.1474,-7.1474,-7.1474,-7.1474,-7.1474,-7.1474,-7.1474,-7.1474,-7.1474,-7.1474,-7.1474,-7.1474,-7.1474,-7.1474,-7.1474,-7.1474,-7.1474,-7.1474,-7.1474,-7.1854,-7.2451,0.0,0.0,0.0,0.0,0.0,0.0,0.0,0.0,0.0,0.0,0.0,0.0,0.0,0.0,0.0,0.0,0.0,0.0,0.0,0.0,0.0,0.0,0.0,0.0,0.0,0.0,0.0,0.0,0.0,-4.4852,-4.4876,-4.5405,-4.5814,-4.615,-4.615,-4.6247,-4.6463,-4.6992,0.0,0.0,0.0,0.0,0.0,0.0,0.0,0.0,0.0,0.0,0.0,0.0,0.0,0.0,0.0,0.0,0.0,-4.9205,-4.9565,-4.9998,0.0,0.0,0.0,0.0,0.0,0.0,0.0,0.0,0.0,0.0,0.0,0.0,0.0,0.0,0.0,0.0,0.0,0.0,0.0,0.0,0.0,0.0,0.0,0.0,0.0,0.0,0.0,0.0,0.0,0.0,-6.8074,-6.8576,-6.9267,-7.0118,-7.0118,-7.0635,-7.1474,-7.1474,-7.1474,-7.1474,-7.1474,-7.1474,-7.1474,-7.1474,-7.1474,-7.1474,-7.1474,-7.1474,-7.1474,-7.1474,-7.1474,-7.1474,-7.1474,-7.1474,-7.1528,-7.1908,-7.2451,-7.3048,0.0,0.0,0.0,0.0,0.0,0.0,0.0,0.0,0.0,0.0,0.0,0.0,0.0,0.0,0.0,0.0,0.0,0.0,0.0,0.0,0.0,0.0,0.0,0.0,0.0,0.0,0.0,0.0,0.0,0.0,0.0,0.0,-4.6367,-4.6728,-4.6896,0.0,0.0,0.0,0.0,-4.7497,0.0,0.0,-4.7762,0.0,0.0,0.0,0.0,0.0,0.0,0.0,0.0,0.0,0.0,0.0,0.0,-4.9998,-5.0143,-5.0239,-5.06,0.0,0.0,0.0,0.0,0.0,0.0,0.0,0.0,0.0,0.0,0.0,0.0,0.0,0.0,0.0,0.0,0.0,0.0,0.0,0.0,0.0,0.0,0.0,0.0,0.0,0.0,0.0,0.0,0.0,-6.672,-6.723,-6.8074,-6.9433,-6.9433,-7.0118,-7.1474,-7.1474,-7.1474,-7.1474,-7.1474,-7.1474,-7.1474,-7.1474,-7.1474,-7.1474,-7.1474,-7.1474,-7.1474,-7.1474,-7.1474,-7.1474,-7.1474,-7.1474,-7.1555,-7.2152,-7.2749,-7.3373,0.0,0.0,0.0,0.0,0.0,0.0,0.0,0.0,0.0,0.0,0.0,0.0,0.0,0.0,0.0,0.0,0.0,0.0,0.0,0.0,0.0,0.0,0.0,0.0,0.0,0.0,0.0,0.0,0.0,0.0,0.0,0.0,-4.6728,0.0,-4.7281,-4.7497,-4.7497,0.0,-4.7521,-4.7521,0.0,-4.7834,-4.8315,0.0,0.0,0.0,-4.9109,-4.9109,0.0,0.0,0.0,0.0,0.0,0.0,0.0,-5.0551,-5.0696,-5.0696,0.0,0.0,0.0,0.0,0.0,0.0,0.0,0.0,0.0,0.0,0.0,0.0,0.0,0.0,0.0,0.0,0.0,0.0,0.0,0.0,0.0,0.0,0.0,0.0,0.0,0.0,0.0,0.0,0.0,-6.672,-6.5372,-6.655,-6.7906,-6.9267,-6.9433,-7.0118,-7.1474,-7.1474,-7.1474,-7.1474,-7.1474,-7.1474,-7.1474,-7.1474,-7.1474,-7.1474,-7.1474,-7.1474,-7.1474,-7.1474,-7.1474,-7.1474,-7.1474,-7.1501,-7.1582,-7.2179,-7.2776,-7.34,0.0,0.0,0.0,0.0,0.0,0.0,0.0,0.0,0.0,0.0,0.0,0.0,0.0,0.0,0.0,0.0,0.0,0.0,0.0,0.0,0.0,0.0,0.0,0.0,0.0,0.0,0.0,0.0,0.0,0.0,0.0,0.0,0.0,0.0,-4.7425,-4.7497,-4.7497,-4.7497,0.0,0.0,-4.8074,-4.8387,0.0,0.0,0.0,0.0,0.0,-4.9902,0.0,0.0,-5.0263,-5.0263,0.0,0.0,0.0,-5.0648,-5.0696,-5.0696,-5.0696,0.0,0.0,0.0,0.0,0.0,0.0,0.0,0.0,0.0,0.0,0.0,0.0,0.0,0.0,0.0,0.0,0.0,0.0,0.0,0.0,0.0,0.0,0.0,0.0,0.0,0.0,0.0,-6.4178,-6.4353,-6.3851,-6.5199,-6.6061,-6.655,-6.8435,-6.9598,-6.9954,-7.0961,-7.1474,-7.1474,-7.1474,-7.1474,-7.1474,-7.1474,-7.1474,-7.1474,-7.1474,-7.1474,-7.1474,-7.1474,-7.1474,-7.1474,-7.1474,-7.1745,-7.2179,-7.2803,-7.3427,-7.4024,0.0,0.0,0.0,0.0,0.0,0.0,0.0,0.0,0.0,0.0,0.0,0.0,0.0,0.0,0.0,0.0,0.0,0.0,0.0,0.0,0.0,0.0,0.0,0.0,0.0,0.0,0.0,0.0,0.0,0.0,0.0,0.0,0.0,0.0,0.0,0.0,0.0,0.0,0.0,0.0,-4.8531,0.0,0.0,-4.9397,-4.9734,0.0,0.0,0.0,-5.0696,-5.0696,-5.0696,0.0,0.0,0.0,0.0,0.0,0.0,0.0,0.0,0.0,0.0,0.0,0.0,0.0,0.0,-5.286,0.0,0.0,0.0,0.0,0.0,0.0,0.0,0.0,0.0,0.0,0.0,0.0,0.0,0.0,0.0,0.0,0.0,0.0,0.0,-6.3322,-6.3346,-6.3346,-6.3346,-6.4702,-6.5372,-6.5372,-6.74,-6.8743,-6.9433,-7.0282,-7.0961,-7.1474,-7.1474,-7.1474,-7.1474,-7.1474,-7.1474,-7.1474,-7.1474,-7.1474,-7.1474,-7.1474,-7.1474,-7.1474,-7.1474,-7.1854,-7.2451,-7.3075,-7.3672,-7.4269,0.0,0.0,0.0,0.0,0.0,0.0,0.0,0.0,0.0,0.0,0.0,0.0,0.0,0.0,0.0,0.0,0.0,0.0,0.0,0.0,0.0,0.0,0.0,0.0,0.0,0.0,0.0,0.0,0.0,0.0,0.0,0.0,0.0,0.0,0.0,0.0,0.0,0.0,0.0,-4.8507,-4.8988,-4.9493,0.0,0.0,-5.0263,0.0,-5.0696,-5.0696,-5.0696,-5.0696,-5.0696,0.0,0.0,0.0,0.0,0.0,-5.0696,0.0,0.0,0.0,0.0,0.0,0.0,0.0,-5.2355,-5.3125,-5.4111,0.0,0.0,0.0,0.0,0.0,0.0,0.0,0.0,0.0,0.0,0.0,0.0,0.0,0.0,0.0,0.0,-6.2239,-6.2768,-6.3225,-6.3298,-6.3346,-6.3346,-6.4527,-6.5223,-6.5372,-6.672,-6.7906,-6.9101,-6.9433,-7.0118,-7.1312,-7.1474,-7.1474,-7.1474,-7.1474,-7.1474,-7.1474,-7.1474,-7.1474,-7.1474,-7.1474,-7.1474,-7.1474,-7.1474,-7.1881,-7.2532,-7.3102,-7.3699,-7.435,0.0,0.0,0.0,0.0,0.0,0.0,0.0,0.0,0.0,0.0,0.0,0.0,0.0,0.0,0.0,0.0,0.0,0.0,0.0,0.0,0.0,0.0,0.0,0.0,0.0,0.0,0.0,0.0,0.0,0.0,0.0,0.0,0.0,0.0,0.0,0.0,0.0,0.0,0.0,-4.9565,-4.9662,0.0,-5.0551,-5.0551,-5.06,-5.0696,-5.0696,-5.0696,-5.0696,0.0,-5.0696,-5.0696,0.0,0.0,0.0,0.0,0.0,0.0,0.0,0.0,0.0,0.0,0.0,0.0,-5.2812,-5.3389,-5.4111,0.0,0.0,0.0,0.0,0.0,0.0,0.0,0.0,0.0,0.0,0.0,0.0,0.0,0.0,0.0,0.0,-6.2023,-6.2624,-6.272,-6.3105,-6.3346,-6.3346,-6.3498,-6.4178,-6.5372,-6.672,-6.7543,-6.7737,-6.9927,-7.0635,-6.9763,-7.0961,-7.1474,-7.1474,-7.1474,-7.1474,-7.1474,-7.1474,-7.1474,-7.1474,-7.1474,-7.1474,-7.1474,-7.1474,-7.2152,-7.3129,-7.3265,-7.397,-7.4866,0.0,0.0,0.0,0.0,0.0,0.0,0.0,0.0,0.0,0.0,0.0,0.0,0.0,0.0,0.0,0.0,0.0,0.0,0.0,0.0,0.0,0.0,0.0,0.0,0.0,0.0,0.0,0.0,0.0,0.0,0.0,0.0,0.0,0.0,0.0,0.0,0.0,0.0,-5.0287,-5.0287,-5.0287,0.0,-5.0696,-5.0696,-5.0696,-5.0696,-5.0696,-5.0864,-5.1129,-5.1393,-5.1489,0.0,0.0,-5.1489,-5.1489,0.0,-5.1489,-5.1489,0.0,0.0,0.0,-5.1826,0.0,0.0,0.0,-5.3461,-5.4111,-5.5169,0.0,0.0,0.0,0.0,0.0,0.0,0.0,0.0,0.0,0.0,0.0,0.0,0.0,0.0,0.0,-6.147,-6.1999,-6.2552,-6.3057,-6.3346,-6.3346,-6.4026,-6.4353,-6.4353,-6.6379,-6.7374,-6.7374,-6.8743,-6.9763,-7.0445,-7.0445,-7.0798,-7.1474,-7.1474,-7.1474,-7.1474,-7.1474,-7.1474,-7.1474,-7.1474,-7.1474,-7.1501,-7.1799,-7.2478,-7.3346,-7.3644,-7.4269,-7.5028,0.0,0.0,0.0,0.0,0.0,0.0,0.0,0.0,0.0,0.0,0.0,0.0,0.0,0.0,0.0,0.0,0.0,0.0,0.0,0.0,0.0,0.0,0.0,-4.781,0.0,0.0,0.0,0.0,0.0,0.0,0.0,0.0,0.0,0.0,0.0,0.0,0.0,0.0,0.0,-5.072,0.0,-5.0792,-5.072,-5.0816,-5.0864,-5.0864,-5.096,-5.1273,-5.1706,-5.2139,0.0,-5.2283,-5.2283,-5.2283,0.0,0.0,0.0,0.0,0.0,0.0,0.0,0.0,0.0,-5.3125,0.0,0.0,0.0,-5.5337,0.0,0.0,0.0,0.0,0.0,0.0,0.0,0.0,0.0,0.0,0.0,0.0,0.0,0.0,0.0,-6.0845,-6.1422,-6.2504,-6.2961,-6.3225,-6.3346,-6.4353,-6.4527,-6.3675,-6.5864,-6.723,-6.7374,-6.7712,-6.8743,-7.0635,-7.0118,-7.0282,-7.1123,-7.1312,-7.1474,-7.1474,-7.1474,-7.1474,-7.1474,-7.1474,-7.1474,-7.1528,-7.2125,-7.2749,-7.3373,-7.397,-7.454,-7.5028,0.0,0.0,0.0,0.0,0.0,0.0,0.0,0.0,0.0,0.0,0.0,0.0,0.0,0.0,0.0,0.0,0.0,0.0,-4.8595,0.0,0.0,0.0,0.0,0.0,-4.8892,0.0,0.0,0.0,0.0,0.0,0.0,0.0,0.0,0.0,-5.0359,0.0,0.0,0.0,-5.0696,0.0,-5.1225,-5.1129,0.0,-5.1225,-5.1393,-5.1465,-5.1922,-5.2139,-5.2211,0.0,-5.2283,-5.2283,0.0,-5.2283,-5.2283,0.0,0.0,0.0,0.0,0.0,0.0,0.0,-5.3029,0.0,0.0,0.0,-5.4832,-5.5914,0.0,0.0,0.0,0.0,0.0,0.0,0.0,0.0,0.0,0.0,0.0,0.0,0.0,0.0,0.0,0.0,-6.1422,-6.2504,-6.2648,-6.2865,-6.3322,-6.3498,-6.4026,-6.5223,-6.5372,-6.6208,-6.7374,-6.8576,-6.8743,-6.7906,-7.0118,-7.0635,-6.9598,-7.0961,-7.1474,-7.1474,-7.1474,-7.1474,-7.1474,-7.1474,-7.1474,-7.1528,-7.2125,-7.2749,-7.3373,-7.397,-7.454,-7.5028,0.0,0.0,0.0,0.0,0.0,0.0,0.0,0.0,0.0,0.0,0.0,0.0,0.0,0.0,0.0,0.0,0.0,0.0,0.0,0.0,0.0,0.0,0.0,0.0,0.0,0.0,0.0,0.0,-4.9373,0.0,0.0,0.0,0.0,0.0,-5.06,0.0,-5.0696,0.0,0.0,0.0,0.0,0.0,0.0,-5.1754,-5.1946,-5.2018,-5.2548,-5.2932,-5.3269,0.0,-5.4303,0.0,0.0,0.0,0.0,0.0,0.0,0.0,0.0,0.0,0.0,0.0,0.0,0.0,-5.4977,0.0,-5.5289,0.0,0.0,0.0,0.0,0.0,0.0,0.0,0.0,0.0,0.0,0.0,0.0,0.0,0.0,0.0,0.0,0.0,0.0,0.0,0.0,-6.2672,-6.2889,-6.3177,-6.3498,-6.4178,-6.505,-6.5717,-6.6208,-6.7569,-6.7906,-6.7374,-6.9433,-6.9954,-6.9433,-7.0798,-7.1123,-7.0282,-7.115,-7.0961,-7.0282,-7.115,-7.1691,-7.2044,-7.2668,-7.3075,-7.34,-7.4323,-7.4811,-7.5028,0.0,0.0,0.0,0.0,0.0,0.0,0.0,0.0,0.0,0.0,0.0,0.0,-4.2018,-4.2481,0.0,0.0,0.0,-4.7046,0.0,0.0,-4.8939,0.0,0.0,0.0,0.0,0.0,0.0,0.0,0.0,0.0,0.0,0.0,0.0,0.0,0.0,-5.0792,-5.0912,0.0,0.0,-5.1177,-5.1706,-5.2187,-5.2596,-5.2836,-5.3004,-5.3197,-5.375,-5.4183,-5.4568,-5.5193,-5.5674,0.0,-5.6011,0.0,0.0,0.0,0.0,0.0,-5.5385,0.0,0.0,0.0,0.0,0.0,0.0,0.0,0.0,0.0,0.0,0.0,0.0,0.0,0.0,0.0,0.0,0.0,0.0,0.0,0.0,0.0,0.0,0.0,0.0,0.0,0.0,-6.0965,-6.1831,-6.2432,-6.2576,-6.3081,-6.3346,-6.3346,-6.4353,-6.505,-6.5372,-6.6379,-6.6891,-6.6891,-6.8241,-6.8909,-6.8909,-7.0282,-7.0635,-7.0118,-7.1123,-7.0961,-7.0118,-7.1123,-7.1826,-7.2423,-7.3048,-7.34,-7.3644,-7.4648,-7.5028,-7.5028,0.0,-4.5536,0.0,0.0,0.0,0.0,0.0,0.0,0.0,0.0,0.0,0.0,0.0,0.0,0.0,0.0,0.0,-4.7734,-4.824,0.0,-4.8263,0.0,0.0,0.0,0.0,0.0,0.0,0.0,0.0,0.0,0.0,0.0,0.0,0.0,0.0,-5.0984,-5.1465,-5.1465,-5.1754,-5.2283,-5.2812,-5.3918,-5.5217,0.0,-5.4856,-5.5361,-5.5938,0.0,0.0,-5.5578,-5.5409,0.0,0.0,0.0,0.0,0.0,0.0,0.0,0.0,0.0,0.0,-5.5385,0.0,0.0,0.0,0.0,-5.6371,0.0,0.0,0.0,0.0,0.0,0.0,0.0,0.0,0.0,0.0,0.0,0.0,0.0,0.0,0.0,0.0,0.0,0.0,-6.0917,-6.1494,-6.2047,-6.2552,-6.3081,-6.3346,-6.3346,-6.3346,-6.4026,-6.5372,-6.5372,-6.5372,-6.5545,-6.6891,-6.7374,-6.7543,-6.8909,-7.0118,-7.1474,-7.1474,-7.1474,-7.1474,-7.1474,-7.1826,-7.2423,-7.3048,-7.3644,-7.4214,-7.4811,-7.5028,-7.5028,0.0,0.0,0.0,0.0,0.0,0.0,0.0,-4.0224,0.0,0.0,0.0,0.0,0.0,0.0,-4.3009,0.0,0.0,-4.5444,-4.6655,-4.6677,0.0,0.0,0.0,-4.9054,0.0,0.0,0.0,0.0,0.0,0.0,0.0,0.0,0.0,0.0,0.0,-5.1513,0.0,0.0,0.0,0.0,0.0,-5.5145,-5.5938,0.0,0.0,-5.5938,-5.5746,-5.5914,0.0,-5.6419,-5.6708,-5.6997,-5.6997,-5.6997,-5.6925,-5.6564,-5.6468,0.0,0.0,0.0,-5.6468,-5.6468,0.0,0.0,0.0,0.0,0.0,0.0,0.0,0.0,0.0,0.0,0.0,0.0,0.0,0.0,0.0,0.0,0.0,0.0,0.0,0.0,0.0,0.0,0.0,-6.0412,-6.0941,-6.1494,-6.2047,-6.2552,-6.2985,-6.3322,-6.3346,-6.3498,-6.4026,-6.4876,-6.4876,-6.4026,-6.6379,-6.6891,-6.6036,-6.74,-6.7906,-6.7569,-6.9267,-6.9598,-6.8909,-7.0798,-7.2071,-7.2993,-7.321,-7.3889,-7.4757,-7.4947,-7.5028,-7.5028,-4.2827,0.0,0.0,0.0,0.0,0.0,0.0,0.0,0.0,0.0,-4.2281,0.0,-4.3359,0.0,-4.2122,0.0,-4.4086,-4.4301,-4.5361,-4.6138,0.0,-4.7953,-4.8543,0.0,0.0,0.0,0.0,0.0,0.0,-5.1273,0.0,0.0,0.0,0.0,0.0,0.0,0.0,0.0,-5.3606,0.0,0.0,-5.6179,0.0,0.0,-5.6852,-5.6492,0.0,-5.6492,-5.6852,-5.7189,-5.7526,-5.7838,-5.8031,-5.8079,-5.7983,-5.7454,-5.7309,-5.7261,-5.7069,-5.7021,0.0,-5.7021,-5.7021,0.0,-5.7021,0.0,0.0,0.0,0.0,0.0,0.0,0.0,0.0,0.0,0.0,0.0,0.0,0.0,0.0,0.0,0.0,0.0,0.0,0.0,-5.9402,-6.0123,-6.0484,-6.1013,0.0,0.0,-6.2817,-6.3322,-6.3346,-6.3346,-6.3346,-6.4202,-6.4202,-6.3346,-6.5025,-6.5692,-6.5372,-6.6208,-6.655,-6.6208,-6.8409,-6.8909,-6.8241,-6.9954,-7.1688,-7.3292,-7.2766,-7.3635,-7.5028,-7.5028,-7.5028,-7.5028,0.0,0.0,0.0,0.0,-4.2792,0.0,0.0,0.0,-4.4082,0.0,-4.3585,-4.5213,-4.3877,-4.2256,-4.2746,-4.6204,-4.518,0.0,-4.47,-4.6279,0.0,0.0,-4.8748,-5.042,-5.2113,0.0,0.0,0.0,0.0,0.0,0.0,0.0,0.0,0.0,-5.2379,0.0,-5.3918,-5.4471,-5.5001,-5.5578,-5.666,-5.7093,-5.7213,-5.8223,0.0,-5.7165,-5.767,-5.7838,-5.7838,-5.7838,-5.7838,-5.7935,-5.844,-5.8608,-5.8488,-5.8007,-5.7838,-5.7742,-5.7237,-5.7093,-5.7093,-5.7093,0.0,0.0,0.0,0.0,-5.7045,0.0,0.0,0.0,0.0,0.0,0.0,0.0,0.0,0.0,0.0,0.0,0.0,0.0,0.0,0.0,0.0,-5.8584,-5.9017,-6.0051,-6.0123,-6.0604,0.0,0.0,-6.2744,-6.3298,-6.3322,-6.3346,-6.3346,-6.3346,-6.3346,-6.3346,-6.3346,-6.4026,-6.5397,-6.5397,-6.6036,-6.7205,-6.8576,-6.9267,-6.9267,-6.9267,-7.081,-7.3126,-7.1681,-7.2738,-7.5028,-7.5028,-7.5028,-7.5028,-4.3751,-4.4198,-4.3826,0.0,-4.1163,-4.0808,0.0,0.0,0.0,0.0,-4.288,-4.3587,-4.5707,-4.3583,-4.2922,-4.5179,-4.5044,0.0,0.0,0.0,0.0,-4.5502,-4.5814,-4.751,-5.0272,-5.042,0.0,-5.2283,0.0,0.0,-5.2283,0.0,0.0,0.0,0.0,0.0,-5.5025,-5.5578,-5.6131,-5.6684,-5.7766,-5.8199,0.0,0.0,-5.844,-5.8223,-5.8343,-5.8392,-5.8392,-5.8392,-5.8392,-5.8416,-5.856,-5.8608,-5.856,-5.844,-5.8392,-5.8367,-5.8223,-5.8199,-5.8199,-5.8199,-5.8199,-5.8079,0.0,0.0,0.0,0.0,0.0,0.0,0.0,0.0,0.0,0.0,0.0,0.0,0.0,0.0,0.0,0.0,0.0,0.0,-5.7959,-5.8367,-5.8872,-5.9546,-5.9594,-6.0051,-6.1133,0.0,0.0,-6.2744,-6.3153,-6.3346,-6.3346,-6.3346,-6.3346,-6.3346,-6.3346,-6.3498,-6.3851,-6.3851,-6.4026,-6.4353,-6.5889,-6.7061,-6.788,-6.788,-7.0119,-7.3126,-7.1681,-7.2738,-7.5028,-7.5028,-7.5028,-7.5028,-4.4521,0.0,0.0,-4.3009,0.0,0.0,-4.084,0.0,0.0,-4.2786,-4.3014,0.0,-4.466,-4.3539,-4.3096,-4.4381,-4.4583,0.0,0.0,0.0,0.0,-4.7496,-4.9285,-5.0995,-5.2905,-5.267,0.0,-5.4015,0.0,0.0,-5.3991,0.0,0.0,0.0,0.0,-5.5121,0.0,-5.6251,-5.7021,-5.7742,-5.8103,0.0,0.0,-5.9113,-5.9281,-5.9353,-5.9834,-5.9546,-5.8969,-5.9209,-5.945,-5.9666,-5.9907,-6.0003,-5.9955,-5.9714,-5.9642,-5.9594,-5.9353,-5.9281,-5.9281,-5.9281,-5.9281,-5.9161,-5.8608,-5.8488,-5.8416,0.0,0.0,0.0,0.0,0.0,0.0,0.0,0.0,0.0,0.0,0.0,0.0,0.0,-5.7021,0.0,-5.743,-5.7742,-5.8223,-5.8993,-5.9041,-5.9498,0.0,0.0,0.0,-6.2552,-6.3081,-6.3346,-6.3346,-6.3346,-6.3346,-6.3346,-6.3346,-6.3346,-6.3346,-6.3346,-6.3346,-6.3346,-6.4876,-6.6208,-6.7374,-6.672,-6.8747,-7.2292,-7.2096,-7.2851,-7.415,-7.4832,-7.5028,-7.5028,0.0,0.0,0.0,0.0,0.0,0.0,0.0,-4.2893,0.0,-4.2408,0.0,-4.4156,-4.3139,-4.3229,-4.3641,-4.4159,0.0,-4.4797,-4.5,-4.8505,-5.0357,-5.0192,-5.3564,-5.548,-5.58,-5.5534,0.0,0.0,0.0,0.0,0.0,0.0,0.0,0.0,0.0,0.0,0.0,-5.6828,-5.779,0.0,-5.8271,-5.844,-5.9017,-6.0003,-6.0388,-6.0508,-6.147,-6.0893,-5.9786,-6.0243,-6.07,-6.1133,-6.1566,-6.1686,-6.159,-6.1013,-6.0869,-6.0748,-6.0291,-6.0171,-6.0171,-6.0171,-6.0171,-6.0027,-5.9498,-5.9378,-5.9378,-5.9305,-5.9281,-5.9281,0.0,0.0,0.0,0.0,0.0,0.0,0.0,0.0,0.0,0.0,0.0,0.0,0.0,-5.7093,-5.7502,-5.8416,-5.8488,-5.8945,0.0,0.0,0.0,-6.2456,-6.3033,-6.3346,-6.3346,0.0,-6.3346,-6.3346,-6.3346,-6.3346,-6.3346,-6.3346,-6.3346,-6.3346,-6.4527,-6.5889,-6.7061,-6.5717,-6.738,-7.094,-7.2295,-7.309,-7.3263,-7.4491,-7.5028,-7.5198,0.0,0.0,0.0,0.0,0.0,-4.2422,-4.2695,-4.2821,-4.3221,-4.4816,-4.4321,0.0,-4.5882,-4.5211,-4.5193,-4.6739,-4.6967,0.0,0.0,0.0,0.0,-4.6116,-4.6683,-4.7712,-4.9166,-5.0556,-5.1965,0.0,0.0,0.0,0.0,0.0,0.0,0.0,0.0,0.0,-5.8055,-5.8247,0.0,-5.9281,-5.9618,-6.0075,-6.0628,-6.1277,-6.1518,-6.1542,-6.1734,-6.1614,-6.1398,-6.1494,-6.1566,-6.159,-6.1229,-6.1109,-6.1013,-6.0484,-6.0315,-6.0291,-6.0195,-6.0171,-6.0171,-6.0171,-6.0171,-6.0027,-5.9498,-5.9378,-5.9257,-5.8824,-5.8728,-5.8728,-5.8728,0.0,0.0,0.0,0.0,0.0,0.0,0.0,0.0,0.0,0.0,0.0,0.0,0.0,0.0,0.0,-5.7959,-5.8416,0.0,0.0,0.0,0.0,-6.2841,0.0,0.0,0.0,-6.3346,-6.3346,-6.3346,-6.3346,-6.3346,-6.3346,-6.3346,-6.3346,-6.3498,-6.4527,-6.5717,-6.4178,-6.6018,-6.9739,-7.1948,-7.3634,-7.4662,-7.4832,-7.5535,-7.6234,0.0,0.0,0.0,0.0,0.0,0.0,0.0,-4.435,0.0,-4.4862,-4.46,-4.4789,-4.5804,-4.5588,-4.5694,-4.6506,-4.6706,-4.6524,-4.5683,-4.7561,-4.8686,-4.8835,-5.0082,0.0,-5.3221,-5.3815,-5.4511,-5.5315,0.0,0.0,0.0,0.0,0.0,0.0,0.0,-5.779,0.0,0.0,0.0,-6.0219,-6.0484,-6.0917,-6.1422,-6.1686,-6.1807,-6.1807,-6.1807,-6.1975,-6.2167,-6.1903,-6.1807,-6.1758,-6.1494,-6.1398,-6.135,-6.1085,-6.1013,-6.1013,-6.1013,-6.1013,-6.1013,-6.1013,-6.1013,-6.0869,-6.0339,-6.0195,-6.0123,-5.9883,-5.9834,-5.9834,-5.9834,-5.9378,0.0,0.0,0.0,0.0,0.0,0.0,0.0,0.0,0.0,0.0,0.0,0.0,0.0,0.0,0.0,0.0,0.0,0.0,0.0,0.0,0.0,0.0,0.0,0.0,0.0,-6.3346,-6.3346,-6.3346,-6.3346,-6.3346,-6.3346,-6.3346,-6.3346,-6.4026,-6.5421,-6.5316,-6.6716,-6.9393,-7.105,-7.2193,-7.3063,-7.4491,-7.4947,-7.5062,0.0,-4.5113,0.0,0.0,-4.4678,0.0,0.0,-4.5688,-4.4147,-4.5025,-4.5111,-4.5024,-4.5293,-4.5605,-4.584,-4.5937,-4.625,-4.664,-4.7069,-4.8923,-5.0477,-5.183,-5.3735,-5.5144,-5.6197,-5.6655,-5.6772,0.0,-5.6719,0.0,0.0,0.0,0.0,0.0,0.0,0.0,0.0,0.0,-6.0339,-6.1301,-6.1181,-6.1542,-6.2119,-6.1999,-6.2023,-6.2119,-6.2119,-6.2336,-6.2528,-6.2095,-6.2047,-6.2119,-6.1999,-6.1975,-6.1951,-6.1831,-6.1807,-6.1807,-6.1807,-6.1807,-6.1807,-6.1807,-6.1807,-6.1686,-6.1253,-6.1133,-6.1133,-6.1133,-6.1037,-6.0965,-6.0965,-6.0195,0.0,0.0,0.0,0.0,0.0,0.0,0.0,0.0,0.0,0.0,0.0,0.0,0.0,0.0,0.0,-5.7911,-5.856,-6.0003,0.0,0.0,0.0,-6.3346,-6.3346,0.0,-6.3346,0.0,-6.3346,-6.3346,-6.3346,-6.3346,-6.3346,-6.3346,-6.3346,-6.3851,-6.495,-6.6035,-6.7366,-6.8871,-7.0347,-7.0782,-7.1137,-7.378,-7.441,-7.4105,0.0,0.0,0.0,0.0,0.0,0.0,0.0,-4.5547,-4.5566,-4.7535,-4.6233,-4.5242,-4.6133,-4.623,-4.6406,-4.6777,-4.6855,-4.772,-4.9826,-5.0239,-5.0435,-5.061,-5.0827,-5.0166,-4.8613,-5.185,-5.3527,0.0,-5.5199,-5.5639,0.0,0.0,0.0,0.0,0.0,0.0,0.0,-6.082,-6.1446,-6.2384,-6.1903,-6.2312,-6.3153,-6.2696,-6.2793,-6.3201,-6.3201,-6.2937,-6.2576,-6.2528,-6.2817,-6.3129,-6.2648,-6.2528,-6.2432,-6.1951,-6.1807,-6.1807,-6.1807,-6.1807,-6.1807,-6.1807,-6.1807,-6.1782,-6.1734,-6.1734,-6.1734,-6.1734,-6.1326,-6.0965,-6.0965,-6.0484,-6.0099,0.0,0.0,0.0,0.0,0.0,0.0,0.0,0.0,0.0,0.0,0.0,0.0,0.0,0.0,-5.7526,-5.8536,-5.9642,-6.0724,-6.1758,0.0,-6.3346,-6.3346,-6.3346,-6.3346,-6.3346,-6.3346,-6.3346,-6.3346,-6.3346,-6.3346,-6.3346,-6.3346,-6.3346,-6.3595,-6.4656,-6.5966,-6.7466,-6.979,-7.0782,-7.096,-7.309,-7.4437,-7.5371,0.0,0.0,0.0,0.0,0.0,0.0,0.0,-4.556,-4.5535,-4.7989,-4.7089,-4.6738,-4.8189,-4.8601,-4.8838,-4.902,-4.904,-4.8945,-4.8771,-5.006,-5.1442,-5.2473,-5.3952,-5.4823,-5.5168,-5.6564,-5.7437,0.0,0.0,0.0,0.0,0.0,0.0,0.0,0.0,-6.1061,-6.1494,-6.1807,-6.2191,-6.26,-6.2696,-6.2961,-6.3298,-6.2793,-6.272,-6.2841,-6.2528,-6.2504,-6.2576,-6.2576,-6.2504,-6.2384,-6.2167,-6.2119,-6.2071,-6.1855,-6.1807,-6.1807,-6.1807,-6.1807,-6.1807,-6.1807,-6.1807,-6.1807,-6.1807,-6.1807,-6.1807,-6.1807,-6.1614,-6.147,-6.147,-6.1301,-6.1157,0.0,0.0,0.0,0.0,0.0,0.0,0.0,0.0,-5.9786,0.0,0.0,0.0,0.0,0.0,-5.7478,-5.8536,-5.9594,-6.0676,-6.1758,0.0,-6.3346,-6.3346,-6.3346,-6.3346,-6.3346,-6.3346,-6.3346,-6.3346,-6.3346,-6.3346,-6.3346,-6.3346,-6.3346,-6.3418,-6.4476,-6.5787,-6.7289,-6.8924,-7.0069,-7.096,-7.1666,-7.3356,-7.5539,-4.332,0.0,-4.3588,0.0,-4.5211,-4.4999,-4.6714,-4.6105,-4.597,-4.7173,-4.748,-4.8097,-4.9623,-4.9664,-4.9903,-5.0025,-5.0381,-5.0203,-4.8812,-5.0847,-5.25,-5.3335,-5.5597,0.0,-5.8138,-5.9218,-5.9754,-5.9754,-5.9754,0.0,0.0,0.0,0.0,0.0,-6.1446,-6.1879,-6.2071,-6.26,-6.2817,-6.2817,-6.3033,-6.3201,-6.3298,-6.2793,-6.2672,-6.2768,-6.2384,-6.248,-6.2817,-6.2817,-6.2552,-6.2263,-6.2263,-6.2263,-6.2263,-6.2263,-6.2263,-6.2263,-6.2263,-6.2263,-6.2263,-6.2263,-6.2263,-6.2263,-6.2263,-6.2263,-6.2263,-6.2263,-6.2143,-6.2023,-6.2023,-6.1903,-6.1807,-6.1807,0.0,0.0,0.0,0.0,0.0,0.0,-6.0508,-6.0171,-6.0171,0.0,0.0,0.0,0.0,0.0,-5.9017,-5.9907,0.0,0.0,0.0,0.0,0.0,-6.3346,-6.3346,-6.3346,-6.3346,-6.3346,-6.3346,-6.3346,-6.3346,-6.3346,-6.3346,-6.3346,-6.3418,-6.4308,-6.5281,-6.6577,-6.839,-6.9559,-7.0248,-7.1314,-7.301,-7.4866,-4.4636,-4.4636,-4.5185,-4.6638,-4.6799,-4.6799,-4.6819,-4.7179,-4.6972,-4.5594,-4.7453,-4.9071,-4.9633,-4.8748,-4.8379,-4.8808,-5.0601,-5.1667,-5.1667,-5.3437,-5.383,0.0,0.0,-5.4719,-5.3218,-5.7022,-5.8847,-5.8847,0.0,0.0,-5.8241,0.0,-5.9116,-6.1782,-6.1782,-6.2095,-6.26,-6.3105,-6.3322,-6.3298,-6.2793,-6.2889,-6.3298,-6.2793,-6.2889,-6.3322,-6.3322,-6.3322,-6.3322,-6.3322,-6.3322,-6.3322,-6.3322,-6.3322,-6.3322,-6.3322,-6.3322,-6.3322,-6.3322,-6.3322,-6.3322,-6.3322,-6.3322,-6.3322,-6.3322,-6.3322,-6.3322,-6.3322,-6.2913,-6.2576,-6.2576,-6.2143,-6.1807,-6.1807,0.0,0.0,0.0,0.0,0.0,-6.1037,-6.0508,-6.0171,-6.0171,0.0,0.0,0.0,0.0,0.0,0.0,0.0,0.0,-6.2552,-6.3081,0.0,-6.3346,-6.3346,-6.3346,-6.3346,-6.3346,-6.3346,-6.3346,-6.3346,-6.3346,-6.3346,-6.3346,-6.3346,-6.337,-6.3923,-6.4452,-6.5319,-6.8676,-6.9409,-6.8989,-7.2394,-7.3236,-7.3183,-4.4673,-4.4673,-4.5222,-4.6476,-4.6177,-4.6182,-4.7079,-4.6776,-4.6652,-4.7155,-4.7341,-4.8011,-4.9782,-5.0964,-5.1363,0.0,-5.1326,-5.1166,0.0,-5.3062,-5.4195,-5.2574,-5.5929,-5.6888,-5.5237,-5.6324,-5.7761,-5.9375,0.0,0.0,0.0,-6.1485,-6.1955,-6.2841,-6.2841,-6.2744,-6.2624,-6.3129,-6.3153,-6.2841,-6.3033,-6.3201,-6.3322,-6.3153,-6.3201,-6.3346,-6.3346,-6.3346,-6.3346,-6.3346,-6.3346,-6.3346,-6.3346,-6.3346,-6.3346,-6.3346,-6.3346,-6.3346,-6.3346,-6.3346,-6.3346,-6.3346,-6.3346,-6.3346,-6.3346,-6.3346,-6.3346,-6.3346,-6.3201,-6.3105,-6.3105,-6.2961,-6.2841,-6.2841,-6.2841,0.0,0.0,0.0,0.0,-6.2095,-6.1614,-6.1422,0.0,-6.0989,0.0,0.0,0.0,0.0,0.0,0.0,0.0,0.0,-6.3081,0.0,-6.3346,-6.3346,-6.3346,-6.3346,-6.3346,-6.3346,-6.3346,-6.3346,-6.3346,-6.3346,-6.3346,-6.3346,-6.337,-6.3899,-6.4452,-6.4957,-6.6553,-6.8335,-7.0069,-7.0248,-7.2341,-7.5312,-4.5132,-4.5132,-4.5501,-4.622,-4.6445,-4.6429,-4.6781,-4.6821,-4.6803,-4.7177,-4.7309,-4.7873,-4.8891,-5.082,0.0,-5.0905,-5.1594,-5.1067,-4.9287,-5.2226,-5.345,-5.2003,-5.5183,-5.688,-5.6509,0.0,0.0,-6.1001,-6.1001,-6.1901,-6.3346,-6.3153,-6.3057,-6.3057,-6.3057,-6.2889,-6.2624,-6.3129,-6.3153,-6.2889,-6.3201,-6.3346,-6.3346,-6.3346,-6.3346,-6.3346,-6.3346,-6.3346,-6.3346,-6.3346,-6.3346,-6.3346,-6.3346,-6.3346,-6.3346,-6.3346,-6.3346,-6.3346,-6.3346,-6.3346,-6.3346,-6.3346,-6.3346,-6.3346,-6.3346,-6.3346,-6.3346,-6.3346,-6.3346,-6.3346,-6.3346,-6.3346,-6.3346,-6.3346,-6.3346,-6.3346,-6.3346,0.0,-6.2793,0.0,0.0,0.0,0.0,-6.1855,0.0,0.0,0.0,0.0,0.0,0.0,0.0,-6.2841,-6.3177,0.0,-6.3346,-6.3346,-6.3346,-6.3346,-6.3346,-6.3346,-6.3346,-6.3346,-6.3346,-6.3346,-6.3346,-6.3346,-6.337,-6.3682,-6.426,-6.4933,-6.5791,-6.7801,-7.0069,-7.0248,-7.1992,-7.4635,-4.5883,-4.5883,0.0,0.0,-4.7028,0.0,-4.6145,-4.7084,-4.7626,-4.6164,-4.7592,-4.8385,-4.7458,-4.9108,-5.013,-4.9777,0.0,0.0,0.0,-5.1535,-5.2086,-5.1277,-5.3153,-5.5192,-5.7295,-5.9157,-6.1039,-6.3097,-6.3145,-6.3346,-6.3322,-6.2865,-6.2648,-6.2648,-6.2648,-6.2648,-6.2672,-6.3129,-6.3346,-6.3346,-6.3346,-6.3346,-6.3346,-6.3346,-6.3346,-6.3346,-6.3346,-6.3346,-6.3346,-6.3346,-6.3346,-6.3346,-6.3346,-6.3346,-6.3346,-6.3346,-6.3346,-6.3346,-6.3346,-6.3346,-6.3346,-6.3346,-6.3346,-6.3346,-6.3346,-6.3346,-6.3346,-6.3346,-6.3346,-6.3346,-6.3346,-6.3346,-6.3346,-6.3346,-6.3346,-6.3346,-6.3346,0.0,-6.3177,0.0,0.0,0.0,0.0,-6.236,-6.2624,0.0,0.0,0.0,0.0,0.0,-6.2865,-6.3322,-6.3346,-6.3346,-6.3346,-6.3346,-6.3346,-6.3346,-6.3346,-6.3346,-6.3346,-6.3346,-6.3346,-6.3346,-6.3346,-6.3346,-6.3346,-6.337,-6.3995,-6.509,-6.6527,-6.7707,-6.8989,-7.1666,-7.2219,-7.2018,0.0,0.0,-4.5993,-4.6287,-4.6722,-4.6814,-4.6764,-4.7202,-4.7184,-4.6819,-4.8214,-4.9204,-4.9393,-5.0981,-5.1958,-5.225,-5.0922,-5.0714,-5.2189,-5.3992,-5.5012,-5.486,-5.6681,-5.7289,-5.6494,-5.6858,-5.8323,-6.0528,-6.2398,-6.3346,-6.3346,-6.3225,-6.3153,-6.3153,-6.3153,-6.3153,-6.3177,-6.3298,-6.3346,-6.3346,-6.3346,-6.3346,-6.3346,-6.3346,-6.3346,-6.3346,-6.3346,-6.3346,-6.3346,-6.3346,-6.3346,-6.3346,-6.3346,-6.3346,-6.3346,-6.3346,-6.3346,-6.3346,-6.3346,-6.3346,-6.3346,-6.3346,-6.3346,-6.3346,-6.3346,-6.3346,-6.3346,-6.3346,-6.3346,-6.3346,-6.3346,-6.3346,-6.3346,-6.3346,-6.3346,-6.3346,-6.3346,-6.3346,0.0,0.0,-6.3153,-6.3105,-6.2985,-6.3081,-6.3009,0.0,0.0,0.0,0.0,-6.3009,-6.3225,-6.3346,-6.3346,-6.3346,-6.3346,-6.3346,-6.3346,-6.3346,-6.3346,-6.3346,-6.3346,-6.3346,-6.3346,-6.3346,-6.3346,-6.3346,-6.337,-6.3779,-6.4332,-6.4957,-6.5706,-6.7151,-6.8627,-6.9351,-7.0782,-7.289,-4.6452,-4.6452,-4.6507,-4.6727,-4.6764,-4.7029,-4.8001,-4.748,-4.7287,-4.8038,-4.8957,-4.9455,-4.9071,-5.0586,-5.1848,-5.2417,-5.1677,-5.1892,-5.3922,-5.5031,-5.6034,-5.6618,-5.7712,-5.8097,-5.8097,-5.8097,-5.9135,-6.1427,-6.2647,-6.3346,-6.3346,-6.3346,-6.3346,-6.3346,-6.3346,-6.3346,-6.3346,-6.3346,-6.3346,-6.3346,-6.3346,-6.3346,-6.337,-6.361,-6.3706,-6.373,-6.3971,-6.4067,-6.4019,-6.3779,-6.3706,-6.3658,-6.3418,-6.3346,-6.3346,-6.3346,-6.3346,-6.3346,-6.3346,-6.3346,-6.3346,-6.3346,-6.3346,-6.3346,-6.3346,-6.3346,-6.3346,-6.3346,-6.3346,-6.3346,-6.3346,-6.3346,-6.3346,-6.3346,-6.3346,-6.3346,-6.3346,-6.3346,0.0,-6.3346,-6.3346,-6.3346,-6.3346,-6.3346,-6.3225,-6.2961,-6.3177,0.0,-6.2937,-6.3177,-6.3346,-6.3346,-6.3346,-6.3346,-6.3346,-6.3346,-6.3346,-6.3346,-6.3346,-6.3346,-6.3346,-6.3346,-6.3346,-6.3346,-6.3346,-6.3346,-6.337,-6.3899,-6.4452,-6.4957,-6.5486,-6.6567,-6.7739,-6.8288,-6.9711,-7.1516,-4.7112,-4.7112,-4.713,-4.7185,-4.7204,-4.7591,-4.8957,-4.8033,-4.7665,-4.8976,-4.9646,-4.9683,-4.8555,-5.0221,-5.1581,-5.2354,-5.3275,-5.4482,-5.5686,-5.6078,-5.6805,-5.8307,-5.8329,-5.9064,-6.0748,-6.084,-6.1788,-6.3466,-6.3538,-6.3586,-6.3586,-6.3586,-6.3586,-6.3586,-6.3586,-6.3586,-6.3586,-6.3586,-6.3586,-6.3586,-6.3586,-6.3586,-6.3634,-6.4067,-6.4235,-6.4308,-6.4765,-6.4909,-6.4837,-6.4404,-6.4235,-6.4163,-6.3634,-6.3466,-6.3442,-6.337,-6.3346,-6.3346,-6.3346,-6.3346,-6.3346,-6.3346,-6.3346,-6.3346,-6.3346,-6.3346,-6.3346,-6.3346,-6.3346,-6.3346,-6.3346,-6.3346,-6.3346,-6.3346,-6.3346,-6.3346,-6.3346,0.0,-6.3346,-6.3346,-6.3346,-6.3346,-6.3346,-6.3346,-6.3346,-6.3346,-6.3346,-6.3346,0.0,-6.3346,-6.3346,-6.3346,-6.3346,-6.3346,-6.3346,-6.3346,-6.3346,-6.3346,-6.3346,-6.3346,-6.3346,-6.3346,-6.3346,-6.3346,-6.3346,-6.3346,-6.3394,-6.3995,-6.4524,-6.4981,-6.5582,-6.6087,-6.6682,-6.7922,-6.8833,-6.9401,-4.7112,-4.7112,-4.7222,-4.7552,-4.7607,-4.7717,-4.8441,-4.83,-4.83,-4.8478,-4.9712,-5.0901,-5.2062,-5.3447,-5.5031,-5.6371,-5.7214,-5.7754,-5.8241,-5.9157,-6.0475,-6.2232,-6.241,-6.2588,-6.279,-6.3219,-6.3637,-6.3995,-6.4452,-6.4668,-6.4668,-6.4668,-6.4668,-6.4668,-6.4668,-6.4668,-6.4668,-6.4668,-6.4668,-6.4668,-6.4668,-6.4668,-6.4668,-6.4765,-6.4789,-6.4813,-6.4885,-6.4909,-6.4909,-6.4813,-6.4789,-6.4692,-6.4163,-6.3995,-6.3923,-6.3466,-6.3346,-6.3346,-6.3346,-6.3346,-6.3346,-6.3346,-6.3346,-6.3346,-6.3346,-6.3346,-6.3346,-6.3346,-6.3346,-6.3346,-6.3346,-6.3346,-6.3346,-6.3346,-6.3346,-6.3346,-6.3346,0.0,-6.3346,-6.3346,-6.3346,-6.3346,-6.3346,-6.3346,-6.3346,-6.3346,-6.3346,-6.3346,-6.3346,-6.3346,-6.3346,-6.3346,-6.3346,-6.3346,-6.3346,-6.3346,-6.3346,-6.3346,-6.3346,-6.3346,-6.3346,-6.3346,-6.3346,-6.3346,-6.3346,-6.3346,-6.3418,-6.438,-6.4837,-6.5005,-6.5991,-6.6424,-6.6496,-6.6682,-6.7947,-6.9556,-4.7736,-4.7736,-4.7791,-4.7974,-4.8011,-4.8656,-5.0569,-5.0021,-5.0313,-5.207,-5.3081,-5.3568,-5.3616,-5.4993,-5.6358,-5.6931,-5.7716,-5.8686,-5.9569,-6.0682,-6.1992,-6.3264,-6.3828,-6.4187,-6.4187,-6.4428,-6.4548,-6.4548,-6.4789,-6.4909,-6.4909,-6.4909,-6.4909,-6.4909,-6.4909,-6.4909,-6.4909,-6.4909,-6.4909,-6.4909,-6.4909,-6.4909,-6.4957,-6.5221,-6.5342,-6.539,-6.5654,-6.5775,-6.5727,-6.5438,-6.5342,-6.5246,-6.4716,-6.4356,-6.4067,-6.3827,-6.3562,-6.3346,-6.3346,-6.3346,-6.3346,-6.3346,-6.3346,-6.3346,-6.3346,-6.3346,-6.3346,-6.3346,-6.3346,-6.3346,-6.3346,-6.3346,-6.3346,-6.3346,-6.3346,0.0,0.0,-6.3346,-6.3346,-6.3346,-6.3346,-6.3346,-6.3346,-6.3346,-6.3346,-6.3346,-6.3346,-6.3346,-6.3346,-6.3346,-6.3346,-6.3346,-6.3346,-6.3346,-6.3346,-6.3346,-6.3346,-6.3346,-6.3346,-6.3346,-6.3346,-6.3346,-6.3346,-6.3346,-6.3346,-6.349,-6.3827,-6.4596,-6.5077,-6.5414,-6.6183,-6.6496,-6.6496,-6.6843,-6.758,-6.8676,-4.8561,-4.8561,-4.8561,-4.8561,-4.8561,-4.9356,-5.168,-5.1112,-5.1228,-5.4086,-5.4321,-5.4248,-5.3805,-5.5221,-5.6217,-5.6605,-5.7849,-5.8895,-6.0083,-6.1495,-6.2596,-6.3449,-6.4364,-6.4909,-6.4909,-6.5029,-6.5101,-6.5101,-6.5221,-6.527,-6.527,-6.527,-6.527,-6.527,-6.527,-6.527,-6.527,-6.527,-6.527,-6.527,-6.527,-6.527,-6.5318,-6.5727,-6.5895,-6.5943,-6.6352,-6.6496,-6.6424,-6.6015,-6.5895,-6.5799,-6.527,-6.4741,-6.4284,-6.4163,-6.3754,-6.3346,-6.3346,-6.3346,-6.3346,-6.3346,-6.3346,-6.3346,-6.3346,-6.3346,-6.3346,-6.3346,-6.3346,-6.3346,-6.3346,-6.3346,-6.3346,-6.3346,0.0,0.0,0.0,-6.3346,-6.3346,-6.3346,-6.3346,-6.3346,-6.3346,-6.3346,-6.3346,-6.3346,-6.3346,-6.3346,-6.3346,-6.3346,-6.3346,-6.3346,-6.3346,-6.3346,-6.3346,-6.3346,-6.3346,-6.3346,-6.3346,-6.3346,-6.3346,-6.3346,-6.3346,-6.3346,-6.3346,-6.3634,-6.4163,-6.4692,-6.5221,-6.5751,-6.628,-6.6496,-6.6496,-6.7027,-6.758,-6.8154,-4.9404,-4.9404,-4.9404,-4.9404,-4.9404,-4.9404,-4.9809,-4.9607,-4.9625,-4.9846,-5.0049,-5.0452,-5.1858,-5.345,-5.5026,-5.6411,-5.8385,-5.9633,-5.9825,-6.1953,-6.3312,-6.3473,-6.4364,-6.4909,-6.4909,-6.539,-6.5654,-6.5654,-6.6135,-6.6376,-6.6376,-6.6376,-6.6376,-6.6376,-6.6376,-6.6376,-6.6376,-6.6376,-6.6376,-6.6376,-6.6376,-6.6376,-6.6376,-6.6424,-6.6424,-6.6448,-6.6472,-6.6496,-6.6472,-6.6448,-6.6424,-6.6352,-6.5823,-6.5294,-6.4765,-6.426,-6.3754,-6.3346,-6.3346,-6.3346,-6.3346,-6.3346,-6.3346,-6.3346,-6.3346,-6.3346,-6.3346,-6.3346,-6.3346,-6.3346,-6.3346,-6.3346,-6.3346,-6.3346,0.0,0.0,-6.3346,-6.3346,-6.3346,-6.3346,-6.3346,-6.3346,-6.3346,-6.3346,-6.3346,-6.3346,-6.3346,-6.3346,-6.3346,-6.3346,-6.3346,-6.3346,-6.3346,-6.3346,-6.3346,-6.3346,-6.3346,-6.3346,-6.3346,-6.3346,-6.3346,-6.3346,-6.3346,-6.3346,-6.3346,-6.3634,-6.4163,-6.4692,-6.5221,-6.5751,-6.628,-6.6496,-6.6496,-6.7027,-6.758,-6.8154,-4.9496,-4.9496,-4.9496,-4.9496,-4.9496,-4.9902,-5.0874,-5.0874,-5.1773,-5.4026,-5.3447,-5.3946,-5.6833,-5.6853,-5.7269,-5.8858,-5.9637,-6.0135,-6.0135,-6.1646,-6.3279,-6.5156,-6.5711,-6.5895,-6.5895,-6.6087,-6.6183,-6.6183,-6.64,-6.6496,-6.6496,-6.6496,-6.6496,-6.6496,-6.6496,-6.6496,-6.6496,-6.6496,-6.6496,-6.6496,-6.6496,-6.6496,-6.6496,-6.6496,-6.6496,-6.6496,-6.6496,-6.6496,-6.6496,-6.6496,-6.6496,-6.6448,-6.6256,-6.5606,-6.4741,-6.3899,-6.349,-6.3346,-6.3346,-6.3346,-6.3346,-6.3346,-6.3346,-6.3346,-6.3346,-6.3346,-6.3346,-6.3346,-6.3346,-6.3346,-6.3346,-6.3346,-6.3346,-6.3346,0.0,-6.3346,-6.3346,-6.3346,-6.3346,-6.3346,-6.3346,-6.3346,-6.3346,-6.3346,-6.3346,-6.3346,-6.3346,-6.3346,-6.3346,-6.3346,-6.3346,-6.3346,-6.3346,-6.3346,-6.3346,-6.3346,-6.3346,-6.3346,-6.3346,-6.3346,-6.3346,-6.3346,-6.3346,-6.3346,-6.3682,-6.4115,-6.4668,-6.5173,-6.5727,-6.6208,-6.6424,-6.6496,-6.6682,-6.7396,-6.7788,-6.8154,-4.9881,-4.9881,-4.9881,-4.9881,-5.0272,-5.1067,-5.2061,-5.2665,-5.3965,-5.6499,-5.5724,-5.6026,-5.8564,-5.8387,-5.8387,-5.9613,-6.0027,-6.0419,-6.0419,-6.137,-6.3081,-6.554,-6.554,-6.5727,-6.61,-6.6124,-6.61,-6.6496,-6.6496,-6.6496,-6.6496,-6.6496,-6.6496,-6.6496,-6.6496,-6.6496,-6.6496,-6.6496,-6.6496,-6.6496,-6.6496,-6.6496,-6.6496,-6.6496,-6.6496,-6.6496,-6.6496,-6.6496,-6.6496,-6.6496,-6.6496,-6.6496,-6.6496,-6.5775,-6.4741,-6.3851,-6.3466,-6.3346,-6.3346,-6.3346,-6.3346,-6.3346,-6.3346,-6.3346,-6.3346,-6.3346,-6.3346,-6.3346,-6.3346,-6.3346,-6.3346,-6.3346,-6.3346,-6.3346,-6.3346,-6.3346,-6.3346,-6.3346,-6.3346,-6.3346,-6.3346,-6.3346,-6.3346,-6.3346,-6.3346,-6.3346,-6.3346,-6.3346,-6.3346,-6.3346,-6.3346,-6.3346,-6.3346,-6.3346,-6.3346,-6.3346,-6.3346,-6.3346,-6.3346,-6.3346,-6.3346,-6.3346,-6.3418,-6.361,-6.3971,-6.4524,-6.5197,-6.5558,-6.6015,-6.6496,-6.6496,-6.6496,-6.6682,-6.7396,-6.7788,-6.8154,-5.0725,-5.0725,-5.0725,-5.0725,-5.2119,-5.3128,-5.3128,-5.4556,-5.5588,-5.5588,-5.5588,-5.5588,-5.5588,-5.6973,-5.799,-5.799,-5.9417,-6.0419,-6.0419,-6.137,-6.2314,-6.3462,-6.3462,-6.4009,-6.4977,-6.4977,-6.554,-6.6496,-6.6496,-6.6496,-6.6496,-6.6496,-6.6496,-6.6496,-6.6496,-6.6496,-6.6496,-6.6496,-6.6496,-6.6496,-6.6496,-6.6496,-6.6496,-6.6496,-6.6496,-6.6496,-6.6496,-6.6496,-6.6496,-6.6496,-6.6496,-6.6496,-6.6496,-6.5775,-6.4813,-6.4284,-6.3754,-6.3346,-6.3346,-6.3346,-6.3346,-6.3346,-6.3346,-6.3346,-6.3346,-6.3346,-6.3346,-6.3346,-6.3346,-6.3346,-6.3346,-6.3346,-6.3346,-6.3346,-6.3346,-6.3346,-6.3346,-6.3346,-6.3346,-6.3346,-6.3346,-6.3346,-6.3346,-6.3346,-6.3346,-6.3346,-6.3346,-6.3346,-6.3346,-6.3346,-6.3346,-6.3346,-6.3346,-6.3346,-6.3346,-6.3346,-6.3346,-6.3346,-6.3346,-6.3346,-6.3346,-6.3346,-6.3634,-6.4139,-6.4139,-6.4741,-6.5702,-6.5702,-6.6015,-6.6496,-6.6496,-6.6496,-6.6496,-6.7027,-6.758,-6.7971,-5.0725,-5.0725,-5.0725,-5.0725,-5.1122,-5.1725,-5.2923,-5.3537,-5.4739,-5.6973,-5.6393,-5.6393,-5.8804,-5.8387,-5.8387,-5.9613,-6.0223,-6.0419,-6.0419,-6.0614,-6.0982,-6.137,-6.2698,-6.4009,-6.4977,-6.4977,-6.554,-6.6496,-6.6496,-6.6496,-6.6496,-6.6496,-6.6496,-6.6496,-6.6496,-6.6496,-6.6496,-6.6496,-6.6496,-6.6496,-6.6496,-6.6496,-6.6496,-6.6496,-6.6496,-6.6496,-6.6496,-6.6496,-6.6496,-6.6496,-6.6496,-6.6424,-6.6063,-6.5462,-6.4813,-6.4284,-6.3754,-6.3346,-6.3346,-6.3346,-6.3346,-6.3346,-6.3346,-6.3346,-6.3346,-6.3346,-6.3346,-6.3346,-6.3346,-6.3346,-6.3346,-6.3346,-6.3346,-6.3346,-6.3346,-6.3346,-6.3346,-6.3346,-6.3346,-6.3346,-6.3346,-6.3346,-6.3346,-6.3346,-6.3346,-6.3346,-6.3346,-6.3346,-6.3346,-6.3346,-6.3346,-6.3346,-6.3346,-6.3346,-6.3346,-6.3346,-6.3346,-6.3346,-6.3346,-6.3538,-6.3899,-6.3899,-6.4187,-6.4692,-6.5077,-6.5414,-6.5727,-6.6111,-6.6352,-6.6496,-6.6496,-6.6496,-6.6496,-6.7027,-6.7212,-6.758,-5.0725,-5.0725,-5.0725,-5.0725,-5.133,-5.1913,-5.2923,-5.3741,-5.4961,-5.7572,-5.7173,-5.7593,-6.0027,-5.9613,-5.9395,-6.0223,-6.0419,-6.0419,-6.0419,-6.0419,-6.0419,-6.0419,-6.1564,-6.2889,-6.4411,-6.4411,-6.5165,-6.6496,-6.6496,-6.6496,-6.6496,-6.6496,-6.6496,-6.6496,-6.6496,-6.6496,-6.6496,-6.6496,-6.6496,-6.6496,-6.6496,-6.6496,-6.6496,-6.6496,-6.6496,-6.6496,-6.6496,-6.6496,-6.6496,-6.6496,-6.6496,-6.6424,-6.6111,-6.551,-6.4861,-6.4524,-6.3923,-6.3346,-6.3346,-6.3346,-6.3346,-6.3346,-6.3346,-6.3346,-6.3346,-6.3346,-6.3346,-6.3346,-6.3346,-6.3346,-6.3346,-6.3346,-6.3346,-6.3346,-6.3346,-6.3346,-6.3346,-6.3346,-6.3346,-6.3346,-6.3346,-6.3346,-6.3346,-6.3346,-6.3346,-6.3346,-6.3538,-6.3658,-6.3658,-6.3851,-6.3971,-6.3971,-6.3971,-6.3971,-6.3971,-6.3971,-6.3851,-6.3658,-6.3851,-6.4115,-6.4452,-6.4452,-6.4716,-6.5246,-6.5558,-6.5823,-6.6039,-6.6352,-6.6496,-6.6496,-6.6496,-6.6496,-6.6496,-6.6843,-6.7027,-6.7212,-5.0725,-5.0725,-5.0725,-5.0725,-5.1913,-5.2923,-5.3128,-5.4556,-5.6192,-5.7771,-5.8189,-5.8804,-6.0223,-6.0419,-6.0419,-6.0419,-6.0419,-6.0419,-6.0419,-6.0419,-6.0419,-6.0419,-6.0419,-6.137,-6.3272,-6.3462,-6.4411,-6.631,-6.6496,-6.6496,-6.6496,-6.6496,-6.6496,-6.6496,-6.6496,-6.6496,-6.6496,-6.6496,-6.6496,-6.6496,-6.6496,-6.6496,-6.6496,-6.6496,-6.6496,-6.6496,-6.6496,-6.6496,-6.6496,-6.6496,-6.6496,-6.6496,-6.6496,-6.5799,-6.4981,-6.4933,-6.4187,-6.3394,-6.3346,-6.3346,-6.3346,-6.3346,-6.3346,-6.3346,-6.3346,-6.3346,-6.3346,-6.3346,-6.3346,-6.3346,-6.3346,-6.3346,-6.3346,-6.3346,-6.3346,-6.3346,-6.3346,-6.3346,-6.3346,-6.3346,-6.337,-6.3418,-6.3418,-6.3442,-6.349,-6.349,-6.3923,-6.4187,-6.4187,-6.4644,-6.4909,-6.4909,-6.4909,-6.4909,-6.4909,-6.4957,-6.4716,-6.4211,-6.4692,-6.4933,-6.4981,-6.4981,-6.527,-6.5775,-6.5775,-6.6039,-6.6496,-6.6496,-6.6496,-6.6496,-6.6496,-6.6496,-6.6496,-6.6496,-6.6843,-6.7212,-5.0725,-5.0725,-5.0725,-5.0725,-5.0914,-5.1725,-5.2923,-5.4556,-5.6192,-5.7771,-5.9001,-6.0027,-6.0419,-6.0419,-6.0419,-6.0419,-6.0419,-6.0419,-6.0419,-6.0419,-6.0419,-6.0419,-6.0419,-6.0982,-6.2121,-6.3081,-6.4033,-6.5353,-6.61,-6.6496,-6.6496,-6.6496,-6.6496,-6.6496,-6.6496,-6.6496,-6.6496,-6.6496,-6.6496,-6.6496,-6.6496,-6.6496,-6.6496,-6.6496,-6.6496,-6.6496,-6.6496,-6.6496,-6.6496,-6.6496,-6.6496,-6.6496,-6.6496,-6.6039,-6.5438,-6.5029,-6.4452,-6.3875,-6.3442,-6.3346,-6.3346,-6.3346,-6.3346,-6.3346,-6.3346,-6.3346,-6.3346,-6.3346,-6.3346,-6.3346,-6.3346,-6.3346,-6.3346,-6.3346,-6.3346,-6.3346,-6.3346,-6.3346,-6.3346,-6.3346,-6.3706,-6.3947,-6.3947,-6.4332,-6.4572,-6.4572,-6.4668,-6.4741,-6.4741,-6.4861,-6.4909,-6.4909,-6.4909,-6.4909,-6.4909,-6.5318,-6.527,-6.4741,-6.4861,-6.5125,-6.5534,-6.5534,-6.5823,-6.6328,-6.6328,-6.6376,-6.6496,-6.6496,-6.6496,-6.6496,-6.6496,-6.6496,-6.6496,-6.6496,-6.6496,-6.6658,-5.0725,-5.0725,-5.0725,-5.0725,-5.0725,-5.0914,-5.1932,-5.3333,-5.4961,-5.6573,-5.8189,-5.9613,-6.0223,-6.0419,-6.0419,-6.0419,-6.0419,-6.0419,-6.0419,-6.0419,-6.0419,-6.0419,-6.0419,-6.0614,-6.1176,-6.2121,-6.3272,-6.4199,-6.5353,-6.554,-6.5165,-6.554,-6.5727,-6.5727,-6.631,-6.6496,-6.6496,-6.6496,-6.6496,-6.6496,-6.6496,-6.6496,-6.6496,-6.6496,-6.6496,-6.6496,-6.6496,-6.6496,-6.6496,-6.6496,-6.6496,-6.6496,-6.6496,-6.6135,-6.5606,-6.5077,-6.4548,-6.4019,-6.349,-6.3346,-6.3346,-6.3346,-6.3346,-6.3346,-6.3346,-6.3346,-6.3346,-6.3346,-6.3346,-6.3346,-6.3346,-6.3346,-6.3346,-6.3346,-6.3346,-6.3346,-6.3346,-6.3562,-6.3706,-6.3706,-6.4187,-6.45,-6.45,-6.4765,-6.4909,-6.4909,-6.5149,-6.5294,-6.5294,-6.5534,-6.5654,-6.5654,-6.5654,-6.5654,-6.5654,-6.5943,-6.5943,-6.5654,-6.5654,-6.5823,-6.6087,-6.6087,-6.6232,-6.6496,-6.6496,-6.6496,-6.6496,-6.6496,-6.6496,-6.6496,-6.6496,-6.6496,-6.6496,-6.6496,-6.6496,-6.6496,-5.0725,-5.0725,-5.0725,-5.0725,-5.0725,-5.0725,-5.0725,-5.2119,-5.3741,-5.5386,-5.6973,-5.8585,-6.0223,-6.0419,-6.0419,-6.0419,-6.0419,-6.0419,-6.0419,-6.0419,-6.0419,-6.0419,-6.0419,-6.0419,-6.0419,-6.137,-6.2314,-6.3272,-6.4222,-6.4411,-6.3439,-6.46,-6.4977,-6.4977,-6.61,-6.6496,-6.6496,-6.6496,-6.6496,-6.6496,-6.6496,-6.6496,-6.6496,-6.6496,-6.6496,-6.6496,-6.6496,-6.6496,-6.6496,-6.6496,-6.6496,-6.6496,-6.6496,-6.6183,-6.5727,-6.5197,-6.4741,-6.426,-6.3634,-6.3466,-6.3442,-6.337,-6.3346,-6.3346,-6.3346,-6.3346,-6.3346,-6.3346,-6.3346,-6.3346,-6.3346,-6.3346,-6.337,-6.3466,-6.3466,-6.3514,-6.3586,-6.3995,-6.426,-6.426,-6.4716,-6.5077,-6.5173,-6.5173,-6.5173,-6.5173,-6.5582,-6.5847,-6.5847,-6.6256,-6.6496,-6.6496,-6.6496,-6.6496,-6.6496,-6.6496,-6.6496,-6.6496,-6.6496,-6.6496,-6.6496,-6.6496,-6.6496,-6.6496,-6.6496,-6.6496,-6.6496,-6.6496,-6.6496,-6.6496,-6.6496,-6.6496,-6.6496,-6.6496,-6.6496,-6.6496,-5.0725,-5.0725,-5.0725,-5.0725,-5.0725,-5.0725,-5.0725,-5.2119,-5.3741,-5.5386,-5.6973,-5.8585,-6.0223,-6.0419,-6.0419,-6.0419,-6.0419,-6.0419,-6.0419,-6.0419,-6.0419,-6.0419,-6.0419,-6.0419,-6.0419,-6.137,-6.1951,-6.2143,-6.3272,-6.363,-6.3439,-6.46,-6.4977,-6.4977,-6.61,-6.6496,-6.6496,-6.6496,-6.6496,-6.6496,-6.6496,-6.6496,-6.6496,-6.6496,-6.6496,-6.6496,-6.6496,-6.6496,-6.6496,-6.6496,-6.6496,-6.6496,-6.6496,-6.6448,-6.628,-6.5751,-6.5534,-6.527,-6.4284,-6.4019,-6.3923,-6.3442,-6.3346,-6.3346,-6.3346,-6.3346,-6.3346,-6.3346,-6.3346,-6.3346,-6.3346,-6.3346,-6.349,-6.3947,-6.4019,-6.4187,-6.4644,-6.4765,-6.4813,-6.4813,-6.527,-6.5775,-6.6232,-6.628,-6.628,-6.628,-6.6352,-6.6376,-6.6376,-6.6448,-6.6496,-6.6496,-6.6496,-6.6496,-6.6496,-6.6496,-6.6496,-6.6496,-6.6496,-6.6496,-6.6496,-6.6496,-6.6496,-6.6496,-6.6496,-6.6496,-6.6496,-6.6496,-6.6496,-6.6496,-6.6496,-6.6496,-6.6496,-6.6496,-6.6496,-6.6496,-5.0725,-5.0725,-5.0725,-5.0725,-5.0725,-5.0725,-5.0725,-5.2119,-5.3333,-5.4149,-5.6373,-5.8189,-5.9001,-5.981,-6.0419,-6.0419,-6.0419,-6.0419,-6.0419,-6.0419,-6.0419,-6.0419,-6.0419,-6.0419,-6.0419,-6.0809,-6.0982,-6.0982,-6.2143,-6.2314,-6.1757,-6.2889,-6.3272,-6.3272,-6.4977,-6.5727,-6.5727,-6.6286,-6.6496,-6.6496,-6.6496,-6.6496,-6.6496,-6.6496,-6.6496,-6.6496,-6.6496,-6.6496,-6.6496,-6.6496,-6.6496,-6.6496,-6.6496,-6.6496,-6.6376,-6.5871,-6.5702,-6.5534,-6.4765,-6.4572,-6.4524,-6.4284,-6.4211,-6.4211,-6.4211,-6.4211,-6.4043,-6.3466,-6.3586,-6.3779,-6.3779,-6.4019,-6.4284,-6.4524,-6.4572,-6.4644,-6.4885,-6.5173,-6.5462,-6.5751,-6.5991,-6.6232,-6.6472,-6.6496,-6.6496,-6.6496,-6.6496,-6.6496,-6.6496,-6.6496,-6.6496,-6.6496,-6.6496,-6.6496,-6.6496,-6.6496,-6.6496,-6.6496,-6.6496,-6.6496,-6.6496,-6.6496,-6.6496,-6.6496,-6.6496,-6.6496,-6.6496,-6.6496,-6.6496,-6.6496,-6.6496,-6.6496,-6.6496,-6.6496,-6.6496,-6.6496]}]]